<?xml version='1.0' encoding='UTF-8'?><gpx version="1.1" creator="JPX - https://github.com/jenetics/jpx" xmlns="http://www.topografix.com/GPX/1/1"><trk><trkseg><trkpt lat="44.82602141012873" lon="7.302699203427497"><ele>397.99999999999994</ele><time>2026-04-05T08:14:47.001Z</time></trkpt><trkpt lat="44.826014406670694" lon="7.302599249080152"><ele>398.0</ele><time>2026-04-05T08:14:49.001Z</time></trkpt><trkpt lat="44.82601692582411" lon="7.302503957570598"><ele>398.0</ele><time>2026-04-05T08:14:52.001Z</time></trkpt><trkpt lat="44.82595017839722" lon="7.302490312452226"><ele>398.0</ele><time>2026-04-05T08:15:05.001Z</time></trkpt><trkpt lat="44.82587757899892" lon="7.302535826197769"><ele>397.99999999999994</ele><time>2026-04-05T08:15:07.001Z</time></trkpt><trkpt lat="44.82581770886924" lon="7.30263044774438"><ele>398.0</ele><time>2026-04-05T08:15:09.001Z</time></trkpt><trkpt lat="44.825787031445174" lon="7.302736493021747"><ele>396.99999999999994</ele><time>2026-04-05T08:15:11.001Z</time></trkpt><trkpt lat="44.825762518942064" lon="7.302847808509784"><ele>396.0</ele><time>2026-04-05T08:15:13.001Z</time></trkpt><trkpt lat="44.825743205177886" lon="7.302957608245406"><ele>395.0</ele><time>2026-04-05T08:15:15.001Z</time></trkpt><trkpt lat="44.82572905226129" lon="7.303082116988245"><ele>394.0</ele><time>2026-04-05T08:15:17.001Z</time></trkpt><trkpt lat="44.82571389423092" lon="7.3031941855945925"><ele>392.99999999999994</ele><time>2026-04-05T08:15:19Z</time></trkpt><trkpt lat="44.8256976256583" lon="7.303301570002344"><ele>392.0</ele><time>2026-04-05T08:15:21Z</time></trkpt><trkpt lat="44.82568258100539" lon="7.303404693171469"><ele>391.99999999999994</ele><time>2026-04-05T08:15:23Z</time></trkpt><trkpt lat="44.82566617335247" lon="7.303499224332588"><ele>392.0</ele><time>2026-04-05T08:15:25Z</time></trkpt><trkpt lat="44.825644396446826" lon="7.303582678335906"><ele>392.0</ele><time>2026-04-05T08:15:29Z</time></trkpt><trkpt lat="44.82558978303706" lon="7.303643337546849"><ele>392.0</ele><time>2026-04-05T08:15:32Z</time></trkpt><trkpt lat="44.82548819996456" lon="7.303626918783609"><ele>391.99999999999994</ele><time>2026-04-05T08:15:34Z</time></trkpt><trkpt lat="44.825398961848904" lon="7.303615208560517"><ele>392.0</ele><time>2026-04-05T08:15:36Z</time></trkpt><trkpt lat="44.8252970422218" lon="7.303610460874247"><ele>392.0</ele><time>2026-04-05T08:15:38Z</time></trkpt><trkpt lat="44.82519626575403" lon="7.303603212298706"><ele>392.0</ele><time>2026-04-05T08:15:40Z</time></trkpt><trkpt lat="44.82510211696748" lon="7.303583546984579"><ele>392.0</ele><time>2026-04-05T08:15:42Z</time></trkpt><trkpt lat="44.825026680870394" lon="7.303575993355293"><ele>392.0</ele><time>2026-04-05T08:15:44Z</time></trkpt><trkpt lat="44.82496486477917" lon="7.303724995294271"><ele>392.0</ele><time>2026-04-05T08:15:49Z</time></trkpt><trkpt lat="44.82496824552867" lon="7.3038670380710125"><ele>390.8</ele><time>2026-04-05T08:15:51Z</time></trkpt><trkpt lat="44.824972008199936" lon="7.304007654717607"><ele>389.6</ele><time>2026-04-05T08:15:53Z</time></trkpt><trkpt lat="44.82496466035135" lon="7.304163431497449"><ele>388.40000000000003</ele><time>2026-04-05T08:15:55Z</time></trkpt><trkpt lat="44.82496834357601" lon="7.304326761972725"><ele>387.20000000000005</ele><time>2026-04-05T08:15:57Z</time></trkpt><trkpt lat="44.824965490072145" lon="7.3044882294219"><ele>386.0</ele><time>2026-04-05T08:15:59Z</time></trkpt><trkpt lat="44.824956339210566" lon="7.304644905788169"><ele>385.99999999999994</ele><time>2026-04-05T08:16:01Z</time></trkpt><trkpt lat="44.82494389569053" lon="7.304734130866898"><ele>386.0</ele><time>2026-04-05T08:16:03Z</time></trkpt><trkpt lat="44.82485407717776" lon="7.304800539134269"><ele>386.0</ele><time>2026-04-05T08:16:07Z</time></trkpt><trkpt lat="44.82476960016313" lon="7.304787831595984"><ele>386.0</ele><time>2026-04-05T08:16:09Z</time></trkpt><trkpt lat="44.82468477625373" lon="7.304776625785282"><ele>385.99999999999994</ele><time>2026-04-05T08:16:11Z</time></trkpt><trkpt lat="44.82461564730115" lon="7.3047624888878"><ele>386.0</ele><time>2026-04-05T08:16:13Z</time></trkpt><trkpt lat="44.824531487470786" lon="7.304767212398911"><ele>386.0</ele><time>2026-04-05T08:16:17Z</time></trkpt><trkpt lat="44.824500019234584" lon="7.304865566606136"><ele>386.0</ele><time>2026-04-05T08:16:19Z</time></trkpt><trkpt lat="44.82447693468055" lon="7.304987879964953"><ele>386.0</ele><time>2026-04-05T08:16:21Z</time></trkpt><trkpt lat="44.824455479904834" lon="7.305115104748131"><ele>386.0</ele><time>2026-04-05T08:16:23Z</time></trkpt><trkpt lat="44.82443087901752" lon="7.30524950334684"><ele>386.0</ele><time>2026-04-05T08:16:25Z</time></trkpt><trkpt lat="44.8243927881106" lon="7.305375120563311"><ele>386.0</ele><time>2026-04-05T08:16:27Z</time></trkpt><trkpt lat="44.82436853449493" lon="7.305514993641326"><ele>386.0</ele><time>2026-04-05T08:16:29Z</time></trkpt><trkpt lat="44.82436065288995" lon="7.305680001059914"><ele>386.0</ele><time>2026-04-05T08:16:31Z</time></trkpt><trkpt lat="44.82435446773807" lon="7.305853271977866"><ele>386.0</ele><time>2026-04-05T08:16:33Z</time></trkpt><trkpt lat="44.8243489859392" lon="7.306024770444093"><ele>386.0</ele><time>2026-04-05T08:16:35Z</time></trkpt><trkpt lat="44.824345932999385" lon="7.306193686895118"><ele>386.0</ele><time>2026-04-05T08:16:37Z</time></trkpt><trkpt lat="44.82433533986386" lon="7.306356841781407"><ele>386.0</ele><time>2026-04-05T08:16:39Z</time></trkpt><trkpt lat="44.82432429520195" lon="7.306528415131918"><ele>386.0</ele><time>2026-04-05T08:16:41Z</time></trkpt><trkpt lat="44.824312217009606" lon="7.306703341980546"><ele>385.0</ele><time>2026-04-05T08:16:43Z</time></trkpt><trkpt lat="44.82430467661186" lon="7.30687007559116"><ele>384.0</ele><time>2026-04-05T08:16:45Z</time></trkpt><trkpt lat="44.82429896312439" lon="7.306962024468343"><ele>383.0</ele><time>2026-04-05T08:16:46Z</time></trkpt><trkpt lat="44.82428419519218" lon="7.307119790113385"><ele>382.0</ele><time>2026-04-05T08:16:48Z</time></trkpt><trkpt lat="44.824260377987265" lon="7.3072725997660894"><ele>381.0</ele><time>2026-04-05T08:16:50Z</time></trkpt><trkpt lat="44.82419862668476" lon="7.307371813825285"><ele>380.75</ele><time>2026-04-05T08:16:52.001Z</time></trkpt><trkpt lat="44.824118429302445" lon="7.307480050894605"><ele>380.5</ele><time>2026-04-05T08:16:54.001Z</time></trkpt><trkpt lat="44.82401948556546" lon="7.307592221032668"><ele>380.25</ele><time>2026-04-05T08:16:56.001Z</time></trkpt><trkpt lat="44.823921033890166" lon="7.307665074692855"><ele>380.0</ele><time>2026-04-05T08:16:58.001Z</time></trkpt><trkpt lat="44.82383927768926" lon="7.307771793897342"><ele>380.0</ele><time>2026-04-05T08:17:00.001Z</time></trkpt><trkpt lat="44.82375332572123" lon="7.307882159957423"><ele>380.0</ele><time>2026-04-05T08:17:02.001Z</time></trkpt><trkpt lat="44.823661435063364" lon="7.3079964981034795"><ele>380.0</ele><time>2026-04-05T08:17:04.001Z</time></trkpt><trkpt lat="44.82358781652327" lon="7.308128917635091"><ele>380.0</ele><time>2026-04-05T08:17:06.001Z</time></trkpt><trkpt lat="44.823505756892345" lon="7.308255733051736"><ele>380.25</ele><time>2026-04-05T08:17:08.001Z</time></trkpt><trkpt lat="44.823419709825494" lon="7.308370520240583"><ele>380.5</ele><time>2026-04-05T08:17:10.001Z</time></trkpt><trkpt lat="44.82333405271777" lon="7.308487472686865"><ele>380.75</ele><time>2026-04-05T08:17:12.001Z</time></trkpt><trkpt lat="44.82325090663188" lon="7.308603724176661"><ele>381.0</ele><time>2026-04-05T08:17:14.001Z</time></trkpt><trkpt lat="44.8231730614981" lon="7.308721496550405"><ele>381.0</ele><time>2026-04-05T08:17:16.001Z</time></trkpt><trkpt lat="44.82309143657835" lon="7.308834931747689"><ele>381.0</ele><time>2026-04-05T08:17:18.001Z</time></trkpt><trkpt lat="44.82300514169092" lon="7.308930817259753"><ele>381.0</ele><time>2026-04-05T08:17:20.001Z</time></trkpt><trkpt lat="44.822923601617546" lon="7.309028574054576"><ele>381.0</ele><time>2026-04-05T08:17:22.001Z</time></trkpt><trkpt lat="44.822840001237424" lon="7.309120230706566"><ele>381.0</ele><time>2026-04-05T08:17:24.001Z</time></trkpt><trkpt lat="44.82276565321347" lon="7.309215290567113"><ele>381.0</ele><time>2026-04-05T08:17:26Z</time></trkpt><trkpt lat="44.82269255632417" lon="7.3093068242098935"><ele>381.0</ele><time>2026-04-05T08:17:28Z</time></trkpt><trkpt lat="44.82262422140806" lon="7.309382004792545"><ele>381.0</ele><time>2026-04-05T08:17:30Z</time></trkpt><trkpt lat="44.82256339036393" lon="7.30945119235452"><ele>381.0</ele><time>2026-04-05T08:17:32Z</time></trkpt><trkpt lat="44.822504154082736" lon="7.309493315698653"><ele>381.0</ele><time>2026-04-05T08:17:35Z</time></trkpt><trkpt lat="44.82241877878634" lon="7.309472704126917"><ele>381.0</ele><time>2026-04-05T08:17:58Z</time></trkpt><trkpt lat="44.82235028026946" lon="7.309379052824707"><ele>381.0</ele><time>2026-04-05T08:18:01Z</time></trkpt><trkpt lat="44.822299871041004" lon="7.309299536378366"><ele>381.0</ele><time>2026-04-05T08:18:03Z</time></trkpt><trkpt lat="44.82224152327029" lon="7.309223264624966"><ele>381.0</ele><time>2026-04-05T08:18:05Z</time></trkpt><trkpt lat="44.82218644342255" lon="7.309141238227276"><ele>381.0</ele><time>2026-04-05T08:18:07Z</time></trkpt><trkpt lat="44.82212999770569" lon="7.309063006571052"><ele>381.0</ele><time>2026-04-05T08:18:09Z</time></trkpt><trkpt lat="44.82207798586612" lon="7.308980685923291"><ele>381.0</ele><time>2026-04-05T08:18:11Z</time></trkpt><trkpt lat="44.822021161108694" lon="7.308902666334159"><ele>381.3333333333333</ele><time>2026-04-05T08:18:13Z</time></trkpt><trkpt lat="44.82196380520952" lon="7.308823618714176"><ele>381.6666666666667</ele><time>2026-04-05T08:18:15Z</time></trkpt><trkpt lat="44.82190890125135" lon="7.3087427235328155"><ele>382.0</ele><time>2026-04-05T08:18:17Z</time></trkpt><trkpt lat="44.821853340396956" lon="7.308661940688746"><ele>382.33333333333337</ele><time>2026-04-05T08:18:19Z</time></trkpt><trkpt lat="44.82179641556711" lon="7.308584727640718"><ele>382.6666666666667</ele><time>2026-04-05T08:18:21Z</time></trkpt><trkpt lat="44.821733678115365" lon="7.308498627161692"><ele>383.0</ele><time>2026-04-05T08:18:23Z</time></trkpt><trkpt lat="44.82166563817488" lon="7.308406719604289"><ele>383.2</ele><time>2026-04-05T08:18:25Z</time></trkpt><trkpt lat="44.82160046010388" lon="7.308308648283983"><ele>383.4</ele><time>2026-04-05T08:18:27Z</time></trkpt><trkpt lat="44.82153679664281" lon="7.3082106692747"><ele>383.59999999999997</ele><time>2026-04-05T08:18:29Z</time></trkpt><trkpt lat="44.82147328044472" lon="7.308115112492936"><ele>383.79999999999995</ele><time>2026-04-05T08:18:31Z</time></trkpt><trkpt lat="44.821410637584975" lon="7.3080240507307215"><ele>384.0</ele><time>2026-04-05T08:18:33Z</time></trkpt><trkpt lat="44.8213473210664" lon="7.307930990803038"><ele>384.1666666666667</ele><time>2026-04-05T08:18:35Z</time></trkpt><trkpt lat="44.82128452992287" lon="7.3078372493045425"><ele>384.33333333333337</ele><time>2026-04-05T08:18:37Z</time></trkpt><trkpt lat="44.82122772281738" lon="7.307747550546332"><ele>384.5</ele><time>2026-04-05T08:18:39Z</time></trkpt><trkpt lat="44.821175602548124" lon="7.3076645014296355"><ele>384.6666666666667</ele><time>2026-04-05T08:18:41Z</time></trkpt><trkpt lat="44.82112712553549" lon="7.307590443007137"><ele>384.83333333333337</ele><time>2026-04-05T08:18:43Z</time></trkpt><trkpt lat="44.82108346594432" lon="7.307521888687978"><ele>385.0</ele><time>2026-04-05T08:18:45Z</time></trkpt><trkpt lat="44.821028224745795" lon="7.307435480828092"><ele>385.00000000000006</ele><time>2026-04-05T08:18:48Z</time></trkpt><trkpt lat="44.82098397137152" lon="7.307367067172594"><ele>385.0</ele><time>2026-04-05T08:18:51Z</time></trkpt><trkpt lat="44.82093629810345" lon="7.30729447369262"><ele>385.0</ele><time>2026-04-05T08:18:55Z</time></trkpt><trkpt lat="44.8208933262574" lon="7.30721938168168"><ele>385.0</ele><time>2026-04-05T08:18:58Z</time></trkpt><trkpt lat="44.820837513867836" lon="7.307275356001252"><ele>385.00000000000006</ele><time>2026-04-05T08:19:06.001Z</time></trkpt><trkpt lat="44.82084670388366" lon="7.307409646108583"><ele>385.0</ele><time>2026-04-05T08:19:08.001Z</time></trkpt><trkpt lat="44.82088719125967" lon="7.307543572838612"><ele>385.0</ele><time>2026-04-05T08:19:10.001Z</time></trkpt><trkpt lat="44.820918989784445" lon="7.307679322193103"><ele>385.0</ele><time>2026-04-05T08:19:12.001Z</time></trkpt><trkpt lat="44.820968141270946" lon="7.3078271023143095"><ele>385.0</ele><time>2026-04-05T08:19:14.001Z</time></trkpt><trkpt lat="44.821031711346386" lon="7.307966116436237"><ele>385.0</ele><time>2026-04-05T08:19:16.001Z</time></trkpt><trkpt lat="44.821092620587514" lon="7.308076846857659"><ele>385.0</ele><time>2026-04-05T08:19:18.001Z</time></trkpt><trkpt lat="44.82114555740219" lon="7.308153582406674"><ele>384.83333333333337</ele><time>2026-04-05T08:19:20.001Z</time></trkpt><trkpt lat="44.82120065683486" lon="7.308218005840188"><ele>384.6666666666667</ele><time>2026-04-05T08:19:23.001Z</time></trkpt><trkpt lat="44.821159024705764" lon="7.3082984061381"><ele>384.5</ele><time>2026-04-05T08:19:27.001Z</time></trkpt><trkpt lat="44.82108018502696" lon="7.308357998569884"><ele>384.33333333333337</ele><time>2026-04-05T08:19:30.001Z</time></trkpt><trkpt lat="44.82100118788549" lon="7.308415147880805"><ele>384.1666666666667</ele><time>2026-04-05T08:19:32Z</time></trkpt><trkpt lat="44.820918388894064" lon="7.308474640118484"><ele>384.0</ele><time>2026-04-05T08:19:34Z</time></trkpt><trkpt lat="44.82083048504096" lon="7.308539804901991"><ele>383.79999999999995</ele><time>2026-04-05T08:19:36Z</time></trkpt><trkpt lat="44.82074106554319" lon="7.30860475519712"><ele>383.59999999999997</ele><time>2026-04-05T08:19:38Z</time></trkpt><trkpt lat="44.82065171777107" lon="7.308675467250506"><ele>383.4</ele><time>2026-04-05T08:19:40Z</time></trkpt><trkpt lat="44.82055623472536" lon="7.308748107614898"><ele>383.2</ele><time>2026-04-05T08:19:42Z</time></trkpt><trkpt lat="44.820460899422706" lon="7.308822545441408"><ele>383.0</ele><time>2026-04-05T08:19:44Z</time></trkpt><trkpt lat="44.82036105342991" lon="7.308892214484846"><ele>382.4</ele><time>2026-04-05T08:19:46Z</time></trkpt><trkpt lat="44.820263706459066" lon="7.308964556110717"><ele>381.79999999999995</ele><time>2026-04-05T08:19:48Z</time></trkpt><trkpt lat="44.8201679948302" lon="7.309041593667525"><ele>381.2</ele><time>2026-04-05T08:19:50Z</time></trkpt><trkpt lat="44.82006922914698" lon="7.309113786292997"><ele>380.6</ele><time>2026-04-05T08:19:52Z</time></trkpt><trkpt lat="44.819970408082106" lon="7.3091837679366485"><ele>380.0</ele><time>2026-04-05T08:19:54Z</time></trkpt><trkpt lat="44.81987161312946" lon="7.309260209891348"><ele>380.0</ele><time>2026-04-05T08:19:56Z</time></trkpt><trkpt lat="44.81977378265249" lon="7.309335297653876"><ele>380.0</ele><time>2026-04-05T08:19:58Z</time></trkpt><trkpt lat="44.81967433849097" lon="7.309409391719909"><ele>380.0</ele><time>2026-04-05T08:20:00Z</time></trkpt><trkpt lat="44.819570105587474" lon="7.30948831246057"><ele>380.0</ele><time>2026-04-05T08:20:02Z</time></trkpt><trkpt lat="44.8194731625736" lon="7.309563814315501"><ele>380.0</ele><time>2026-04-05T08:20:04Z</time></trkpt><trkpt lat="44.81937498866648" lon="7.309636265494873"><ele>380.0</ele><time>2026-04-05T08:20:06Z</time></trkpt><trkpt lat="44.81927457921809" lon="7.30970898341302"><ele>380.0</ele><time>2026-04-05T08:20:08Z</time></trkpt><trkpt lat="44.8191739873273" lon="7.309785578202093"><ele>380.0</ele><time>2026-04-05T08:20:10Z</time></trkpt><trkpt lat="44.81907754324729" lon="7.309861183406023"><ele>380.0</ele><time>2026-04-05T08:20:12Z</time></trkpt><trkpt lat="44.81897749906341" lon="7.309936471277361"><ele>379.4</ele><time>2026-04-05T08:20:14Z</time></trkpt><trkpt lat="44.8188795396511" lon="7.310010693629987"><ele>378.8</ele><time>2026-04-05T08:20:16Z</time></trkpt><trkpt lat="44.81878110934762" lon="7.310088115464421"><ele>378.20000000000005</ele><time>2026-04-05T08:20:18Z</time></trkpt><trkpt lat="44.81868192437315" lon="7.310162950720772"><ele>377.6</ele><time>2026-04-05T08:20:20Z</time></trkpt><trkpt lat="44.81858397028844" lon="7.31023506417854"><ele>377.0</ele><time>2026-04-05T08:20:22Z</time></trkpt><trkpt lat="44.81849061042841" lon="7.310310484010434"><ele>377.0</ele><time>2026-04-05T08:20:24Z</time></trkpt><trkpt lat="44.818391899811076" lon="7.310382826057333"><ele>377.0</ele><time>2026-04-05T08:20:26Z</time></trkpt><trkpt lat="44.81829656108187" lon="7.3104553444738904"><ele>377.0</ele><time>2026-04-05T08:20:28Z</time></trkpt><trkpt lat="44.81819988511226" lon="7.310532413182368"><ele>377.0</ele><time>2026-04-05T08:20:30Z</time></trkpt><trkpt lat="44.81810247739299" lon="7.310605139336287"><ele>377.0</ele><time>2026-04-05T08:20:32Z</time></trkpt><trkpt lat="44.818008942744896" lon="7.3106756346263255"><ele>377.20000000000005</ele><time>2026-04-05T08:20:34Z</time></trkpt><trkpt lat="44.8179148294399" lon="7.310746618413234"><ele>377.4</ele><time>2026-04-05T08:20:36Z</time></trkpt><trkpt lat="44.81782226345831" lon="7.310817896143376"><ele>377.6</ele><time>2026-04-05T08:20:38Z</time></trkpt><trkpt lat="44.817728603891815" lon="7.31088778155651"><ele>377.79999999999995</ele><time>2026-04-05T08:20:40Z</time></trkpt><trkpt lat="44.81763735792355" lon="7.310955902816363"><ele>378.0</ele><time>2026-04-05T08:20:42Z</time></trkpt><trkpt lat="44.81754233518289" lon="7.311025718911014"><ele>378.0</ele><time>2026-04-05T08:20:44Z</time></trkpt><trkpt lat="44.81745416775421" lon="7.311094484537804"><ele>378.0</ele><time>2026-04-05T08:20:46Z</time></trkpt><trkpt lat="44.81736461138932" lon="7.31116352872663"><ele>378.0</ele><time>2026-04-05T08:20:48Z</time></trkpt><trkpt lat="44.81727555611015" lon="7.31123367961016"><ele>378.0</ele><time>2026-04-05T08:20:50Z</time></trkpt><trkpt lat="44.81718386298074" lon="7.311299094085959"><ele>378.0</ele><time>2026-04-05T08:20:52Z</time></trkpt><trkpt lat="44.81709651151628" lon="7.311366506122591"><ele>377.59999999999997</ele><time>2026-04-05T08:20:54Z</time></trkpt><trkpt lat="44.81700718319153" lon="7.311431214260444"><ele>377.2</ele><time>2026-04-05T08:20:56Z</time></trkpt><trkpt lat="44.81691986523137" lon="7.311496940699274"><ele>376.8</ele><time>2026-04-05T08:20:58Z</time></trkpt><trkpt lat="44.816835015524056" lon="7.311560133089493"><ele>376.4</ele><time>2026-04-05T08:21:00Z</time></trkpt><trkpt lat="44.81675001503393" lon="7.311623749915682"><ele>376.0</ele><time>2026-04-05T08:21:02Z</time></trkpt><trkpt lat="44.81666364763611" lon="7.311686075528462"><ele>375.8</ele><time>2026-04-05T08:21:04.001Z</time></trkpt><trkpt lat="44.81657819830719" lon="7.311750207420331"><ele>375.6</ele><time>2026-04-05T08:21:06.001Z</time></trkpt><trkpt lat="44.816490934798594" lon="7.311816901600714"><ele>375.4</ele><time>2026-04-05T08:21:08.001Z</time></trkpt><trkpt lat="44.81640195581949" lon="7.31188754093343"><ele>375.2</ele><time>2026-04-05T08:21:10.001Z</time></trkpt><trkpt lat="44.81631340468787" lon="7.31195928068141"><ele>375.0</ele><time>2026-04-05T08:21:12.001Z</time></trkpt><trkpt lat="44.81621944557172" lon="7.312025656327584"><ele>375.0</ele><time>2026-04-05T08:21:14.001Z</time></trkpt><trkpt lat="44.816124832743974" lon="7.312095839577495"><ele>375.0</ele><time>2026-04-05T08:21:16.001Z</time></trkpt><trkpt lat="44.81603281989036" lon="7.312167724690912"><ele>375.0</ele><time>2026-04-05T08:21:18.001Z</time></trkpt><trkpt lat="44.8159381221244" lon="7.312237245812553"><ele>375.0</ele><time>2026-04-05T08:21:20.001Z</time></trkpt><trkpt lat="44.81584538276148" lon="7.31230920808773"><ele>375.0</ele><time>2026-04-05T08:21:22.001Z</time></trkpt><trkpt lat="44.81575194285268" lon="7.3123814490367245"><ele>375.4</ele><time>2026-04-05T08:21:24.001Z</time></trkpt><trkpt lat="44.81565946557887" lon="7.312453379385424"><ele>375.8</ele><time>2026-04-05T08:21:26.001Z</time></trkpt><trkpt lat="44.81556491492977" lon="7.312521045190628"><ele>376.20000000000005</ele><time>2026-04-05T08:21:28.001Z</time></trkpt><trkpt lat="44.81547299643439" lon="7.312590730458915"><ele>376.6</ele><time>2026-04-05T08:21:30.001Z</time></trkpt><trkpt lat="44.81537924065158" lon="7.312658395995658"><ele>377.0</ele><time>2026-04-05T08:21:32.001Z</time></trkpt><trkpt lat="44.81528798704487" lon="7.312729506437374"><ele>377.0</ele><time>2026-04-05T08:21:34.001Z</time></trkpt><trkpt lat="44.81519783566738" lon="7.312806008439687"><ele>377.0</ele><time>2026-04-05T08:21:36.001Z</time></trkpt><trkpt lat="44.815108630739104" lon="7.3128792816651265"><ele>377.0</ele><time>2026-04-05T08:21:37.999Z</time></trkpt><trkpt lat="44.8150161921632" lon="7.312951408134965"><ele>377.0</ele><time>2026-04-05T08:21:40Z</time></trkpt><trkpt lat="44.81492615217291" lon="7.313025170132441"><ele>377.0</ele><time>2026-04-05T08:21:42Z</time></trkpt><trkpt lat="44.81483600822425" lon="7.3130891446736435"><ele>376.8</ele><time>2026-04-05T08:21:44Z</time></trkpt><trkpt lat="44.81474850847238" lon="7.313152330263773"><ele>376.6</ele><time>2026-04-05T08:21:46Z</time></trkpt><trkpt lat="44.814655346491676" lon="7.31321685133832"><ele>376.40000000000003</ele><time>2026-04-05T08:21:48Z</time></trkpt><trkpt lat="44.814558038070544" lon="7.313274556636638"><ele>376.20000000000005</ele><time>2026-04-05T08:21:50Z</time></trkpt><trkpt lat="44.81446264639892" lon="7.313342507691271"><ele>376.0</ele><time>2026-04-05T08:21:52Z</time></trkpt><trkpt lat="44.8143699418517" lon="7.313409536372148"><ele>376.0</ele><time>2026-04-05T08:21:54Z</time></trkpt><trkpt lat="44.81427323620653" lon="7.313465590556176"><ele>376.0</ele><time>2026-04-05T08:21:56Z</time></trkpt><trkpt lat="44.81417626950616" lon="7.3135140591049606"><ele>376.0</ele><time>2026-04-05T08:21:58Z</time></trkpt><trkpt lat="44.81407647593843" lon="7.31356315753326"><ele>376.0</ele><time>2026-04-05T08:22:00Z</time></trkpt><trkpt lat="44.81398197344818" lon="7.313614704058333"><ele>376.0</ele><time>2026-04-05T08:22:02Z</time></trkpt><trkpt lat="44.81388074891402" lon="7.313659764132482"><ele>376.0</ele><time>2026-04-05T08:22:04Z</time></trkpt><trkpt lat="44.813779999779456" lon="7.313695318634051"><ele>376.0</ele><time>2026-04-05T08:22:06Z</time></trkpt><trkpt lat="44.8136785683954" lon="7.313739880775034"><ele>376.0</ele><time>2026-04-05T08:22:08Z</time></trkpt><trkpt lat="44.81357515217824" lon="7.3137810144600515"><ele>376.0</ele><time>2026-04-05T08:22:10Z</time></trkpt><trkpt lat="44.8134676733515" lon="7.3138070307325"><ele>376.0</ele><time>2026-04-05T08:22:12Z</time></trkpt><trkpt lat="44.813352281188074" lon="7.313839307019559"><ele>375.5</ele><time>2026-04-05T08:22:14Z</time></trkpt><trkpt lat="44.813239719279004" lon="7.3138726743043305"><ele>375.0</ele><time>2026-04-05T08:22:16Z</time></trkpt><trkpt lat="44.813122331908495" lon="7.313909387527768"><ele>374.5</ele><time>2026-04-05T08:22:18Z</time></trkpt><trkpt lat="44.81300810780272" lon="7.313937663178707"><ele>374.0</ele><time>2026-04-05T08:22:20Z</time></trkpt><trkpt lat="44.81289941485722" lon="7.313969791168149"><ele>374.0</ele><time>2026-04-05T08:22:22Z</time></trkpt><trkpt lat="44.81279846751617" lon="7.314004896542848"><ele>374.0</ele><time>2026-04-05T08:22:24Z</time></trkpt><trkpt lat="44.81270485211801" lon="7.314033913607054"><ele>374.0</ele><time>2026-04-05T08:22:26Z</time></trkpt><trkpt lat="44.812614974273636" lon="7.314060609645753"><ele>374.0</ele><time>2026-04-05T08:22:28Z</time></trkpt><trkpt lat="44.81252092368901" lon="7.314091200832108"><ele>374.0</ele><time>2026-04-05T08:22:30Z</time></trkpt><trkpt lat="44.81242227810534" lon="7.31411703633006"><ele>374.2</ele><time>2026-04-05T08:22:32Z</time></trkpt><trkpt lat="44.81232647780897" lon="7.314148846290692"><ele>374.4</ele><time>2026-04-05T08:22:34Z</time></trkpt><trkpt lat="44.81223066730772" lon="7.314183169670535"><ele>374.6</ele><time>2026-04-05T08:22:36Z</time></trkpt><trkpt lat="44.812135161777434" lon="7.314211579771245"><ele>374.8</ele><time>2026-04-05T08:22:38Z</time></trkpt><trkpt lat="44.81203935775308" lon="7.314236712832295"><ele>375.0</ele><time>2026-04-05T08:22:40Z</time></trkpt><trkpt lat="44.81193961278863" lon="7.314259231626799"><ele>375.0</ele><time>2026-04-05T08:22:42Z</time></trkpt><trkpt lat="44.81183915637282" lon="7.3142905958535565"><ele>375.0</ele><time>2026-04-05T08:22:44Z</time></trkpt><trkpt lat="44.81174049599787" lon="7.31432002603968"><ele>375.0</ele><time>2026-04-05T08:22:46Z</time></trkpt><trkpt lat="44.81164243798589" lon="7.314347594763907"><ele>375.0</ele><time>2026-04-05T08:22:48Z</time></trkpt><trkpt lat="44.81154629369314" lon="7.314381377631837"><ele>375.0</ele><time>2026-04-05T08:22:50Z</time></trkpt><trkpt lat="44.811448444294804" lon="7.314410695298465"><ele>375.2</ele><time>2026-04-05T08:22:52Z</time></trkpt><trkpt lat="44.81134871331214" lon="7.3144362554016285"><ele>375.4</ele><time>2026-04-05T08:22:54Z</time></trkpt><trkpt lat="44.81125462808553" lon="7.314464439948535"><ele>375.6</ele><time>2026-04-05T08:22:56Z</time></trkpt><trkpt lat="44.81115896304123" lon="7.314496310266757"><ele>375.8</ele><time>2026-04-05T08:22:58Z</time></trkpt><trkpt lat="44.81106145430892" lon="7.314524513932153"><ele>376.0</ele><time>2026-04-05T08:23:00Z</time></trkpt><trkpt lat="44.81096574407142" lon="7.3145549040692615"><ele>376.0</ele><time>2026-04-05T08:23:02Z</time></trkpt><trkpt lat="44.81087496883815" lon="7.3145837113032774"><ele>376.0</ele><time>2026-04-05T08:23:04Z</time></trkpt><trkpt lat="44.8107885355761" lon="7.314613608566256"><ele>376.0</ele><time>2026-04-05T08:23:06Z</time></trkpt><trkpt lat="44.810698343146676" lon="7.314642792091845"><ele>376.0</ele><time>2026-04-05T08:23:08Z</time></trkpt><trkpt lat="44.8106034810907" lon="7.314668432340095"><ele>376.0</ele><time>2026-04-05T08:23:10Z</time></trkpt><trkpt lat="44.81050906692563" lon="7.314696601312765"><ele>376.0</ele><time>2026-04-05T08:23:12Z</time></trkpt><trkpt lat="44.81041282676239" lon="7.314724205233592"><ele>376.0</ele><time>2026-04-05T08:23:14.001Z</time></trkpt><trkpt lat="44.81031285192776" lon="7.314746687331263"><ele>376.0</ele><time>2026-04-05T08:23:16.001Z</time></trkpt><trkpt lat="44.810214691805264" lon="7.314775036562614"><ele>376.0</ele><time>2026-04-05T08:23:18.001Z</time></trkpt><trkpt lat="44.81011507121203" lon="7.3148057012954215"><ele>376.0</ele><time>2026-04-05T08:23:20.001Z</time></trkpt><trkpt lat="44.81001577082525" lon="7.314840314262764"><ele>377.20000000000005</ele><time>2026-04-05T08:23:22.001Z</time></trkpt><trkpt lat="44.809915382051265" lon="7.3148711025679445"><ele>378.40000000000003</ele><time>2026-04-05T08:23:24.001Z</time></trkpt><trkpt lat="44.809816350713014" lon="7.314900962208398"><ele>379.6</ele><time>2026-04-05T08:23:26.001Z</time></trkpt><trkpt lat="44.809717768337556" lon="7.3149303536167105"><ele>380.8</ele><time>2026-04-05T08:23:28.001Z</time></trkpt><trkpt lat="44.80962080999446" lon="7.314961248713436"><ele>382.0</ele><time>2026-04-05T08:23:30.001Z</time></trkpt><trkpt lat="44.80952307932361" lon="7.314989748131969"><ele>382.0</ele><time>2026-04-05T08:23:32.001Z</time></trkpt><trkpt lat="44.809424878422455" lon="7.31501764926312"><ele>382.0</ele><time>2026-04-05T08:23:34.001Z</time></trkpt><trkpt lat="44.80932811832602" lon="7.31504804442665"><ele>382.0</ele><time>2026-04-05T08:23:36.001Z</time></trkpt><trkpt lat="44.809231329231224" lon="7.315079257995496"><ele>382.0</ele><time>2026-04-05T08:23:38.001Z</time></trkpt><trkpt lat="44.80913369845477" lon="7.315107623440979"><ele>382.0</ele><time>2026-04-05T08:23:40.001Z</time></trkpt><trkpt lat="44.80903465764176" lon="7.315135591820723"><ele>381.40000000000003</ele><time>2026-04-05T08:23:42.001Z</time></trkpt><trkpt lat="44.8089365580965" lon="7.315163765699374"><ele>380.8</ele><time>2026-04-05T08:23:43.999Z</time></trkpt><trkpt lat="44.80883601692021" lon="7.315195695047155"><ele>380.2</ele><time>2026-04-05T08:23:45.999Z</time></trkpt><trkpt lat="44.80873509562504" lon="7.315226994386632"><ele>379.6</ele><time>2026-04-05T08:23:47.999Z</time></trkpt><trkpt lat="44.808634169046705" lon="7.3152571446078944"><ele>379.0</ele><time>2026-04-05T08:23:49.999Z</time></trkpt><trkpt lat="44.8085332935153" lon="7.315288475130039"><ele>379.0</ele><time>2026-04-05T08:23:51.999Z</time></trkpt><trkpt lat="44.808432745793745" lon="7.315320183669758"><ele>379.0</ele><time>2026-04-05T08:23:53.999Z</time></trkpt><trkpt lat="44.80833165405345" lon="7.315349669152514"><ele>379.0</ele><time>2026-04-05T08:23:55.999Z</time></trkpt><trkpt lat="44.80822950235433" lon="7.315380494662158"><ele>379.0</ele><time>2026-04-05T08:23:57.999Z</time></trkpt><trkpt lat="44.80812734530223" lon="7.315413735035925"><ele>379.0</ele><time>2026-04-05T08:24:00Z</time></trkpt><trkpt lat="44.80802498238957" lon="7.315445057124843"><ele>379.0</ele><time>2026-04-05T08:24:02Z</time></trkpt><trkpt lat="44.80792284877826" lon="7.315475363415231"><ele>379.0</ele><time>2026-04-05T08:24:04Z</time></trkpt><trkpt lat="44.807820607298616" lon="7.315506015454022"><ele>379.0</ele><time>2026-04-05T08:24:06Z</time></trkpt><trkpt lat="44.807716720476805" lon="7.315537304354828"><ele>379.0</ele><time>2026-04-05T08:24:08Z</time></trkpt><trkpt lat="44.807612507121625" lon="7.315568564493035"><ele>379.0</ele><time>2026-04-05T08:24:10Z</time></trkpt><trkpt lat="44.80751325784924" lon="7.315596993256009"><ele>378.79999999999995</ele><time>2026-04-05T08:24:12Z</time></trkpt><trkpt lat="44.80741413720172" lon="7.315629706259566"><ele>378.59999999999997</ele><time>2026-04-05T08:24:14Z</time></trkpt><trkpt lat="44.80731673245965" lon="7.315654262397492"><ele>378.4</ele><time>2026-04-05T08:24:16Z</time></trkpt><trkpt lat="44.80721738480244" lon="7.315683067476646"><ele>378.2</ele><time>2026-04-05T08:24:18Z</time></trkpt><trkpt lat="44.807118565475676" lon="7.315710786894846"><ele>378.0</ele><time>2026-04-05T08:24:20Z</time></trkpt><trkpt lat="44.80702064592333" lon="7.315742254933324"><ele>378.0</ele><time>2026-04-05T08:24:22Z</time></trkpt><trkpt lat="44.80692280239929" lon="7.315774019713165"><ele>378.0</ele><time>2026-04-05T08:24:24Z</time></trkpt><trkpt lat="44.806824193612705" lon="7.3158029153672235"><ele>378.0</ele><time>2026-04-05T08:24:26Z</time></trkpt><trkpt lat="44.80672388455089" lon="7.3158350869478985"><ele>378.0</ele><time>2026-04-05T08:24:28Z</time></trkpt><trkpt lat="44.80662393086558" lon="7.315865619666527"><ele>378.0</ele><time>2026-04-05T08:24:30Z</time></trkpt><trkpt lat="44.80652364156195" lon="7.31589593538088"><ele>378.4</ele><time>2026-04-05T08:24:32Z</time></trkpt><trkpt lat="44.806425472574816" lon="7.315930717002535"><ele>378.79999999999995</ele><time>2026-04-05T08:24:34Z</time></trkpt><trkpt lat="44.80632645513236" lon="7.315960958867407"><ele>379.2</ele><time>2026-04-05T08:24:36Z</time></trkpt><trkpt lat="44.80622855841632" lon="7.315991713892422"><ele>379.6</ele><time>2026-04-05T08:24:38Z</time></trkpt><trkpt lat="44.80612985013439" lon="7.316022271852589"><ele>380.0</ele><time>2026-04-05T08:24:40Z</time></trkpt><trkpt lat="44.8060315306146" lon="7.316048817952534"><ele>379.8</ele><time>2026-04-05T08:24:42Z</time></trkpt><trkpt lat="44.805932556284354" lon="7.316075009381513"><ele>379.6</ele><time>2026-04-05T08:24:44Z</time></trkpt><trkpt lat="44.80583255473791" lon="7.3161032995491295"><ele>379.4</ele><time>2026-04-05T08:24:46Z</time></trkpt><trkpt lat="44.80573273812812" lon="7.316137414556062"><ele>379.2</ele><time>2026-04-05T08:24:48Z</time></trkpt><trkpt lat="44.80563375317329" lon="7.316175180176897"><ele>379.0</ele><time>2026-04-05T08:24:50Z</time></trkpt><trkpt lat="44.805534130042226" lon="7.31620718981695"><ele>379.0</ele><time>2026-04-05T08:24:52Z</time></trkpt><trkpt lat="44.8054333172174" lon="7.316235901411424"><ele>379.0</ele><time>2026-04-05T08:24:54Z</time></trkpt><trkpt lat="44.80533431595795" lon="7.3162655791909526"><ele>379.0</ele><time>2026-04-05T08:24:56Z</time></trkpt><trkpt lat="44.805236006660614" lon="7.316296353878819"><ele>379.0</ele><time>2026-04-05T08:24:58Z</time></trkpt><trkpt lat="44.80513544147571" lon="7.316322121816587"><ele>379.0</ele><time>2026-04-05T08:25:00Z</time></trkpt><trkpt lat="44.80503641444666" lon="7.316356435345666"><ele>378.79999999999995</ele><time>2026-04-05T08:25:02Z</time></trkpt><trkpt lat="44.804935265277294" lon="7.316389193484172"><ele>378.59999999999997</ele><time>2026-04-05T08:25:04Z</time></trkpt><trkpt lat="44.80483400668925" lon="7.316428775459194"><ele>378.4</ele><time>2026-04-05T08:25:06Z</time></trkpt><trkpt lat="44.80473183292188" lon="7.316469102054179"><ele>378.2</ele><time>2026-04-05T08:25:08Z</time></trkpt><trkpt lat="44.80462746676638" lon="7.316488599191935"><ele>378.0</ele><time>2026-04-05T08:25:10Z</time></trkpt><trkpt lat="44.80452012082342" lon="7.316515341195759"><ele>377.59999999999997</ele><time>2026-04-05T08:25:12Z</time></trkpt><trkpt lat="44.80441106921437" lon="7.316557305848684"><ele>377.2</ele><time>2026-04-05T08:25:14Z</time></trkpt><trkpt lat="44.804301131846614" lon="7.316586887888973"><ele>376.8</ele><time>2026-04-05T08:25:16Z</time></trkpt><trkpt lat="44.804191281144064" lon="7.316618529172273"><ele>376.4</ele><time>2026-04-05T08:25:18Z</time></trkpt><trkpt lat="44.804080495818056" lon="7.316645393421456"><ele>376.0</ele><time>2026-04-05T08:25:20.001Z</time></trkpt><trkpt lat="44.80397326905137" lon="7.31666786652497"><ele>376.0</ele><time>2026-04-05T08:25:22.001Z</time></trkpt><trkpt lat="44.80386742445158" lon="7.316685830066063"><ele>376.0</ele><time>2026-04-05T08:25:24.001Z</time></trkpt><trkpt lat="44.80376159287381" lon="7.316703682050953"><ele>376.0</ele><time>2026-04-05T08:25:26.001Z</time></trkpt><trkpt lat="44.80365769002116" lon="7.316714310833967"><ele>376.0</ele><time>2026-04-05T08:25:28.001Z</time></trkpt><trkpt lat="44.80355716480955" lon="7.3167215978141"><ele>376.0</ele><time>2026-04-05T08:25:30.001Z</time></trkpt><trkpt lat="44.803458608103334" lon="7.316726204223417"><ele>376.0</ele><time>2026-04-05T08:25:32.001Z</time></trkpt><trkpt lat="44.80336283531705" lon="7.316726655859974"><ele>376.0</ele><time>2026-04-05T08:25:34.001Z</time></trkpt><trkpt lat="44.80327084105099" lon="7.31672619321226"><ele>376.0</ele><time>2026-04-05T08:25:36.001Z</time></trkpt><trkpt lat="44.80318311934648" lon="7.316715269223512"><ele>376.0</ele><time>2026-04-05T08:25:38.001Z</time></trkpt><trkpt lat="44.80310237187439" lon="7.31670605889057"><ele>376.0</ele><time>2026-04-05T08:25:40.001Z</time></trkpt><trkpt lat="44.80301828483743" lon="7.316706883839186"><ele>376.0</ele><time>2026-04-05T08:25:42.001Z</time></trkpt><trkpt lat="44.80293290978142" lon="7.316704043837352"><ele>376.0</ele><time>2026-04-05T08:25:44.001Z</time></trkpt><trkpt lat="44.80289624532792" lon="7.316807289842332"><ele>376.0</ele><time>2026-04-05T08:25:46.001Z</time></trkpt><trkpt lat="44.80280926824007" lon="7.316754898633711"><ele>376.0</ele><time>2026-04-05T08:25:48.999Z</time></trkpt><trkpt lat="44.80275702544677" lon="7.316641633487265"><ele>376.0</ele><time>2026-04-05T08:25:50.999Z</time></trkpt><trkpt lat="44.802665452946144" lon="7.316580268364893"><ele>376.0</ele><time>2026-04-05T08:25:52.999Z</time></trkpt><trkpt lat="44.80255471408749" lon="7.316593876471153"><ele>376.0</ele><time>2026-04-05T08:25:54.999Z</time></trkpt><trkpt lat="44.802450957769814" lon="7.316640125137337"><ele>376.0</ele><time>2026-04-05T08:25:56.999Z</time></trkpt><trkpt lat="44.80233950415686" lon="7.316624993061935"><ele>376.0</ele><time>2026-04-05T08:25:58.999Z</time></trkpt><trkpt lat="44.802227425704096" lon="7.316624349554233"><ele>376.0</ele><time>2026-04-05T08:26:00.999Z</time></trkpt><trkpt lat="44.80211776209915" lon="7.316615655889334"><ele>376.0</ele><time>2026-04-05T08:26:02.999Z</time></trkpt><trkpt lat="44.80201220508392" lon="7.316606262509534"><ele>376.0</ele><time>2026-04-05T08:26:05Z</time></trkpt><trkpt lat="44.80190655283814" lon="7.316614492798021"><ele>376.0</ele><time>2026-04-05T08:26:07Z</time></trkpt><trkpt lat="44.80180568427385" lon="7.316609144996611"><ele>376.0</ele><time>2026-04-05T08:26:09Z</time></trkpt><trkpt lat="44.80170239106284" lon="7.316585161552372"><ele>376.0</ele><time>2026-04-05T08:26:11Z</time></trkpt><trkpt lat="44.80159616677451" lon="7.316578359375491"><ele>376.0</ele><time>2026-04-05T08:26:13Z</time></trkpt><trkpt lat="44.80149084958946" lon="7.316572557857344"><ele>376.0</ele><time>2026-04-05T08:26:15Z</time></trkpt><trkpt lat="44.80138637257361" lon="7.3165653679198215"><ele>376.0</ele><time>2026-04-05T08:26:17Z</time></trkpt><trkpt lat="44.80128177066908" lon="7.316559980274239"><ele>376.0</ele><time>2026-04-05T08:26:19Z</time></trkpt><trkpt lat="44.801176167267855" lon="7.3165574768445785"><ele>376.0</ele><time>2026-04-05T08:26:21Z</time></trkpt><trkpt lat="44.80107301179205" lon="7.316552765534625"><ele>376.0</ele><time>2026-04-05T08:26:23Z</time></trkpt><trkpt lat="44.8009700817828" lon="7.316550538989788"><ele>375.4</ele><time>2026-04-05T08:26:25Z</time></trkpt><trkpt lat="44.80086721580961" lon="7.3165500841785605"><ele>374.8</ele><time>2026-04-05T08:26:27Z</time></trkpt><trkpt lat="44.80076401621732" lon="7.316549010993189"><ele>374.2</ele><time>2026-04-05T08:26:29Z</time></trkpt><trkpt lat="44.80065887362655" lon="7.316549682889641"><ele>373.59999999999997</ele><time>2026-04-05T08:26:31Z</time></trkpt><trkpt lat="44.800552865299196" lon="7.316547192482485"><ele>373.0</ele><time>2026-04-05T08:26:33Z</time></trkpt><trkpt lat="44.80045058456294" lon="7.316543134351204"><ele>373.0</ele><time>2026-04-05T08:26:35Z</time></trkpt><trkpt lat="44.80035216820086" lon="7.316540574310739"><ele>373.0</ele><time>2026-04-05T08:26:37Z</time></trkpt><trkpt lat="44.80025158432881" lon="7.316532614457122"><ele>373.0</ele><time>2026-04-05T08:26:39Z</time></trkpt><trkpt lat="44.80015337378241" lon="7.316525554598606"><ele>373.0</ele><time>2026-04-05T08:26:41Z</time></trkpt><trkpt lat="44.800052162817465" lon="7.316516218151216"><ele>373.0</ele><time>2026-04-05T08:26:43Z</time></trkpt><trkpt lat="44.79994788732017" lon="7.31651051270872"><ele>373.0</ele><time>2026-04-05T08:26:45Z</time></trkpt><trkpt lat="44.79984378969609" lon="7.316502308216132"><ele>373.0</ele><time>2026-04-05T08:26:47Z</time></trkpt><trkpt lat="44.799736098617075" lon="7.316494336993247"><ele>373.0</ele><time>2026-04-05T08:26:49Z</time></trkpt><trkpt lat="44.79963055157639" lon="7.316483692971219"><ele>373.0</ele><time>2026-04-05T08:26:51Z</time></trkpt><trkpt lat="44.799524256294916" lon="7.316477212141923"><ele>373.0</ele><time>2026-04-05T08:26:53Z</time></trkpt><trkpt lat="44.799419313495086" lon="7.316470479425688"><ele>372.79999999999995</ele><time>2026-04-05T08:26:55Z</time></trkpt><trkpt lat="44.79931389254934" lon="7.316464590487544"><ele>372.6</ele><time>2026-04-05T08:26:57Z</time></trkpt><trkpt lat="44.79920972113428" lon="7.316462256041789"><ele>372.4</ele><time>2026-04-05T08:26:59Z</time></trkpt><trkpt lat="44.79910473484287" lon="7.316453397425068"><ele>372.20000000000005</ele><time>2026-04-05T08:27:01Z</time></trkpt><trkpt lat="44.798997898371674" lon="7.3164445442348836"><ele>372.0</ele><time>2026-04-05T08:27:03Z</time></trkpt><trkpt lat="44.7988905113683" lon="7.316436991682913"><ele>372.0</ele><time>2026-04-05T08:27:05Z</time></trkpt><trkpt lat="44.798781485039335" lon="7.31642754679657"><ele>372.0</ele><time>2026-04-05T08:27:07Z</time></trkpt><trkpt lat="44.798670627771635" lon="7.316423502286531"><ele>372.0</ele><time>2026-04-05T08:27:09Z</time></trkpt><trkpt lat="44.798559179072825" lon="7.316416004510945"><ele>372.0</ele><time>2026-04-05T08:27:11.001Z</time></trkpt><trkpt lat="44.79844673341045" lon="7.316408346994613"><ele>372.0</ele><time>2026-04-05T08:27:13.001Z</time></trkpt><trkpt lat="44.7983329872147" lon="7.316404689741444"><ele>371.5</ele><time>2026-04-05T08:27:15.001Z</time></trkpt><trkpt lat="44.79821824674749" lon="7.316400722597196"><ele>371.0</ele><time>2026-04-05T08:27:17.001Z</time></trkpt><trkpt lat="44.79810488415453" lon="7.3163937704951945"><ele>370.5</ele><time>2026-04-05T08:27:19.001Z</time></trkpt><trkpt lat="44.79799215930352" lon="7.3163817303891605"><ele>370.0</ele><time>2026-04-05T08:27:21.001Z</time></trkpt><trkpt lat="44.797879273687236" lon="7.316374917135402"><ele>370.0</ele><time>2026-04-05T08:27:23.001Z</time></trkpt><trkpt lat="44.797766202510715" lon="7.316373913684813"><ele>370.0</ele><time>2026-04-05T08:27:25.001Z</time></trkpt><trkpt lat="44.79764907997344" lon="7.31637080349164"><ele>370.0</ele><time>2026-04-05T08:27:27.001Z</time></trkpt><trkpt lat="44.797531146034885" lon="7.31635041923303"><ele>370.0</ele><time>2026-04-05T08:27:29.001Z</time></trkpt><trkpt lat="44.797415585353065" lon="7.316339988128008"><ele>370.0</ele><time>2026-04-05T08:27:31.001Z</time></trkpt><trkpt lat="44.797299440204306" lon="7.316334531707842"><ele>370.0</ele><time>2026-04-05T08:27:33.001Z</time></trkpt><trkpt lat="44.797184688749404" lon="7.316328645894298"><ele>370.0</ele><time>2026-04-05T08:27:35.001Z</time></trkpt><trkpt lat="44.797071387463895" lon="7.3163260115152635"><ele>370.0</ele><time>2026-04-05T08:27:37.001Z</time></trkpt><trkpt lat="44.79695917864095" lon="7.3163171832012335"><ele>370.0</ele><time>2026-04-05T08:27:39.001Z</time></trkpt><trkpt lat="44.796849479805964" lon="7.3163031828980145"><ele>370.0</ele><time>2026-04-05T08:27:41.001Z</time></trkpt><trkpt lat="44.796738520547144" lon="7.316292374278754"><ele>370.0</ele><time>2026-04-05T08:27:43.001Z</time></trkpt><trkpt lat="44.796628134370245" lon="7.3162887775648215"><ele>370.0</ele><time>2026-04-05T08:27:45.001Z</time></trkpt><trkpt lat="44.79651538342357" lon="7.316285260445025"><ele>370.0</ele><time>2026-04-05T08:27:47.001Z</time></trkpt><trkpt lat="44.79640361082011" lon="7.316276059112558"><ele>370.2</ele><time>2026-04-05T08:27:49.001Z</time></trkpt><trkpt lat="44.79629159050797" lon="7.316262186567318"><ele>370.4</ele><time>2026-04-05T08:27:51.001Z</time></trkpt><trkpt lat="44.796178663291315" lon="7.316251588477015"><ele>370.6</ele><time>2026-04-05T08:27:53.001Z</time></trkpt><trkpt lat="44.79606854941415" lon="7.316254099526686"><ele>370.8</ele><time>2026-04-05T08:27:54.999Z</time></trkpt><trkpt lat="44.79596389321928" lon="7.316258718243401"><ele>371.0</ele><time>2026-04-05T08:27:57Z</time></trkpt><trkpt lat="44.7958490630589" lon="7.316249993216541"><ele>371.0</ele><time>2026-04-05T08:27:58.999Z</time></trkpt><trkpt lat="44.79573961635883" lon="7.316231619460997"><ele>371.0</ele><time>2026-04-05T08:28:00.999Z</time></trkpt><trkpt lat="44.795631329452114" lon="7.316223995660054"><ele>371.0</ele><time>2026-04-05T08:28:03Z</time></trkpt><trkpt lat="44.79552474506327" lon="7.316218436245922"><ele>371.0</ele><time>2026-04-05T08:28:04.999Z</time></trkpt><trkpt lat="44.795416708303485" lon="7.316207355161306"><ele>371.0</ele><time>2026-04-05T08:28:07Z</time></trkpt><trkpt lat="44.79530541206373" lon="7.316206485472671"><ele>371.0</ele><time>2026-04-05T08:28:09Z</time></trkpt><trkpt lat="44.795192428107526" lon="7.316203416694421"><ele>371.0</ele><time>2026-04-05T08:28:11Z</time></trkpt><trkpt lat="44.79508092967445" lon="7.316196130990174"><ele>371.0</ele><time>2026-04-05T08:28:13Z</time></trkpt><trkpt lat="44.79496859988191" lon="7.316186532086735"><ele>371.0</ele><time>2026-04-05T08:28:15Z</time></trkpt><trkpt lat="44.79485752936887" lon="7.316177818587145"><ele>371.0</ele><time>2026-04-05T08:28:17Z</time></trkpt><trkpt lat="44.7947469651819" lon="7.316171079739903"><ele>371.0</ele><time>2026-04-05T08:28:19Z</time></trkpt><trkpt lat="44.79463534163252" lon="7.316157637001343"><ele>371.0</ele><time>2026-04-05T08:28:21Z</time></trkpt><trkpt lat="44.79452302276646" lon="7.316148172448915"><ele>371.0</ele><time>2026-04-05T08:28:23Z</time></trkpt><trkpt lat="44.79441059692905" lon="7.316148396325556"><ele>371.0</ele><time>2026-04-05T08:28:25Z</time></trkpt><trkpt lat="44.79429632957307" lon="7.316140759246041"><ele>370.8</ele><time>2026-04-05T08:28:27Z</time></trkpt><trkpt lat="44.79418256145787" lon="7.3161296042270685"><ele>370.6</ele><time>2026-04-05T08:28:29Z</time></trkpt><trkpt lat="44.79407166416034" lon="7.31612419823636"><ele>370.4</ele><time>2026-04-05T08:28:31Z</time></trkpt><trkpt lat="44.79396161492472" lon="7.316117484432168"><ele>370.2</ele><time>2026-04-05T08:28:33Z</time></trkpt><trkpt lat="44.79385377779148" lon="7.316111833728104"><ele>370.0</ele><time>2026-04-05T08:28:35Z</time></trkpt><trkpt lat="44.79374500540711" lon="7.316106294621965"><ele>370.0</ele><time>2026-04-05T08:28:37Z</time></trkpt><trkpt lat="44.793637358158136" lon="7.31610125656976"><ele>370.0</ele><time>2026-04-05T08:28:39Z</time></trkpt><trkpt lat="44.79352861483011" lon="7.316094924928236"><ele>370.0</ele><time>2026-04-05T08:28:41Z</time></trkpt><trkpt lat="44.79341981900529" lon="7.316084747787073"><ele>370.0</ele><time>2026-04-05T08:28:43Z</time></trkpt><trkpt lat="44.7933097092571" lon="7.316073973529178"><ele>370.0</ele><time>2026-04-05T08:28:45Z</time></trkpt><trkpt lat="44.793199945818984" lon="7.316071523427757"><ele>369.6</ele><time>2026-04-05T08:28:47Z</time></trkpt><trkpt lat="44.79309032750017" lon="7.316064477974094"><ele>369.2</ele><time>2026-04-05T08:28:49Z</time></trkpt><trkpt lat="44.792983756366944" lon="7.316055700839917"><ele>368.79999999999995</ele><time>2026-04-05T08:28:51Z</time></trkpt><trkpt lat="44.79287816444763" lon="7.316051158561359"><ele>368.4</ele><time>2026-04-05T08:28:53Z</time></trkpt><trkpt lat="44.79277223203402" lon="7.316041855833582"><ele>368.0</ele><time>2026-04-05T08:28:55Z</time></trkpt><trkpt lat="44.79266484118623" lon="7.31603390350686"><ele>367.4</ele><time>2026-04-05T08:28:57Z</time></trkpt><trkpt lat="44.79255790756575" lon="7.316029939700718"><ele>366.79999999999995</ele><time>2026-04-05T08:28:59Z</time></trkpt><trkpt lat="44.792451691435595" lon="7.316027671370681"><ele>366.2</ele><time>2026-04-05T08:29:01Z</time></trkpt><trkpt lat="44.792347600751555" lon="7.316014805385416"><ele>365.6</ele><time>2026-04-05T08:29:03Z</time></trkpt><trkpt lat="44.792242386249505" lon="7.316007516221911"><ele>365.0</ele><time>2026-04-05T08:29:05Z</time></trkpt><trkpt lat="44.79213654649243" lon="7.316002515227048"><ele>365.0</ele><time>2026-04-05T08:29:07Z</time></trkpt><trkpt lat="44.79203115565488" lon="7.31599446151631"><ele>365.0</ele><time>2026-04-05T08:29:09Z</time></trkpt><trkpt lat="44.79192501275204" lon="7.3159877847599715"><ele>365.0</ele><time>2026-04-05T08:29:11Z</time></trkpt><trkpt lat="44.791818223400625" lon="7.315981334899794"><ele>365.0</ele><time>2026-04-05T08:29:13Z</time></trkpt><trkpt lat="44.79171043891651" lon="7.3159724053397746"><ele>365.0</ele><time>2026-04-05T08:29:15Z</time></trkpt><trkpt lat="44.791602989035994" lon="7.315963343883521"><ele>365.2</ele><time>2026-04-05T08:29:17Z</time></trkpt><trkpt lat="44.791496082605654" lon="7.315954706096292"><ele>365.4</ele><time>2026-04-05T08:29:19Z</time></trkpt><trkpt lat="44.79138999957697" lon="7.315948292754386"><ele>365.6</ele><time>2026-04-05T08:29:21.001Z</time></trkpt><trkpt lat="44.79128470794364" lon="7.315943894093647"><ele>365.8</ele><time>2026-04-05T08:29:23.001Z</time></trkpt><trkpt lat="44.791179321801394" lon="7.315936648291559"><ele>366.0</ele><time>2026-04-05T08:29:25.001Z</time></trkpt><trkpt lat="44.791076199431" lon="7.315933211722292"><ele>365.8</ele><time>2026-04-05T08:29:27.001Z</time></trkpt><trkpt lat="44.79097173222912" lon="7.315927752244241"><ele>365.6</ele><time>2026-04-05T08:29:29.001Z</time></trkpt><trkpt lat="44.79086744022582" lon="7.315917002736465"><ele>365.4</ele><time>2026-04-05T08:29:31.001Z</time></trkpt><trkpt lat="44.790763146070205" lon="7.315910307304803"><ele>365.2</ele><time>2026-04-05T08:29:33.001Z</time></trkpt><trkpt lat="44.7906615706723" lon="7.315900819086614"><ele>365.0</ele><time>2026-04-05T08:29:35.001Z</time></trkpt><trkpt lat="44.790559819440084" lon="7.315889251873525"><ele>365.0</ele><time>2026-04-05T08:29:37.001Z</time></trkpt><trkpt lat="44.79045728692687" lon="7.315884040477714"><ele>365.0</ele><time>2026-04-05T08:29:39.001Z</time></trkpt><trkpt lat="44.79035878673872" lon="7.315875914448925"><ele>365.0</ele><time>2026-04-05T08:29:41.001Z</time></trkpt><trkpt lat="44.79026261159774" lon="7.315870446629185"><ele>365.0</ele><time>2026-04-05T08:29:43.001Z</time></trkpt><trkpt lat="44.79017863024226" lon="7.315865215071053"><ele>365.0</ele><time>2026-04-05T08:29:45.001Z</time></trkpt><trkpt lat="44.79011389167059" lon="7.315850280117903"><ele>365.0</ele><time>2026-04-05T08:29:47.001Z</time></trkpt><trkpt lat="44.79003550617984" lon="7.315857132489572"><ele>365.2</ele><time>2026-04-05T08:29:49.001Z</time></trkpt><trkpt lat="44.78994753553812" lon="7.315856518420641"><ele>365.4</ele><time>2026-04-05T08:29:51.001Z</time></trkpt><trkpt lat="44.78984888601301" lon="7.315846520821868"><ele>365.6</ele><time>2026-04-05T08:29:53.001Z</time></trkpt><trkpt lat="44.78974381722399" lon="7.315843718480747"><ele>365.8</ele><time>2026-04-05T08:29:55.001Z</time></trkpt><trkpt lat="44.789638470948745" lon="7.315844734461849"><ele>366.0</ele><time>2026-04-05T08:29:57.001Z</time></trkpt><trkpt lat="44.789533893341286" lon="7.315834848204793"><ele>366.0</ele><time>2026-04-05T08:29:59.001Z</time></trkpt><trkpt lat="44.78942947769532" lon="7.315822758199739"><ele>366.0</ele><time>2026-04-05T08:30:00.999Z</time></trkpt><trkpt lat="44.789326748371" lon="7.31581582508604"><ele>366.0</ele><time>2026-04-05T08:30:02.999Z</time></trkpt><trkpt lat="44.78922490170524" lon="7.315809679354447"><ele>366.0</ele><time>2026-04-05T08:30:04.999Z</time></trkpt><trkpt lat="44.78912641604891" lon="7.315801563225702"><ele>366.0</ele><time>2026-04-05T08:30:06.999Z</time></trkpt><trkpt lat="44.78902458098696" lon="7.315793782693816"><ele>366.20000000000005</ele><time>2026-04-05T08:30:08.999Z</time></trkpt><trkpt lat="44.78892129037886" lon="7.3157863399746095"><ele>366.40000000000003</ele><time>2026-04-05T08:30:10.999Z</time></trkpt><trkpt lat="44.78881666184412" lon="7.315775655258396"><ele>366.6</ele><time>2026-04-05T08:30:12.999Z</time></trkpt><trkpt lat="44.78871277138426" lon="7.315764037093473"><ele>366.8</ele><time>2026-04-05T08:30:14.999Z</time></trkpt><trkpt lat="44.788608573944295" lon="7.315750373042567"><ele>367.0</ele><time>2026-04-05T08:30:16.999Z</time></trkpt><trkpt lat="44.788505331050956" lon="7.315729211850667"><ele>367.0</ele><time>2026-04-05T08:30:19Z</time></trkpt><trkpt lat="44.78839958680274" lon="7.315701326768345"><ele>367.0</ele><time>2026-04-05T08:30:21Z</time></trkpt><trkpt lat="44.78829331795361" lon="7.315677983811687"><ele>367.0</ele><time>2026-04-05T08:30:23Z</time></trkpt><trkpt lat="44.78818599167451" lon="7.315657300901244"><ele>367.0</ele><time>2026-04-05T08:30:25Z</time></trkpt><trkpt lat="44.788082749992356" lon="7.315615864001076"><ele>367.0</ele><time>2026-04-05T08:30:27Z</time></trkpt><trkpt lat="44.78797953139133" lon="7.315571613570806"><ele>367.20000000000005</ele><time>2026-04-05T08:30:29Z</time></trkpt><trkpt lat="44.78787838966884" lon="7.315515451293759"><ele>367.4</ele><time>2026-04-05T08:30:31Z</time></trkpt><trkpt lat="44.78777641591253" lon="7.315459630947403"><ele>367.6</ele><time>2026-04-05T08:30:33Z</time></trkpt><trkpt lat="44.78767424906923" lon="7.315406746057436"><ele>367.79999999999995</ele><time>2026-04-05T08:30:35Z</time></trkpt><trkpt lat="44.78757029059012" lon="7.315352260843334"><ele>368.0</ele><time>2026-04-05T08:30:37Z</time></trkpt><trkpt lat="44.78746428522814" lon="7.315299003849313"><ele>368.0</ele><time>2026-04-05T08:30:39Z</time></trkpt><trkpt lat="44.787362571271885" lon="7.315241614888554"><ele>368.0</ele><time>2026-04-05T08:30:41Z</time></trkpt><trkpt lat="44.787264084644896" lon="7.3151747898488875"><ele>368.0</ele><time>2026-04-05T08:30:43Z</time></trkpt><trkpt lat="44.78716588011002" lon="7.3151071430639005"><ele>368.0</ele><time>2026-04-05T08:30:45Z</time></trkpt><trkpt lat="44.78706631004625" lon="7.315042709006082"><ele>368.0</ele><time>2026-04-05T08:30:47Z</time></trkpt><trkpt lat="44.78696752303221" lon="7.31497442633797"><ele>368.0</ele><time>2026-04-05T08:30:49Z</time></trkpt><trkpt lat="44.7868694343637" lon="7.314908402765303"><ele>368.0</ele><time>2026-04-05T08:30:51Z</time></trkpt><trkpt lat="44.7867692474996" lon="7.3148420788321165"><ele>368.0</ele><time>2026-04-05T08:30:53Z</time></trkpt><trkpt lat="44.78667158823376" lon="7.314771293090252"><ele>368.0</ele><time>2026-04-05T08:30:55Z</time></trkpt><trkpt lat="44.78657057291172" lon="7.314701679211809"><ele>368.0</ele><time>2026-04-05T08:30:57Z</time></trkpt><trkpt lat="44.786472964975474" lon="7.314640627257671"><ele>367.59999999999997</ele><time>2026-04-05T08:30:59Z</time></trkpt><trkpt lat="44.78637516908744" lon="7.314578685866293"><ele>367.2</ele><time>2026-04-05T08:31:01Z</time></trkpt><trkpt lat="44.78628032407694" lon="7.314514096078426"><ele>366.8</ele><time>2026-04-05T08:31:03Z</time></trkpt><trkpt lat="44.78618581207428" lon="7.314449989610489"><ele>366.4</ele><time>2026-04-05T08:31:05Z</time></trkpt><trkpt lat="44.78609012855571" lon="7.3143810370914935"><ele>366.0</ele><time>2026-04-05T08:31:07Z</time></trkpt><trkpt lat="44.78599212621015" lon="7.314317947533008"><ele>365.5</ele><time>2026-04-05T08:31:09Z</time></trkpt><trkpt lat="44.78589049634441" lon="7.314247627671068"><ele>365.0</ele><time>2026-04-05T08:31:11Z</time></trkpt><trkpt lat="44.78578616816239" lon="7.314179140315419"><ele>364.5</ele><time>2026-04-05T08:31:13Z</time></trkpt><trkpt lat="44.785682368000295" lon="7.314109187857502"><ele>364.0</ele><time>2026-04-05T08:31:15Z</time></trkpt><trkpt lat="44.785578642538496" lon="7.314037230248759"><ele>364.0</ele><time>2026-04-05T08:31:17Z</time></trkpt><trkpt lat="44.785471177162684" lon="7.313968793168075"><ele>364.0</ele><time>2026-04-05T08:31:19Z</time></trkpt><trkpt lat="44.7853655716361" lon="7.313898457405323"><ele>364.0</ele><time>2026-04-05T08:31:21Z</time></trkpt><trkpt lat="44.78526035384865" lon="7.313827200819285"><ele>364.0</ele><time>2026-04-05T08:31:23Z</time></trkpt><trkpt lat="44.78515517475304" lon="7.313758475480115"><ele>364.25</ele><time>2026-04-05T08:31:25Z</time></trkpt><trkpt lat="44.78504974653716" lon="7.313687720936424"><ele>364.5</ele><time>2026-04-05T08:31:27.001Z</time></trkpt><trkpt lat="44.78494434410158" lon="7.313620088842045"><ele>364.75</ele><time>2026-04-05T08:31:29.001Z</time></trkpt><trkpt lat="44.784839448871885" lon="7.313550646873203"><ele>365.0</ele><time>2026-04-05T08:31:31.001Z</time></trkpt><trkpt lat="44.784736110598644" lon="7.313482765618794"><ele>365.0</ele><time>2026-04-05T08:31:33.001Z</time></trkpt><trkpt lat="44.78463321258846" lon="7.313415645753521"><ele>365.0</ele><time>2026-04-05T08:31:35.001Z</time></trkpt><trkpt lat="44.784533102241035" lon="7.31334718794525"><ele>365.0</ele><time>2026-04-05T08:31:37.001Z</time></trkpt><trkpt lat="44.784433679597804" lon="7.313281645137983"><ele>365.0</ele><time>2026-04-05T08:31:39.001Z</time></trkpt><trkpt lat="44.78433106030121" lon="7.313218723596245"><ele>365.0</ele><time>2026-04-05T08:31:41.001Z</time></trkpt><trkpt lat="44.78422856072763" lon="7.313152542512787"><ele>364.75</ele><time>2026-04-05T08:31:43.001Z</time></trkpt><trkpt lat="44.784126040863086" lon="7.313083895613068"><ele>364.5</ele><time>2026-04-05T08:31:45.001Z</time></trkpt><trkpt lat="44.78402432676441" lon="7.313013801427043"><ele>364.25</ele><time>2026-04-05T08:31:47.001Z</time></trkpt><trkpt lat="44.78392019934985" lon="7.312944638001462"><ele>364.0</ele><time>2026-04-05T08:31:49.001Z</time></trkpt><trkpt lat="44.78381424502755" lon="7.312874608419398"><ele>364.0</ele><time>2026-04-05T08:31:51.001Z</time></trkpt><trkpt lat="44.78370908830276" lon="7.312805243478082"><ele>364.0</ele><time>2026-04-05T08:31:53.001Z</time></trkpt><trkpt lat="44.78360329145464" lon="7.312731942756079"><ele>364.0</ele><time>2026-04-05T08:31:55.001Z</time></trkpt><trkpt lat="44.783497307981335" lon="7.312660078082916"><ele>364.0</ele><time>2026-04-05T08:31:57.001Z</time></trkpt><trkpt lat="44.78339110623173" lon="7.312586246641629"><ele>364.0</ele><time>2026-04-05T08:31:59.001Z</time></trkpt><trkpt lat="44.783282210575514" lon="7.312515369035579"><ele>364.0</ele><time>2026-04-05T08:32:01.001Z</time></trkpt><trkpt lat="44.783174974939826" lon="7.312443857516455"><ele>364.0</ele><time>2026-04-05T08:32:03.001Z</time></trkpt><trkpt lat="44.78307004974908" lon="7.312374469536299"><ele>364.0</ele><time>2026-04-05T08:32:05.001Z</time></trkpt><trkpt lat="44.782966269568355" lon="7.312304880142631"><ele>364.0</ele><time>2026-04-05T08:32:06.999Z</time></trkpt><trkpt lat="44.78286292981007" lon="7.31223448002044"><ele>364.0</ele><time>2026-04-05T08:32:08.999Z</time></trkpt><trkpt lat="44.78275807513635" lon="7.312163394179602"><ele>364.0</ele><time>2026-04-05T08:32:10.999Z</time></trkpt><trkpt lat="44.78265279421997" lon="7.312095920415974"><ele>364.0</ele><time>2026-04-05T08:32:12.999Z</time></trkpt><trkpt lat="44.782548602918126" lon="7.312027629376154"><ele>364.0</ele><time>2026-04-05T08:32:14.999Z</time></trkpt><trkpt lat="44.78244438935204" lon="7.311961591889226"><ele>364.0</ele><time>2026-04-05T08:32:16.999Z</time></trkpt><trkpt lat="44.78234265590599" lon="7.311893234491648"><ele>364.0</ele><time>2026-04-05T08:32:18.999Z</time></trkpt><trkpt lat="44.782241347977404" lon="7.311826461965387"><ele>364.0</ele><time>2026-04-05T08:32:20.999Z</time></trkpt><trkpt lat="44.782141077318045" lon="7.311759541824828"><ele>364.0</ele><time>2026-04-05T08:32:23Z</time></trkpt><trkpt lat="44.782039937537064" lon="7.31169882336473"><ele>364.0</ele><time>2026-04-05T08:32:25Z</time></trkpt><trkpt lat="44.78194026906466" lon="7.311636241578874"><ele>364.0</ele><time>2026-04-05T08:32:27Z</time></trkpt><trkpt lat="44.78184310255799" lon="7.311570409406349"><ele>364.0</ele><time>2026-04-05T08:32:29Z</time></trkpt><trkpt lat="44.781745824666515" lon="7.311501454377501"><ele>364.0</ele><time>2026-04-05T08:32:31Z</time></trkpt><trkpt lat="44.78164521854842" lon="7.311438165744303"><ele>364.0</ele><time>2026-04-05T08:32:33Z</time></trkpt><trkpt lat="44.781544709666115" lon="7.311371786738558"><ele>364.0</ele><time>2026-04-05T08:32:35Z</time></trkpt><trkpt lat="44.781445091956755" lon="7.311305686637792"><ele>364.0</ele><time>2026-04-05T08:32:37Z</time></trkpt><trkpt lat="44.78134496244079" lon="7.311241499331391"><ele>364.0</ele><time>2026-04-05T08:32:39Z</time></trkpt><trkpt lat="44.7812455359348" lon="7.311177088583304"><ele>364.0</ele><time>2026-04-05T08:32:41Z</time></trkpt><trkpt lat="44.78114621304919" lon="7.3111129856202695"><ele>364.0</ele><time>2026-04-05T08:32:43Z</time></trkpt><trkpt lat="44.781048217333215" lon="7.311048128332965"><ele>364.0</ele><time>2026-04-05T08:32:45Z</time></trkpt><trkpt lat="44.78095077076097" lon="7.310978068114934"><ele>364.0</ele><time>2026-04-05T08:32:47Z</time></trkpt><trkpt lat="44.78085133499335" lon="7.310913484420577"><ele>364.0</ele><time>2026-04-05T08:32:49Z</time></trkpt><trkpt lat="44.78075291424784" lon="7.310845246970422"><ele>364.0</ele><time>2026-04-05T08:32:51Z</time></trkpt><trkpt lat="44.78065347356193" lon="7.310779418906775"><ele>363.79999999999995</ele><time>2026-04-05T08:32:53Z</time></trkpt><trkpt lat="44.78055688602005" lon="7.310714814437898"><ele>363.59999999999997</ele><time>2026-04-05T08:32:55Z</time></trkpt><trkpt lat="44.78045774160479" lon="7.310651736243513"><ele>363.4</ele><time>2026-04-05T08:32:57Z</time></trkpt><trkpt lat="44.78036042546027" lon="7.310584457673791"><ele>363.2</ele><time>2026-04-05T08:32:59Z</time></trkpt><trkpt lat="44.7802650924729" lon="7.310517176341428"><ele>363.0</ele><time>2026-04-05T08:33:01Z</time></trkpt><trkpt lat="44.780168962636644" lon="7.310455296505853"><ele>362.4</ele><time>2026-04-05T08:33:03Z</time></trkpt><trkpt lat="44.780071647913076" lon="7.310394657116197"><ele>361.79999999999995</ele><time>2026-04-05T08:33:05Z</time></trkpt><trkpt lat="44.77997428953526" lon="7.3103331245970224"><ele>361.2</ele><time>2026-04-05T08:33:07Z</time></trkpt><trkpt lat="44.779877749435116" lon="7.310270148802515"><ele>360.6</ele><time>2026-04-05T08:33:09Z</time></trkpt><trkpt lat="44.77977646674432" lon="7.310211316659311"><ele>360.0</ele><time>2026-04-05T08:33:11Z</time></trkpt><trkpt lat="44.77967515613398" lon="7.310156437630267"><ele>360.0</ele><time>2026-04-05T08:33:13Z</time></trkpt><trkpt lat="44.77957157199976" lon="7.310105751306612"><ele>360.0</ele><time>2026-04-05T08:33:15Z</time></trkpt><trkpt lat="44.77946532998664" lon="7.3100657087932275"><ele>360.0</ele><time>2026-04-05T08:33:17Z</time></trkpt><trkpt lat="44.77936311656267" lon="7.310025011588803"><ele>360.0</ele><time>2026-04-05T08:33:19Z</time></trkpt><trkpt lat="44.7792599101263" lon="7.309988554260884"><ele>360.0</ele><time>2026-04-05T08:33:21Z</time></trkpt><trkpt lat="44.77915547751697" lon="7.3099461224703255"><ele>360.0</ele><time>2026-04-05T08:33:23Z</time></trkpt><trkpt lat="44.779050914360084" lon="7.309915220429508"><ele>360.0</ele><time>2026-04-05T08:33:25Z</time></trkpt><trkpt lat="44.77894615216731" lon="7.309887911524925"><ele>360.0</ele><time>2026-04-05T08:33:27Z</time></trkpt><trkpt lat="44.77883713889637" lon="7.30985967388551"><ele>360.0</ele><time>2026-04-05T08:33:29.001Z</time></trkpt><trkpt lat="44.77872702020366" lon="7.3098399642048815"><ele>360.0</ele><time>2026-04-05T08:33:31.001Z</time></trkpt><trkpt lat="44.77861242446406" lon="7.309831257662048"><ele>359.8</ele><time>2026-04-05T08:33:33.001Z</time></trkpt><trkpt lat="44.778505158108956" lon="7.309816592556978"><ele>359.6</ele><time>2026-04-05T08:33:35.001Z</time></trkpt><trkpt lat="44.7784000578654" lon="7.309804011167344"><ele>359.4</ele><time>2026-04-05T08:33:37.001Z</time></trkpt><trkpt lat="44.77829295227234" lon="7.309797225534892"><ele>359.2</ele><time>2026-04-05T08:33:39.001Z</time></trkpt><trkpt lat="44.778184720059855" lon="7.30979133991593"><ele>359.0</ele><time>2026-04-05T08:33:41.001Z</time></trkpt><trkpt lat="44.77807331784479" lon="7.30979472035861"><ele>359.0</ele><time>2026-04-05T08:33:43.001Z</time></trkpt><trkpt lat="44.777960397330496" lon="7.3097965223902746"><ele>359.0</ele><time>2026-04-05T08:33:45.001Z</time></trkpt><trkpt lat="44.77785045643506" lon="7.309809770164324"><ele>359.0</ele><time>2026-04-05T08:33:47.001Z</time></trkpt><trkpt lat="44.77773703905516" lon="7.309825016846893"><ele>359.0</ele><time>2026-04-05T08:33:49.001Z</time></trkpt><trkpt lat="44.77762456556361" lon="7.309842661561953"><ele>359.0</ele><time>2026-04-05T08:33:51.001Z</time></trkpt><trkpt lat="44.777512827309025" lon="7.3098548438851845"><ele>359.0</ele><time>2026-04-05T08:33:53.001Z</time></trkpt><trkpt lat="44.77739988037316" lon="7.309866764602249"><ele>359.0</ele><time>2026-04-05T08:33:55.001Z</time></trkpt><trkpt lat="44.7772887361204" lon="7.309880799083758"><ele>359.0</ele><time>2026-04-05T08:33:57.001Z</time></trkpt><trkpt lat="44.77717528572109" lon="7.309894586901067"><ele>359.0</ele><time>2026-04-05T08:33:59.001Z</time></trkpt><trkpt lat="44.7770649317366" lon="7.309910392477311"><ele>359.0</ele><time>2026-04-05T08:34:01.001Z</time></trkpt><trkpt lat="44.77695800945106" lon="7.3099270626917265"><ele>359.0</ele><time>2026-04-05T08:34:03.001Z</time></trkpt><trkpt lat="44.77685628179802" lon="7.309944568537238"><ele>359.0</ele><time>2026-04-05T08:34:05.001Z</time></trkpt><trkpt lat="44.77675814102424" lon="7.309956316317657"><ele>359.0</ele><time>2026-04-05T08:34:07.001Z</time></trkpt><trkpt lat="44.776659383736764" lon="7.309966001017524"><ele>359.4</ele><time>2026-04-05T08:34:09.001Z</time></trkpt><trkpt lat="44.776555222798265" lon="7.309981570707071"><ele>359.79999999999995</ele><time>2026-04-05T08:34:11.001Z</time></trkpt><trkpt lat="44.77644968841305" lon="7.309997753725566"><ele>360.20000000000005</ele><time>2026-04-05T08:34:12.999Z</time></trkpt><trkpt lat="44.77634593477519" lon="7.310011544707595"><ele>360.6</ele><time>2026-04-05T08:34:14.999Z</time></trkpt><trkpt lat="44.77624086158183" lon="7.3100230444476475"><ele>361.0</ele><time>2026-04-05T08:34:16.999Z</time></trkpt><trkpt lat="44.776137859154375" lon="7.310036211480084"><ele>361.0</ele><time>2026-04-05T08:34:18.999Z</time></trkpt><trkpt lat="44.77603273425511" lon="7.3100557229306435"><ele>361.0</ele><time>2026-04-05T08:34:20.999Z</time></trkpt><trkpt lat="44.77592948851975" lon="7.310072143213472"><ele>361.0</ele><time>2026-04-05T08:34:22.999Z</time></trkpt><trkpt lat="44.77582480601946" lon="7.3100845780692065"><ele>361.0</ele><time>2026-04-05T08:34:24.999Z</time></trkpt><trkpt lat="44.775720795991454" lon="7.310095411833076"><ele>361.0</ele><time>2026-04-05T08:34:26.999Z</time></trkpt><trkpt lat="44.77561664456282" lon="7.310108944052146"><ele>360.8</ele><time>2026-04-05T08:34:29Z</time></trkpt><trkpt lat="44.77551282545686" lon="7.310129915721343"><ele>360.6</ele><time>2026-04-05T08:34:31Z</time></trkpt><trkpt lat="44.77541015943385" lon="7.310140559897787"><ele>360.4</ele><time>2026-04-05T08:34:33Z</time></trkpt><trkpt lat="44.77530999969688" lon="7.3101549094129625"><ele>360.2</ele><time>2026-04-05T08:34:35Z</time></trkpt><trkpt lat="44.775207970752284" lon="7.310172156862606"><ele>360.0</ele><time>2026-04-05T08:34:37Z</time></trkpt><trkpt lat="44.77510507739377" lon="7.310183487785219"><ele>359.8</ele><time>2026-04-05T08:34:39Z</time></trkpt><trkpt lat="44.77500256179465" lon="7.3101989840900705"><ele>359.6</ele><time>2026-04-05T08:34:41Z</time></trkpt><trkpt lat="44.77489955125422" lon="7.310209512736947"><ele>359.4</ele><time>2026-04-05T08:34:43Z</time></trkpt><trkpt lat="44.774795246808864" lon="7.310221588302918"><ele>359.2</ele><time>2026-04-05T08:34:45Z</time></trkpt><trkpt lat="44.774691064774935" lon="7.310236425168616"><ele>359.0</ele><time>2026-04-05T08:34:47Z</time></trkpt><trkpt lat="44.774585584953634" lon="7.310252840840056"><ele>359.0</ele><time>2026-04-05T08:34:49Z</time></trkpt><trkpt lat="44.774480845152944" lon="7.3102674987297425"><ele>359.0</ele><time>2026-04-05T08:34:51Z</time></trkpt><trkpt lat="44.77437659269907" lon="7.310283874809825"><ele>359.0</ele><time>2026-04-05T08:34:53Z</time></trkpt><trkpt lat="44.774273476608194" lon="7.31029946508463"><ele>359.0</ele><time>2026-04-05T08:34:55Z</time></trkpt><trkpt lat="44.77417021442585" lon="7.310312094357676"><ele>359.0</ele><time>2026-04-05T08:34:57Z</time></trkpt><trkpt lat="44.774067081884056" lon="7.3103219659287575"><ele>358.79999999999995</ele><time>2026-04-05T08:34:59Z</time></trkpt><trkpt lat="44.77396547352817" lon="7.31033488408318"><ele>358.59999999999997</ele><time>2026-04-05T08:35:01Z</time></trkpt><trkpt lat="44.77386474752034" lon="7.310348576448966"><ele>358.4</ele><time>2026-04-05T08:35:03Z</time></trkpt><trkpt lat="44.773763330350775" lon="7.310365245550395"><ele>358.2</ele><time>2026-04-05T08:35:05Z</time></trkpt><trkpt lat="44.773658732108906" lon="7.310374493345736"><ele>358.0</ele><time>2026-04-05T08:35:07Z</time></trkpt><trkpt lat="44.773563633577915" lon="7.31038333292346"><ele>358.4</ele><time>2026-04-05T08:35:09Z</time></trkpt><trkpt lat="44.773474997773775" lon="7.3104032593016735"><ele>358.79999999999995</ele><time>2026-04-05T08:35:11Z</time></trkpt><trkpt lat="44.773384910246065" lon="7.310415365430915"><ele>359.2</ele><time>2026-04-05T08:35:13Z</time></trkpt><trkpt lat="44.7732960546692" lon="7.310427601367051"><ele>359.6</ele><time>2026-04-05T08:35:15Z</time></trkpt><trkpt lat="44.77319045191054" lon="7.310439825027551"><ele>360.0</ele><time>2026-04-05T08:35:17Z</time></trkpt><trkpt lat="44.773058805509045" lon="7.3104529037201464"><ele>360.0</ele><time>2026-04-05T08:35:19Z</time></trkpt><trkpt lat="44.772990600087006" lon="7.31046273449167"><ele>360.0</ele><time>2026-04-05T08:35:20Z</time></trkpt><trkpt lat="44.77292400938534" lon="7.31047187016304"><ele>360.0</ele><time>2026-04-05T08:35:21Z</time></trkpt><trkpt lat="44.77279992453699" lon="7.310489751079949"><ele>360.0</ele><time>2026-04-05T08:35:23Z</time></trkpt><trkpt lat="44.77268579965053" lon="7.310505195315035"><ele>360.0</ele><time>2026-04-05T08:35:25Z</time></trkpt><trkpt lat="44.77257928562852" lon="7.310524775781134"><ele>359.8</ele><time>2026-04-05T08:35:27Z</time></trkpt><trkpt lat="44.772477119073514" lon="7.31053278476912"><ele>359.6</ele><time>2026-04-05T08:35:29Z</time></trkpt><trkpt lat="44.77237545033223" lon="7.310544125569503"><ele>359.4</ele><time>2026-04-05T08:35:31Z</time></trkpt><trkpt lat="44.772272894740745" lon="7.31056083029078"><ele>359.2</ele><time>2026-04-05T08:35:33Z</time></trkpt><trkpt lat="44.77217076357275" lon="7.310576719648853"><ele>359.0</ele><time>2026-04-05T08:35:35.001Z</time></trkpt><trkpt lat="44.77207064217887" lon="7.310594717332599"><ele>359.0</ele><time>2026-04-05T08:35:37.001Z</time></trkpt><trkpt lat="44.77196908268233" lon="7.310605895639857"><ele>359.0</ele><time>2026-04-05T08:35:39.001Z</time></trkpt><trkpt lat="44.7718671675592" lon="7.310616124125888"><ele>359.0</ele><time>2026-04-05T08:35:41.001Z</time></trkpt><trkpt lat="44.77176529089301" lon="7.31063002353868"><ele>359.0</ele><time>2026-04-05T08:35:43.001Z</time></trkpt><trkpt lat="44.77166096750055" lon="7.310645115404445"><ele>359.0</ele><time>2026-04-05T08:35:45.001Z</time></trkpt><trkpt lat="44.77155940666884" lon="7.310656624418214"><ele>359.0</ele><time>2026-04-05T08:35:47.001Z</time></trkpt><trkpt lat="44.771457746441456" lon="7.310673741671592"><ele>359.0</ele><time>2026-04-05T08:35:49.001Z</time></trkpt><trkpt lat="44.77135693611193" lon="7.310689804170535"><ele>359.0</ele><time>2026-04-05T08:35:51.001Z</time></trkpt><trkpt lat="44.7712577341147" lon="7.310702170796377"><ele>359.0</ele><time>2026-04-05T08:35:53.001Z</time></trkpt><trkpt lat="44.771159347629435" lon="7.3107188033850585"><ele>359.0</ele><time>2026-04-05T08:35:55.001Z</time></trkpt><trkpt lat="44.77106380129646" lon="7.3107292738752765"><ele>359.6</ele><time>2026-04-05T08:35:57.001Z</time></trkpt><trkpt lat="44.77097193203428" lon="7.310740786791411"><ele>360.2</ele><time>2026-04-05T08:35:59.001Z</time></trkpt><trkpt lat="44.77087922178246" lon="7.310752402985955"><ele>360.8</ele><time>2026-04-05T08:36:01.001Z</time></trkpt><trkpt lat="44.770784376845214" lon="7.310769347000755"><ele>361.40000000000003</ele><time>2026-04-05T08:36:03.001Z</time></trkpt><trkpt lat="44.770689045321184" lon="7.310777127483848"><ele>362.0</ele><time>2026-04-05T08:36:05.001Z</time></trkpt><trkpt lat="44.77059383222662" lon="7.310790910327107"><ele>362.0</ele><time>2026-04-05T08:36:07.001Z</time></trkpt><trkpt lat="44.77049676074929" lon="7.310806506209492"><ele>362.0</ele><time>2026-04-05T08:36:09.001Z</time></trkpt><trkpt lat="44.7704000262504" lon="7.310819923332324"><ele>362.0</ele><time>2026-04-05T08:36:11.001Z</time></trkpt><trkpt lat="44.77030759621899" lon="7.310832005975189"><ele>362.0</ele><time>2026-04-05T08:36:13.001Z</time></trkpt><trkpt lat="44.77023035499476" lon="7.310837800316623"><ele>362.0</ele><time>2026-04-05T08:36:15.001Z</time></trkpt><trkpt lat="44.77013406557091" lon="7.3108500602707585"><ele>362.20000000000005</ele><time>2026-04-05T08:36:18.001Z</time></trkpt><trkpt lat="44.770049057389784" lon="7.310868556364264"><ele>362.4</ele><time>2026-04-05T08:36:19.999Z</time></trkpt><trkpt lat="44.76995084711521" lon="7.310877304373984"><ele>362.6</ele><time>2026-04-05T08:36:21.999Z</time></trkpt><trkpt lat="44.76984791389975" lon="7.310885677999213"><ele>362.79999999999995</ele><time>2026-04-05T08:36:23.999Z</time></trkpt><trkpt lat="44.769746726758946" lon="7.310905900233677"><ele>363.0</ele><time>2026-04-05T08:36:25.999Z</time></trkpt><trkpt lat="44.76964471220689" lon="7.310920653789458"><ele>363.0</ele><time>2026-04-05T08:36:27.999Z</time></trkpt><trkpt lat="44.7695401943154" lon="7.310926746938197"><ele>363.0</ele><time>2026-04-05T08:36:29.999Z</time></trkpt><trkpt lat="44.76943689930264" lon="7.310938085983973"><ele>363.0</ele><time>2026-04-05T08:36:31.999Z</time></trkpt><trkpt lat="44.76933662726707" lon="7.31095898297564"><ele>363.0</ele><time>2026-04-05T08:36:33.999Z</time></trkpt><trkpt lat="44.76923447948996" lon="7.310976132921803"><ele>363.0</ele><time>2026-04-05T08:36:36Z</time></trkpt><trkpt lat="44.76913388281349" lon="7.310988464978347"><ele>362.2</ele><time>2026-04-05T08:36:38Z</time></trkpt><trkpt lat="44.76903504394532" lon="7.310995838719464"><ele>361.4</ele><time>2026-04-05T08:36:40Z</time></trkpt><trkpt lat="44.7689340679174" lon="7.311011552799169"><ele>360.59999999999997</ele><time>2026-04-05T08:36:42Z</time></trkpt><trkpt lat="44.76883510596794" lon="7.311024863596018"><ele>359.79999999999995</ele><time>2026-04-05T08:36:44Z</time></trkpt><trkpt lat="44.76873846965462" lon="7.31103545922647"><ele>359.0</ele><time>2026-04-05T08:36:46Z</time></trkpt><trkpt lat="44.768646665614526" lon="7.311062694044209"><ele>359.0</ele><time>2026-04-05T08:36:48Z</time></trkpt><trkpt lat="44.76854874811169" lon="7.311075178580641"><ele>359.0</ele><time>2026-04-05T08:36:50Z</time></trkpt><trkpt lat="44.768451595718986" lon="7.311077241410689"><ele>359.0</ele><time>2026-04-05T08:36:52Z</time></trkpt><trkpt lat="44.768354551734575" lon="7.31108259353259"><ele>359.0</ele><time>2026-04-05T08:36:54Z</time></trkpt><trkpt lat="44.768255048461235" lon="7.31109601980693"><ele>359.0</ele><time>2026-04-05T08:36:56Z</time></trkpt><trkpt lat="44.768156774993265" lon="7.311112902363486"><ele>359.0</ele><time>2026-04-05T08:36:58Z</time></trkpt><trkpt lat="44.76805839908005" lon="7.311128349622099"><ele>359.0</ele><time>2026-04-05T08:37:00Z</time></trkpt><trkpt lat="44.767960038875835" lon="7.311137958669342"><ele>359.0</ele><time>2026-04-05T08:37:02Z</time></trkpt><trkpt lat="44.767861252467114" lon="7.311146882320062"><ele>359.0</ele><time>2026-04-05T08:37:04Z</time></trkpt><trkpt lat="44.76776183290344" lon="7.311161712911282"><ele>359.0</ele><time>2026-04-05T08:37:06Z</time></trkpt><trkpt lat="44.76766243727943" lon="7.311173281494745"><ele>358.4</ele><time>2026-04-05T08:37:08Z</time></trkpt><trkpt lat="44.767564208949366" lon="7.311196583490836"><ele>357.79999999999995</ele><time>2026-04-05T08:37:10Z</time></trkpt><trkpt lat="44.767462287981466" lon="7.311219807072255"><ele>357.20000000000005</ele><time>2026-04-05T08:37:12Z</time></trkpt><trkpt lat="44.76735952438831" lon="7.311232291336591"><ele>356.6</ele><time>2026-04-05T08:37:14Z</time></trkpt><trkpt lat="44.76725670636808" lon="7.3112390474802975"><ele>356.0</ele><time>2026-04-05T08:37:16Z</time></trkpt><trkpt lat="44.76715267915848" lon="7.311248500593371"><ele>356.0</ele><time>2026-04-05T08:37:18Z</time></trkpt><trkpt lat="44.76704999554284" lon="7.311264824348402"><ele>356.0</ele><time>2026-04-05T08:37:20Z</time></trkpt><trkpt lat="44.76694723730192" lon="7.311288449032622"><ele>356.0</ele><time>2026-04-05T08:37:22Z</time></trkpt><trkpt lat="44.76684546591362" lon="7.311317871292118"><ele>356.0</ele><time>2026-04-05T08:37:24Z</time></trkpt><trkpt lat="44.76674607908602" lon="7.31134885451877"><ele>356.0</ele><time>2026-04-05T08:37:26Z</time></trkpt><trkpt lat="44.766648297189946" lon="7.311384987283663"><ele>356.0</ele><time>2026-04-05T08:37:28Z</time></trkpt><trkpt lat="44.766550107585154" lon="7.311424164598833"><ele>356.0</ele><time>2026-04-05T08:37:30Z</time></trkpt><trkpt lat="44.76645507216006" lon="7.3114631816532025"><ele>356.0</ele><time>2026-04-05T08:37:32Z</time></trkpt><trkpt lat="44.7663591265914" lon="7.311506810667286"><ele>356.0</ele><time>2026-04-05T08:37:34Z</time></trkpt><trkpt lat="44.76626537813136" lon="7.311556203658897"><ele>356.0</ele><time>2026-04-05T08:37:36Z</time></trkpt><trkpt lat="44.76617296521219" lon="7.311609026987001"><ele>356.0</ele><time>2026-04-05T08:37:38Z</time></trkpt><trkpt lat="44.76608098441553" lon="7.311665816034259"><ele>356.0</ele><time>2026-04-05T08:37:40.001Z</time></trkpt><trkpt lat="44.76599154593788" lon="7.311729548445782"><ele>356.0</ele><time>2026-04-05T08:37:42.001Z</time></trkpt><trkpt lat="44.76590043923961" lon="7.3117920435817565"><ele>356.0</ele><time>2026-04-05T08:37:44.001Z</time></trkpt><trkpt lat="44.76581265340973" lon="7.311854629790102"><ele>356.0</ele><time>2026-04-05T08:37:46.001Z</time></trkpt><trkpt lat="44.76572717065925" lon="7.3119236009973285"><ele>355.8</ele><time>2026-04-05T08:37:48.001Z</time></trkpt><trkpt lat="44.76564404896113" lon="7.311998129867077"><ele>355.6</ele><time>2026-04-05T08:37:50.001Z</time></trkpt><trkpt lat="44.765561042237074" lon="7.312077206716506"><ele>355.4</ele><time>2026-04-05T08:37:52.001Z</time></trkpt><trkpt lat="44.7654792747144" lon="7.312155420760187"><ele>355.2</ele><time>2026-04-05T08:37:54.001Z</time></trkpt><trkpt lat="44.76539960273415" lon="7.312238660318434"><ele>355.0</ele><time>2026-04-05T08:37:56.001Z</time></trkpt><trkpt lat="44.76532301428967" lon="7.31231910547881"><ele>355.0</ele><time>2026-04-05T08:37:58.001Z</time></trkpt><trkpt lat="44.7652452680649" lon="7.3124074210833045"><ele>355.0</ele><time>2026-04-05T08:38:00.001Z</time></trkpt><trkpt lat="44.76517454688434" lon="7.312501252096041"><ele>355.0</ele><time>2026-04-05T08:38:02.001Z</time></trkpt><trkpt lat="44.765100487217644" lon="7.312595509934344"><ele>355.0</ele><time>2026-04-05T08:38:04.001Z</time></trkpt><trkpt lat="44.76502529269695" lon="7.31269178284308"><ele>355.0</ele><time>2026-04-05T08:38:06.001Z</time></trkpt><trkpt lat="44.76494834214048" lon="7.312787829770396"><ele>355.2</ele><time>2026-04-05T08:38:08.001Z</time></trkpt><trkpt lat="44.764873148344456" lon="7.312884930928324"><ele>355.4</ele><time>2026-04-05T08:38:10.001Z</time></trkpt><trkpt lat="44.76479519594474" lon="7.312975568325463"><ele>355.6</ele><time>2026-04-05T08:38:12.001Z</time></trkpt><trkpt lat="44.76472092851181" lon="7.313068670824972"><ele>355.8</ele><time>2026-04-05T08:38:14.001Z</time></trkpt><trkpt lat="44.76464143888468" lon="7.313162256387233"><ele>356.0</ele><time>2026-04-05T08:38:16.001Z</time></trkpt><trkpt lat="44.76456132417696" lon="7.3132577791768005"><ele>356.0</ele><time>2026-04-05T08:38:18.001Z</time></trkpt><trkpt lat="44.76448375521465" lon="7.313350666889651"><ele>356.0</ele><time>2026-04-05T08:38:20.001Z</time></trkpt><trkpt lat="44.76440856053611" lon="7.313439987639526"><ele>356.0</ele><time>2026-04-05T08:38:22.001Z</time></trkpt><trkpt lat="44.764335460403366" lon="7.313532293008532"><ele>356.0</ele><time>2026-04-05T08:38:24.001Z</time></trkpt><trkpt lat="44.764260269954924" lon="7.313622070447605"><ele>356.0</ele><time>2026-04-05T08:38:25.999Z</time></trkpt><trkpt lat="44.764185254955315" lon="7.313710269884113"><ele>356.6</ele><time>2026-04-05T08:38:27.999Z</time></trkpt><trkpt lat="44.764110744288026" lon="7.313801201947815"><ele>357.20000000000005</ele><time>2026-04-05T08:38:29.999Z</time></trkpt><trkpt lat="44.76403920038491" lon="7.313892221620498"><ele>357.79999999999995</ele><time>2026-04-05T08:38:31.999Z</time></trkpt><trkpt lat="44.76396620549968" lon="7.313979475093438"><ele>358.4</ele><time>2026-04-05T08:38:33.999Z</time></trkpt><trkpt lat="44.76389355519731" lon="7.314064453899464"><ele>359.0</ele><time>2026-04-05T08:38:36Z</time></trkpt><trkpt lat="44.763821591075825" lon="7.314152872139493"><ele>359.0</ele><time>2026-04-05T08:38:38Z</time></trkpt><trkpt lat="44.763749513042" lon="7.314243429235258"><ele>359.0</ele><time>2026-04-05T08:38:40Z</time></trkpt><trkpt lat="44.763674626940634" lon="7.314339387442221"><ele>359.0</ele><time>2026-04-05T08:38:42Z</time></trkpt><trkpt lat="44.76360201184363" lon="7.314432840217053"><ele>359.0</ele><time>2026-04-05T08:38:44Z</time></trkpt><trkpt lat="44.76352892208719" lon="7.314524256129285"><ele>359.0</ele><time>2026-04-05T08:38:46Z</time></trkpt><trkpt lat="44.76345264408735" lon="7.314609415933834"><ele>359.4</ele><time>2026-04-05T08:38:48Z</time></trkpt><trkpt lat="44.76338137912729" lon="7.314700212317719"><ele>359.79999999999995</ele><time>2026-04-05T08:38:50Z</time></trkpt><trkpt lat="44.7633091286945" lon="7.3147861874784565"><ele>360.20000000000005</ele><time>2026-04-05T08:38:52Z</time></trkpt><trkpt lat="44.76323678437613" lon="7.314872708953648"><ele>360.6</ele><time>2026-04-05T08:38:54Z</time></trkpt><trkpt lat="44.76316526675584" lon="7.314960641811511"><ele>361.0</ele><time>2026-04-05T08:38:56Z</time></trkpt><trkpt lat="44.763096295257924" lon="7.315050515430483"><ele>361.0</ele><time>2026-04-05T08:38:58Z</time></trkpt><trkpt lat="44.763025572277286" lon="7.315140071589264"><ele>361.0</ele><time>2026-04-05T08:39:00Z</time></trkpt><trkpt lat="44.76295216648648" lon="7.315223239108018"><ele>361.0</ele><time>2026-04-05T08:39:02Z</time></trkpt><trkpt lat="44.76287972676635" lon="7.315311973937246"><ele>361.0</ele><time>2026-04-05T08:39:04Z</time></trkpt><trkpt lat="44.76280822666881" lon="7.315399367275476"><ele>361.0</ele><time>2026-04-05T08:39:06Z</time></trkpt><trkpt lat="44.762736615926606" lon="7.315488044188962"><ele>361.16666666666663</ele><time>2026-04-05T08:39:08Z</time></trkpt><trkpt lat="44.76266392704151" lon="7.315573931965884"><ele>361.3333333333333</ele><time>2026-04-05T08:39:10Z</time></trkpt><trkpt lat="44.76259007557362" lon="7.31566218001724"><ele>361.5</ele><time>2026-04-05T08:39:12Z</time></trkpt><trkpt lat="44.76251803179459" lon="7.315748448547747"><ele>361.6666666666667</ele><time>2026-04-05T08:39:14Z</time></trkpt><trkpt lat="44.762456433314824" lon="7.315823142089314"><ele>361.83333333333337</ele><time>2026-04-05T08:39:16Z</time></trkpt><trkpt lat="44.76239599539559" lon="7.315895893433057"><ele>362.0</ele><time>2026-04-05T08:39:19Z</time></trkpt><trkpt lat="44.762343468896916" lon="7.315967214604809"><ele>362.0</ele><time>2026-04-05T08:39:34Z</time></trkpt><trkpt lat="44.762276707933225" lon="7.3160444484054885"><ele>362.0</ele><time>2026-04-05T08:39:36Z</time></trkpt><trkpt lat="44.76219611119597" lon="7.3161406754079765"><ele>362.0</ele><time>2026-04-05T08:39:38Z</time></trkpt><trkpt lat="44.762110508248995" lon="7.316247538528342"><ele>362.0</ele><time>2026-04-05T08:39:40.001Z</time></trkpt><trkpt lat="44.76202362050724" lon="7.316347083946385"><ele>362.0</ele><time>2026-04-05T08:39:42.001Z</time></trkpt><trkpt lat="44.761938746966294" lon="7.316443271727843"><ele>362.20000000000005</ele><time>2026-04-05T08:39:44.001Z</time></trkpt><trkpt lat="44.76185555309738" lon="7.316541391247201"><ele>362.4</ele><time>2026-04-05T08:39:46.001Z</time></trkpt><trkpt lat="44.76177277904154" lon="7.316639388218763"><ele>362.6</ele><time>2026-04-05T08:39:48.001Z</time></trkpt><trkpt lat="44.76169143613557" lon="7.316738727923414"><ele>362.79999999999995</ele><time>2026-04-05T08:39:50.001Z</time></trkpt><trkpt lat="44.76160955989849" lon="7.316836452584694"><ele>363.0</ele><time>2026-04-05T08:39:52.001Z</time></trkpt><trkpt lat="44.761527805152355" lon="7.316936600734497"><ele>363.0</ele><time>2026-04-05T08:39:54.001Z</time></trkpt><trkpt lat="44.761445998407986" lon="7.3170392261902455"><ele>363.0</ele><time>2026-04-05T08:39:56.001Z</time></trkpt><trkpt lat="44.76136482757415" lon="7.317137215925105"><ele>363.0</ele><time>2026-04-05T08:39:58.001Z</time></trkpt><trkpt lat="44.76128497087877" lon="7.3172368933273555"><ele>363.0</ele><time>2026-04-05T08:40:00.001Z</time></trkpt><trkpt lat="44.761203367601496" lon="7.317334634625134"><ele>363.0</ele><time>2026-04-05T08:40:02.001Z</time></trkpt><trkpt lat="44.7611245917649" lon="7.317436137750883"><ele>363.0</ele><time>2026-04-05T08:40:04.001Z</time></trkpt><trkpt lat="44.76104599320401" lon="7.317535823051666"><ele>363.0</ele><time>2026-04-05T08:40:06.001Z</time></trkpt><trkpt lat="44.76096567708578" lon="7.317632374076691"><ele>363.0</ele><time>2026-04-05T08:40:08.001Z</time></trkpt><trkpt lat="44.760889885122864" lon="7.317728992667818"><ele>363.0</ele><time>2026-04-05T08:40:10.001Z</time></trkpt><trkpt lat="44.76081191898871" lon="7.317827961603903"><ele>363.0</ele><time>2026-04-05T08:40:12.001Z</time></trkpt><trkpt lat="44.760733511659254" lon="7.317927602028644"><ele>363.0</ele><time>2026-04-05T08:40:14.001Z</time></trkpt><trkpt lat="44.76065545162324" lon="7.3180298597911175"><ele>363.0</ele><time>2026-04-05T08:40:16.001Z</time></trkpt><trkpt lat="44.760577786728604" lon="7.318129854684474"><ele>363.0</ele><time>2026-04-05T08:40:18.001Z</time></trkpt><trkpt lat="44.7604965632606" lon="7.318225459791759"><ele>363.0</ele><time>2026-04-05T08:40:20.001Z</time></trkpt><trkpt lat="44.76041782680464" lon="7.31832366014885"><ele>363.0</ele><time>2026-04-05T08:40:22.001Z</time></trkpt><trkpt lat="44.76033888801184" lon="7.3184204104801545"><ele>363.0</ele><time>2026-04-05T08:40:24.001Z</time></trkpt><trkpt lat="44.760261240687434" lon="7.318517966757581"><ele>363.0</ele><time>2026-04-05T08:40:26.001Z</time></trkpt><trkpt lat="44.76018430473096" lon="7.31861356939229"><ele>363.0</ele><time>2026-04-05T08:40:28.001Z</time></trkpt><trkpt lat="44.76010798468944" lon="7.318706445443678"><ele>363.0</ele><time>2026-04-05T08:40:30Z</time></trkpt><trkpt lat="44.76003477885141" lon="7.31880277250716"><ele>363.0</ele><time>2026-04-05T08:40:32Z</time></trkpt><trkpt lat="44.75996014100739" lon="7.318892614592688"><ele>362.59999999999997</ele><time>2026-04-05T08:40:34Z</time></trkpt><trkpt lat="44.75988610097263" lon="7.31898452711516"><ele>362.2</ele><time>2026-04-05T08:40:36Z</time></trkpt><trkpt lat="44.7598148722307" lon="7.319075794665633"><ele>361.8</ele><time>2026-04-05T08:40:38Z</time></trkpt><trkpt lat="44.75974002963254" lon="7.319166955054139"><ele>361.4</ele><time>2026-04-05T08:40:40Z</time></trkpt><trkpt lat="44.759665346692884" lon="7.319259041635398"><ele>361.0</ele><time>2026-04-05T08:40:42Z</time></trkpt><trkpt lat="44.75959910956284" lon="7.319362110949799"><ele>361.0</ele><time>2026-04-05T08:40:44Z</time></trkpt><trkpt lat="44.75952763559631" lon="7.319456570219122"><ele>361.0</ele><time>2026-04-05T08:40:46Z</time></trkpt><trkpt lat="44.75945571809332" lon="7.319543011897845"><ele>361.0</ele><time>2026-04-05T08:40:48Z</time></trkpt><trkpt lat="44.75938714322009" lon="7.319627395293213"><ele>361.0</ele><time>2026-04-05T08:40:50Z</time></trkpt><trkpt lat="44.75931487267615" lon="7.319699323390397"><ele>361.0</ele><time>2026-04-05T08:40:52Z</time></trkpt><trkpt lat="44.75922920514474" lon="7.319749287882794"><ele>360.6</ele><time>2026-04-05T08:40:54Z</time></trkpt><trkpt lat="44.75914699921975" lon="7.31983135254934"><ele>360.20000000000005</ele><time>2026-04-05T08:40:56Z</time></trkpt><trkpt lat="44.7590640076412" lon="7.319915635712375"><ele>359.79999999999995</ele><time>2026-04-05T08:40:58Z</time></trkpt><trkpt lat="44.75898451706662" lon="7.319991271507892"><ele>359.4</ele><time>2026-04-05T08:41:00Z</time></trkpt><trkpt lat="44.75892570589797" lon="7.320039066786921"><ele>359.0</ele><time>2026-04-05T08:41:02Z</time></trkpt><trkpt lat="44.758841936176985" lon="7.32009802181987"><ele>359.0</ele><time>2026-04-05T08:41:05Z</time></trkpt><trkpt lat="44.7587811072029" lon="7.320211878147581"><ele>359.0</ele><time>2026-04-05T08:41:07Z</time></trkpt><trkpt lat="44.75867833843236" lon="7.3202875423896865"><ele>359.0</ele><time>2026-04-05T08:41:09Z</time></trkpt><trkpt lat="44.75858040192342" lon="7.320361560117882"><ele>359.0</ele><time>2026-04-05T08:41:11Z</time></trkpt><trkpt lat="44.75847925124421" lon="7.320430852125117"><ele>359.0</ele><time>2026-04-05T08:41:13Z</time></trkpt><trkpt lat="44.75837949355226" lon="7.320497457445383"><ele>359.4</ele><time>2026-04-05T08:41:15Z</time></trkpt><trkpt lat="44.75828101657312" lon="7.320564995756487"><ele>359.79999999999995</ele><time>2026-04-05T08:41:17Z</time></trkpt><trkpt lat="44.758180880746295" lon="7.320634719791782"><ele>360.20000000000005</ele><time>2026-04-05T08:41:19Z</time></trkpt><trkpt lat="44.75807960883532" lon="7.320694583964478"><ele>360.6</ele><time>2026-04-05T08:41:21Z</time></trkpt><trkpt lat="44.757978193050405" lon="7.320752577051483"><ele>361.0</ele><time>2026-04-05T08:41:23Z</time></trkpt><trkpt lat="44.75787656319326" lon="7.320810697487354"><ele>361.0</ele><time>2026-04-05T08:41:25Z</time></trkpt><trkpt lat="44.75777473574637" lon="7.320871246402415"><ele>361.0</ele><time>2026-04-05T08:41:27Z</time></trkpt><trkpt lat="44.757673579729826" lon="7.320930110244102"><ele>361.0</ele><time>2026-04-05T08:41:29Z</time></trkpt><trkpt lat="44.75757514238359" lon="7.320990043531683"><ele>361.0</ele><time>2026-04-05T08:41:31Z</time></trkpt><trkpt lat="44.757473992351954" lon="7.321045817244844"><ele>361.0</ele><time>2026-04-05T08:41:33Z</time></trkpt><trkpt lat="44.75737383357033" lon="7.321100810614129"><ele>360.4</ele><time>2026-04-05T08:41:35Z</time></trkpt><trkpt lat="44.75727899528467" lon="7.321158506155572"><ele>359.8</ele><time>2026-04-05T08:41:37Z</time></trkpt><trkpt lat="44.75718331288543" lon="7.321214457186926"><ele>359.2</ele><time>2026-04-05T08:41:39Z</time></trkpt><trkpt lat="44.75708827737082" lon="7.32126424772576"><ele>358.59999999999997</ele><time>2026-04-05T08:41:41Z</time></trkpt><trkpt lat="44.75699729965529" lon="7.321320094388795"><ele>358.0</ele><time>2026-04-05T08:41:43.001Z</time></trkpt><trkpt lat="44.75690543384103" lon="7.321378613733051"><ele>358.59999999999997</ele><time>2026-04-05T08:41:45.001Z</time></trkpt><trkpt lat="44.756818210304985" lon="7.321440507796181"><ele>359.2</ele><time>2026-04-05T08:41:47.001Z</time></trkpt><trkpt lat="44.756728690696335" lon="7.321508642306606"><ele>359.8</ele><time>2026-04-05T08:41:49.001Z</time></trkpt><trkpt lat="44.75664202026334" lon="7.321576289427531"><ele>360.4</ele><time>2026-04-05T08:41:51.001Z</time></trkpt><trkpt lat="44.756558645355064" lon="7.321646581422592"><ele>361.0</ele><time>2026-04-05T08:41:53.001Z</time></trkpt><trkpt lat="44.75647838148258" lon="7.321722043716117"><ele>361.0</ele><time>2026-04-05T08:41:55.001Z</time></trkpt><trkpt lat="44.75639825186418" lon="7.321802015579717"><ele>361.0</ele><time>2026-04-05T08:41:57.001Z</time></trkpt><trkpt lat="44.75631640345738" lon="7.321884964240908"><ele>361.0</ele><time>2026-04-05T08:41:59.001Z</time></trkpt><trkpt lat="44.75623642634214" lon="7.321972995787435"><ele>361.0</ele><time>2026-04-05T08:42:01.001Z</time></trkpt><trkpt lat="44.756156663129815" lon="7.322059076524606"><ele>361.0</ele><time>2026-04-05T08:42:03.001Z</time></trkpt><trkpt lat="44.7560801657086" lon="7.322143149725612"><ele>361.0</ele><time>2026-04-05T08:42:05.001Z</time></trkpt><trkpt lat="44.756006686892945" lon="7.322231176909763"><ele>361.0</ele><time>2026-04-05T08:42:07.001Z</time></trkpt><trkpt lat="44.755936700929595" lon="7.322320539727011"><ele>361.0</ele><time>2026-04-05T08:42:09.001Z</time></trkpt><trkpt lat="44.75587100698333" lon="7.3224019554457564"><ele>361.0</ele><time>2026-04-05T08:42:11.001Z</time></trkpt><trkpt lat="44.755801620439144" lon="7.322484026919006"><ele>361.0</ele><time>2026-04-05T08:42:13.001Z</time></trkpt><trkpt lat="44.75573410612449" lon="7.322589055162922"><ele>361.0</ele><time>2026-04-05T08:42:15.001Z</time></trkpt><trkpt lat="44.755660940780636" lon="7.3226960719629055"><ele>361.0</ele><time>2026-04-05T08:42:17.001Z</time></trkpt><trkpt lat="44.7555913738983" lon="7.322807577061322"><ele>361.0</ele><time>2026-04-05T08:42:19.001Z</time></trkpt><trkpt lat="44.75551970836767" lon="7.322918875864513"><ele>361.0</ele><time>2026-04-05T08:42:21.001Z</time></trkpt><trkpt lat="44.75545132357705" lon="7.3230332075499724"><ele>361.0</ele><time>2026-04-05T08:42:23.001Z</time></trkpt><trkpt lat="44.7553845402396" lon="7.323147943973686"><ele>361.0</ele><time>2026-04-05T08:42:25.001Z</time></trkpt><trkpt lat="44.75531687097137" lon="7.323264422747549"><ele>361.0</ele><time>2026-04-05T08:42:27.001Z</time></trkpt><trkpt lat="44.7552482051401" lon="7.323379728221085"><ele>361.0</ele><time>2026-04-05T08:42:29.001Z</time></trkpt><trkpt lat="44.7551788633131" lon="7.323494829436277"><ele>361.0</ele><time>2026-04-05T08:42:31.001Z</time></trkpt><trkpt lat="44.75510972832792" lon="7.323608590580484"><ele>361.0</ele><time>2026-04-05T08:42:33.001Z</time></trkpt><trkpt lat="44.75504135053457" lon="7.323722616012513"><ele>361.0</ele><time>2026-04-05T08:42:35.001Z</time></trkpt><trkpt lat="44.75497313184559" lon="7.3238363533449"><ele>361.0</ele><time>2026-04-05T08:42:37Z</time></trkpt><trkpt lat="44.75490446857052" lon="7.323949757956002"><ele>361.0</ele><time>2026-04-05T08:42:39Z</time></trkpt><trkpt lat="44.75483673943798" lon="7.324065249317164"><ele>361.0</ele><time>2026-04-05T08:42:41Z</time></trkpt><trkpt lat="44.75476979616149" lon="7.324177247707943"><ele>361.0</ele><time>2026-04-05T08:42:43Z</time></trkpt><trkpt lat="44.75469393244855" lon="7.324281673620583"><ele>360.6</ele><time>2026-04-05T08:42:45Z</time></trkpt><trkpt lat="44.75461484787618" lon="7.324385235421495"><ele>360.20000000000005</ele><time>2026-04-05T08:42:47Z</time></trkpt><trkpt lat="44.75453453597933" lon="7.324483869492217"><ele>359.79999999999995</ele><time>2026-04-05T08:42:49Z</time></trkpt><trkpt lat="44.754455860760665" lon="7.3245879503871"><ele>359.4</ele><time>2026-04-05T08:42:51Z</time></trkpt><trkpt lat="44.75437261232531" lon="7.3246902267587695"><ele>359.0</ele><time>2026-04-05T08:42:53Z</time></trkpt><trkpt lat="44.75428505437176" lon="7.324788428057402"><ele>359.0</ele><time>2026-04-05T08:42:55Z</time></trkpt><trkpt lat="44.754197106860175" lon="7.324884820812595"><ele>359.0</ele><time>2026-04-05T08:42:57Z</time></trkpt><trkpt lat="44.75410388636253" lon="7.324973686234589"><ele>359.0</ele><time>2026-04-05T08:42:59Z</time></trkpt><trkpt lat="44.75401226748747" lon="7.325062341707573"><ele>359.0</ele><time>2026-04-05T08:43:01Z</time></trkpt><trkpt lat="44.75391845210222" lon="7.325151666148747"><ele>359.0</ele><time>2026-04-05T08:43:03Z</time></trkpt><trkpt lat="44.75382336127133" lon="7.32523534883"><ele>359.0</ele><time>2026-04-05T08:43:05Z</time></trkpt><trkpt lat="44.753726806039325" lon="7.325314395609507"><ele>359.0</ele><time>2026-04-05T08:43:07Z</time></trkpt><trkpt lat="44.75362976061673" lon="7.3253913553568175"><ele>359.0</ele><time>2026-04-05T08:43:09Z</time></trkpt><trkpt lat="44.75353372910654" lon="7.325461361407608"><ele>359.0</ele><time>2026-04-05T08:43:11Z</time></trkpt><trkpt lat="44.753434580239784" lon="7.32552384295421"><ele>359.0</ele><time>2026-04-05T08:43:13Z</time></trkpt><trkpt lat="44.75333745261584" lon="7.325585775320534"><ele>359.0</ele><time>2026-04-05T08:43:15Z</time></trkpt><trkpt lat="44.75324344626976" lon="7.325642581119858"><ele>359.0</ele><time>2026-04-05T08:43:17Z</time></trkpt><trkpt lat="44.7531526270817" lon="7.325684718679338"><ele>359.0</ele><time>2026-04-05T08:43:19Z</time></trkpt><trkpt lat="44.753059323298146" lon="7.325746335194366"><ele>359.0</ele><time>2026-04-05T08:43:21Z</time></trkpt><trkpt lat="44.75295436165684" lon="7.325794259357495"><ele>359.0</ele><time>2026-04-05T08:43:23Z</time></trkpt><trkpt lat="44.75285304143171" lon="7.325844545531804"><ele>359.0</ele><time>2026-04-05T08:43:25Z</time></trkpt><trkpt lat="44.7527527572479" lon="7.32589876636668"><ele>359.0</ele><time>2026-04-05T08:43:27Z</time></trkpt><trkpt lat="44.75265222240618" lon="7.325943196847946"><ele>359.0</ele><time>2026-04-05T08:43:29Z</time></trkpt><trkpt lat="44.75255476257159" lon="7.325995753126605"><ele>359.0</ele><time>2026-04-05T08:43:31Z</time></trkpt><trkpt lat="44.75245609652895" lon="7.326046013186927"><ele>359.0</ele><time>2026-04-05T08:43:33Z</time></trkpt><trkpt lat="44.752358746249065" lon="7.326098227088243"><ele>359.4</ele><time>2026-04-05T08:43:35Z</time></trkpt><trkpt lat="44.75225995769225" lon="7.32614909694809"><ele>359.79999999999995</ele><time>2026-04-05T08:43:37Z</time></trkpt><trkpt lat="44.75216143292844" lon="7.3262023608485976"><ele>360.20000000000005</ele><time>2026-04-05T08:43:39Z</time></trkpt><trkpt lat="44.75206449876293" lon="7.326254682796185"><ele>360.6</ele><time>2026-04-05T08:43:41Z</time></trkpt><trkpt lat="44.75197077010616" lon="7.326307423588874"><ele>361.0</ele><time>2026-04-05T08:43:43Z</time></trkpt><trkpt lat="44.75187879435616" lon="7.326363604037445"><ele>360.4</ele><time>2026-04-05T08:43:45Z</time></trkpt><trkpt lat="44.75178690187294" lon="7.326422547429708"><ele>359.8</ele><time>2026-04-05T08:43:47.001Z</time></trkpt><trkpt lat="44.75169611188067" lon="7.326488983618524"><ele>359.2</ele><time>2026-04-05T08:43:49.001Z</time></trkpt><trkpt lat="44.75160297643782" lon="7.326552575486855"><ele>358.59999999999997</ele><time>2026-04-05T08:43:51.001Z</time></trkpt><trkpt lat="44.751515751477605" lon="7.326625823621008"><ele>358.0</ele><time>2026-04-05T08:43:53.001Z</time></trkpt><trkpt lat="44.75142831084152" lon="7.326701831398571"><ele>358.0</ele><time>2026-04-05T08:43:55.001Z</time></trkpt><trkpt lat="44.75134060959993" lon="7.326783762404438"><ele>358.0</ele><time>2026-04-05T08:43:57.001Z</time></trkpt><trkpt lat="44.75125599242359" lon="7.326872519555022"><ele>358.0</ele><time>2026-04-05T08:43:59.001Z</time></trkpt><trkpt lat="44.75117101753691" lon="7.3269606933115785"><ele>358.0</ele><time>2026-04-05T08:44:01.001Z</time></trkpt><trkpt lat="44.751087488979934" lon="7.327048758007734"><ele>358.0</ele><time>2026-04-05T08:44:03.001Z</time></trkpt><trkpt lat="44.75100918841459" lon="7.327146639417804"><ele>358.0</ele><time>2026-04-05T08:44:05.001Z</time></trkpt><trkpt lat="44.750930468413046" lon="7.327248875669764"><ele>358.0</ele><time>2026-04-05T08:44:07.001Z</time></trkpt><trkpt lat="44.75085747091302" lon="7.327353825186533"><ele>358.0</ele><time>2026-04-05T08:44:09.001Z</time></trkpt><trkpt lat="44.750785706453385" lon="7.32746191323142"><ele>358.0</ele><time>2026-04-05T08:44:11.001Z</time></trkpt><trkpt lat="44.75071367685956" lon="7.3275696748587436"><ele>358.0</ele><time>2026-04-05T08:44:13.001Z</time></trkpt><trkpt lat="44.75064220883117" lon="7.327682935959249"><ele>358.0</ele><time>2026-04-05T08:44:15.001Z</time></trkpt><trkpt lat="44.75056964240293" lon="7.3277950866053985"><ele>358.0</ele><time>2026-04-05T08:44:17.001Z</time></trkpt><trkpt lat="44.75049691584834" lon="7.32790619736475"><ele>358.0</ele><time>2026-04-05T08:44:19.001Z</time></trkpt><trkpt lat="44.75042729429213" lon="7.328018925648737"><ele>358.0</ele><time>2026-04-05T08:44:21.001Z</time></trkpt><trkpt lat="44.750355783876735" lon="7.3281303340052215"><ele>358.0</ele><time>2026-04-05T08:44:23.001Z</time></trkpt><trkpt lat="44.75028031889882" lon="7.3282426718941105"><ele>358.0</ele><time>2026-04-05T08:44:25.001Z</time></trkpt><trkpt lat="44.7502071169868" lon="7.328358424226707"><ele>358.0</ele><time>2026-04-05T08:44:27.001Z</time></trkpt><trkpt lat="44.75013392632072" lon="7.328473789529715"><ele>358.0</ele><time>2026-04-05T08:44:29.001Z</time></trkpt><trkpt lat="44.75006117566156" lon="7.32858261378006"><ele>358.0</ele><time>2026-04-05T08:44:31.001Z</time></trkpt><trkpt lat="44.7499866741292" lon="7.328688778807895"><ele>358.0</ele><time>2026-04-05T08:44:33.001Z</time></trkpt><trkpt lat="44.7499185935133" lon="7.328799521931886"><ele>357.4</ele><time>2026-04-05T08:44:35.001Z</time></trkpt><trkpt lat="44.749849880447506" lon="7.328900369717269"><ele>356.79999999999995</ele><time>2026-04-05T08:44:37.001Z</time></trkpt><trkpt lat="44.749781182297205" lon="7.328995366258383"><ele>356.2</ele><time>2026-04-05T08:44:39.001Z</time></trkpt><trkpt lat="44.749709484416556" lon="7.329093577898167"><ele>355.6</ele><time>2026-04-05T08:44:41.001Z</time></trkpt><trkpt lat="44.74963663558335" lon="7.3292025280623845"><ele>355.0</ele><time>2026-04-05T08:44:43Z</time></trkpt><trkpt lat="44.749560886918594" lon="7.329305515785657"><ele>355.0</ele><time>2026-04-05T08:44:45Z</time></trkpt><trkpt lat="44.74948496872096" lon="7.329408918835515"><ele>355.0</ele><time>2026-04-05T08:44:47Z</time></trkpt><trkpt lat="44.74940699979655" lon="7.329508467528233"><ele>355.0</ele><time>2026-04-05T08:44:49Z</time></trkpt><trkpt lat="44.749329447581076" lon="7.329607795603526"><ele>355.0</ele><time>2026-04-05T08:44:51Z</time></trkpt><trkpt lat="44.749253767494395" lon="7.3297093592937825"><ele>355.0</ele><time>2026-04-05T08:44:53Z</time></trkpt><trkpt lat="44.74917650507391" lon="7.329805876772056"><ele>355.2</ele><time>2026-04-05T08:44:55Z</time></trkpt><trkpt lat="44.749096080885714" lon="7.329896193582996"><ele>355.4</ele><time>2026-04-05T08:44:57Z</time></trkpt><trkpt lat="44.74901796042999" lon="7.329990804070468"><ele>355.6</ele><time>2026-04-05T08:44:59Z</time></trkpt><trkpt lat="44.74894263878327" lon="7.330087867159573"><ele>355.8</ele><time>2026-04-05T08:45:01Z</time></trkpt><trkpt lat="44.74886115554628" lon="7.330175119641525"><ele>356.0</ele><time>2026-04-05T08:45:03Z</time></trkpt><trkpt lat="44.748779824308905" lon="7.330257160406969"><ele>356.0</ele><time>2026-04-05T08:45:05Z</time></trkpt><trkpt lat="44.74869686717382" lon="7.330342139200203"><ele>356.0</ele><time>2026-04-05T08:45:07Z</time></trkpt><trkpt lat="44.74861630938468" lon="7.330428341479117"><ele>356.0</ele><time>2026-04-05T08:45:09Z</time></trkpt><trkpt lat="44.74853590927588" lon="7.330513387059241"><ele>356.0</ele><time>2026-04-05T08:45:11Z</time></trkpt><trkpt lat="44.74845624951698" lon="7.330592745605747"><ele>356.0</ele><time>2026-04-05T08:45:13Z</time></trkpt><trkpt lat="44.74837266474438" lon="7.3306681730601655"><ele>355.6</ele><time>2026-04-05T08:45:15Z</time></trkpt><trkpt lat="44.74829155172287" lon="7.330744725801747"><ele>355.20000000000005</ele><time>2026-04-05T08:45:17Z</time></trkpt><trkpt lat="44.74820703251112" lon="7.330818737887374"><ele>354.79999999999995</ele><time>2026-04-05T08:45:19Z</time></trkpt><trkpt lat="44.748125651734505" lon="7.3308968723157175"><ele>354.4</ele><time>2026-04-05T08:45:21Z</time></trkpt><trkpt lat="44.74803917800915" lon="7.330976257375418"><ele>354.0</ele><time>2026-04-05T08:45:23Z</time></trkpt><trkpt lat="44.74794814794842" lon="7.331050197360221"><ele>354.0</ele><time>2026-04-05T08:45:25Z</time></trkpt><trkpt lat="44.74785784296227" lon="7.331126116018775"><ele>354.0</ele><time>2026-04-05T08:45:27Z</time></trkpt><trkpt lat="44.7477701067173" lon="7.331201499734491"><ele>354.0</ele><time>2026-04-05T08:45:29Z</time></trkpt><trkpt lat="44.747679823812746" lon="7.331273854303335"><ele>354.0</ele><time>2026-04-05T08:45:31Z</time></trkpt><trkpt lat="44.74758807391835" lon="7.331340043699584"><ele>354.0</ele><time>2026-04-05T08:45:33Z</time></trkpt><trkpt lat="44.74749767006914" lon="7.331409245098507"><ele>354.6</ele><time>2026-04-05T08:45:35Z</time></trkpt><trkpt lat="44.747407662099754" lon="7.331474923518753"><ele>355.2</ele><time>2026-04-05T08:45:37Z</time></trkpt><trkpt lat="44.74731688375175" lon="7.331539043827982"><ele>355.8</ele><time>2026-04-05T08:45:39Z</time></trkpt><trkpt lat="44.74722534231417" lon="7.331604032547073"><ele>356.40000000000003</ele><time>2026-04-05T08:45:41Z</time></trkpt><trkpt lat="44.747138029428136" lon="7.331665077399272"><ele>357.0</ele><time>2026-04-05T08:45:43Z</time></trkpt><trkpt lat="44.747052331986275" lon="7.331722398684215"><ele>357.0</ele><time>2026-04-05T08:45:45Z</time></trkpt><trkpt lat="44.746966144623215" lon="7.331777474118882"><ele>357.0</ele><time>2026-04-05T08:45:47Z</time></trkpt><trkpt lat="44.746875803917895" lon="7.331830944390469"><ele>357.0</ele><time>2026-04-05T08:45:49Z</time></trkpt><trkpt lat="44.746790579218214" lon="7.331897059290057"><ele>357.0</ele><time>2026-04-05T08:45:51.001Z</time></trkpt><trkpt lat="44.74669853593013" lon="7.331958695661722"><ele>357.0</ele><time>2026-04-05T08:45:53.001Z</time></trkpt><trkpt lat="44.7466005913973" lon="7.3320034298267265"><ele>357.0</ele><time>2026-04-05T08:45:55.001Z</time></trkpt><trkpt lat="44.746503772080736" lon="7.332039083568883"><ele>357.0</ele><time>2026-04-05T08:45:57.001Z</time></trkpt><trkpt lat="44.74641354685815" lon="7.33209004891667"><ele>357.0</ele><time>2026-04-05T08:45:59.001Z</time></trkpt><trkpt lat="44.746329205376874" lon="7.332135347522006"><ele>357.0</ele><time>2026-04-05T08:46:01.001Z</time></trkpt><trkpt lat="44.74625337262783" lon="7.332173502414893"><ele>357.0</ele><time>2026-04-05T08:46:03.001Z</time></trkpt><trkpt lat="44.74618568978929" lon="7.33220560081626"><ele>357.0</ele><time>2026-04-05T08:46:05.001Z</time></trkpt><trkpt lat="44.74611035732732" lon="7.332264204784234"><ele>356.8</ele><time>2026-04-05T08:46:07.001Z</time></trkpt><trkpt lat="44.746011785171724" lon="7.332288696555739"><ele>356.6</ele><time>2026-04-05T08:46:09.001Z</time></trkpt><trkpt lat="44.745910870718006" lon="7.332334027456775"><ele>356.40000000000003</ele><time>2026-04-05T08:46:11.001Z</time></trkpt><trkpt lat="44.74580759641403" lon="7.332377018535812"><ele>356.20000000000005</ele><time>2026-04-05T08:46:13.001Z</time></trkpt><trkpt lat="44.745699942511926" lon="7.332415190091819"><ele>356.0</ele><time>2026-04-05T08:46:15.001Z</time></trkpt><trkpt lat="44.74559386100533" lon="7.332452296689418"><ele>356.0</ele><time>2026-04-05T08:46:17.001Z</time></trkpt><trkpt lat="44.745493011389385" lon="7.332492416409658"><ele>356.0</ele><time>2026-04-05T08:46:19.001Z</time></trkpt><trkpt lat="44.745392312869036" lon="7.332529989928331"><ele>356.0</ele><time>2026-04-05T08:46:21.001Z</time></trkpt><trkpt lat="44.7452936504068" lon="7.332564000616981"><ele>356.0</ele><time>2026-04-05T08:46:23.001Z</time></trkpt><trkpt lat="44.74519320811816" lon="7.332592291582678"><ele>356.0</ele><time>2026-04-05T08:46:25.001Z</time></trkpt><trkpt lat="44.74509225653122" lon="7.332623980474939"><ele>356.6</ele><time>2026-04-05T08:46:27.001Z</time></trkpt><trkpt lat="44.74499072533764" lon="7.332651921505052"><ele>357.20000000000005</ele><time>2026-04-05T08:46:29.001Z</time></trkpt><trkpt lat="44.74489043780047" lon="7.3326919882867845"><ele>357.79999999999995</ele><time>2026-04-05T08:46:31.001Z</time></trkpt><trkpt lat="44.744788122755786" lon="7.332719809154608"><ele>358.4</ele><time>2026-04-05T08:46:33.001Z</time></trkpt><trkpt lat="44.74468435828379" lon="7.332741280917755"><ele>359.0</ele><time>2026-04-05T08:46:35.001Z</time></trkpt><trkpt lat="44.7445808407796" lon="7.332757646508656"><ele>359.0</ele><time>2026-04-05T08:46:37.001Z</time></trkpt><trkpt lat="44.74447269377457" lon="7.332768913226161"><ele>359.0</ele><time>2026-04-05T08:46:39.001Z</time></trkpt><trkpt lat="44.74436505055119" lon="7.332784677986937"><ele>359.0</ele><time>2026-04-05T08:46:41.001Z</time></trkpt><trkpt lat="44.74425790101863" lon="7.332801483371959"><ele>359.0</ele><time>2026-04-05T08:46:43.001Z</time></trkpt><trkpt lat="44.74414959164429" lon="7.332813546572089"><ele>359.0</ele><time>2026-04-05T08:46:45.001Z</time></trkpt><trkpt lat="44.74404242767259" lon="7.332826718197369"><ele>359.0</ele><time>2026-04-05T08:46:47.001Z</time></trkpt><trkpt lat="44.743935556722455" lon="7.332838682082912"><ele>359.0</ele><time>2026-04-05T08:46:49Z</time></trkpt><trkpt lat="44.743826960556696" lon="7.332847357464401"><ele>359.0</ele><time>2026-04-05T08:46:51Z</time></trkpt><trkpt lat="44.74371698042743" lon="7.332858122307175"><ele>359.0</ele><time>2026-04-05T08:46:53Z</time></trkpt><trkpt lat="44.74360871481948" lon="7.332865777926906"><ele>359.0</ele><time>2026-04-05T08:46:55Z</time></trkpt><trkpt lat="44.74350021160506" lon="7.3328748133241595"><ele>359.0</ele><time>2026-04-05T08:46:57Z</time></trkpt><trkpt lat="44.743391333734195" lon="7.3328843575040965"><ele>359.0</ele><time>2026-04-05T08:46:59Z</time></trkpt><trkpt lat="44.743281438676576" lon="7.3328917228593795"><ele>359.0</ele><time>2026-04-05T08:47:01Z</time></trkpt><trkpt lat="44.74317249843836" lon="7.332904558073881"><ele>359.0</ele><time>2026-04-05T08:47:03Z</time></trkpt><trkpt lat="44.743063931580274" lon="7.332914176025629"><ele>359.0</ele><time>2026-04-05T08:47:05Z</time></trkpt><trkpt lat="44.74295625599039" lon="7.332921878942377"><ele>359.0</ele><time>2026-04-05T08:47:07Z</time></trkpt><trkpt lat="44.74284879997405" lon="7.332929380461995"><ele>359.0</ele><time>2026-04-05T08:47:09Z</time></trkpt><trkpt lat="44.74273869901013" lon="7.332937846619774"><ele>359.0</ele><time>2026-04-05T08:47:11Z</time></trkpt><trkpt lat="44.74262874457285" lon="7.332943457260083"><ele>359.0</ele><time>2026-04-05T08:47:13Z</time></trkpt><trkpt lat="44.74252144399615" lon="7.332951489097103"><ele>359.0</ele><time>2026-04-05T08:47:15Z</time></trkpt><trkpt lat="44.74241361916338" lon="7.332962588256371"><ele>359.0</ele><time>2026-04-05T08:47:17Z</time></trkpt><trkpt lat="44.742307022537574" lon="7.33297342353384"><ele>359.0</ele><time>2026-04-05T08:47:19Z</time></trkpt><trkpt lat="44.74220513099891" lon="7.332982908012436"><ele>359.0</ele><time>2026-04-05T08:47:21Z</time></trkpt><trkpt lat="44.74210369754202" lon="7.332995404471781"><ele>359.0</ele><time>2026-04-05T08:47:23Z</time></trkpt><trkpt lat="44.742003211574044" lon="7.332999869378171"><ele>359.0</ele><time>2026-04-05T08:47:25Z</time></trkpt><trkpt lat="44.741906100625386" lon="7.333007148911844"><ele>359.6</ele><time>2026-04-05T08:47:27Z</time></trkpt><trkpt lat="44.7418087725975" lon="7.333013858618864"><ele>360.2</ele><time>2026-04-05T08:47:29Z</time></trkpt><trkpt lat="44.741707828599054" lon="7.333019635956928"><ele>360.8</ele><time>2026-04-05T08:47:31Z</time></trkpt><trkpt lat="44.741605743055565" lon="7.333028934756621"><ele>361.40000000000003</ele><time>2026-04-05T08:47:33Z</time></trkpt><trkpt lat="44.74150109131007" lon="7.333036671856981"><ele>362.0</ele><time>2026-04-05T08:47:35Z</time></trkpt><trkpt lat="44.7413970909475" lon="7.333045520421283"><ele>361.8</ele><time>2026-04-05T08:47:37Z</time></trkpt><trkpt lat="44.741293658590266" lon="7.333059842311867"><ele>361.6</ele><time>2026-04-05T08:47:39Z</time></trkpt><trkpt lat="44.741191167976226" lon="7.333070993106765"><ele>361.40000000000003</ele><time>2026-04-05T08:47:41Z</time></trkpt><trkpt lat="44.741089301503564" lon="7.333074241405386"><ele>361.20000000000005</ele><time>2026-04-05T08:47:43Z</time></trkpt><trkpt lat="44.74098736650161" lon="7.333076686980829"><ele>361.0</ele><time>2026-04-05T08:47:45Z</time></trkpt><trkpt lat="44.7408858865784" lon="7.3330878524483945"><ele>360.4</ele><time>2026-04-05T08:47:47Z</time></trkpt><trkpt lat="44.74078665894093" lon="7.333097470272055"><ele>359.8</ele><time>2026-04-05T08:47:49Z</time></trkpt><trkpt lat="44.74068771992183" lon="7.333103629195988"><ele>359.2</ele><time>2026-04-05T08:47:51Z</time></trkpt><trkpt lat="44.74058922711003" lon="7.333114058558089"><ele>358.59999999999997</ele><time>2026-04-05T08:47:53Z</time></trkpt><trkpt lat="44.74048952189418" lon="7.333119348450409"><ele>358.0</ele><time>2026-04-05T08:47:55Z</time></trkpt><trkpt lat="44.74038995170603" lon="7.333126890493045"><ele>358.0</ele><time>2026-04-05T08:47:57Z</time></trkpt><trkpt lat="44.74029156801812" lon="7.333134769351101"><ele>358.0</ele><time>2026-04-05T08:47:59.001Z</time></trkpt><trkpt lat="44.74019368189858" lon="7.333143360930089"><ele>358.0</ele><time>2026-04-05T08:48:01.001Z</time></trkpt><trkpt lat="44.74009375821935" lon="7.333149282923656"><ele>358.0</ele><time>2026-04-05T08:48:03.001Z</time></trkpt><trkpt lat="44.739994731470595" lon="7.333156529704014"><ele>358.0</ele><time>2026-04-05T08:48:05.001Z</time></trkpt><trkpt lat="44.739895691882246" lon="7.333161950380995"><ele>357.79999999999995</ele><time>2026-04-05T08:48:07.001Z</time></trkpt><trkpt lat="44.73979538586244" lon="7.333170777134055"><ele>357.6</ele><time>2026-04-05T08:48:09.001Z</time></trkpt><trkpt lat="44.73969486611426" lon="7.333178746519436"><ele>357.4</ele><time>2026-04-05T08:48:11.001Z</time></trkpt><trkpt lat="44.739649116295226" lon="7.333247566660243"><ele>357.20000000000005</ele><time>2026-04-05T08:48:12.001Z</time></trkpt><trkpt lat="44.73954804652025" lon="7.3332609154992685"><ele>357.0</ele><time>2026-04-05T08:48:14.001Z</time></trkpt><trkpt lat="44.73944882249577" lon="7.333275052693671"><ele>356.8</ele><time>2026-04-05T08:48:16.001Z</time></trkpt><trkpt lat="44.73935190597412" lon="7.33329165027372"><ele>356.6</ele><time>2026-04-05T08:48:18.001Z</time></trkpt><trkpt lat="44.73925425962977" lon="7.333314011252534"><ele>356.40000000000003</ele><time>2026-04-05T08:48:20.001Z</time></trkpt><trkpt lat="44.73914735440699" lon="7.333328923519294"><ele>356.20000000000005</ele><time>2026-04-05T08:48:22.001Z</time></trkpt><trkpt lat="44.73904822463788" lon="7.333233384793939"><ele>356.0</ele><time>2026-04-05T08:48:24.001Z</time></trkpt><trkpt lat="44.73895027676702" lon="7.33324216099437"><ele>356.0</ele><time>2026-04-05T08:48:26.001Z</time></trkpt><trkpt lat="44.73883767939437" lon="7.333053647634149"><ele>356.0</ele><time>2026-04-05T08:48:28.001Z</time></trkpt><trkpt lat="44.73874003172139" lon="7.333070289749523"><ele>356.0</ele><time>2026-04-05T08:48:30.001Z</time></trkpt><trkpt lat="44.73864879662807" lon="7.333087481156991"><ele>356.0</ele><time>2026-04-05T08:48:32.001Z</time></trkpt><trkpt lat="44.73855599244901" lon="7.333104968225839"><ele>356.4</ele><time>2026-04-05T08:48:34.001Z</time></trkpt><trkpt lat="44.738463341429096" lon="7.333122426433776"><ele>356.8</ele><time>2026-04-05T08:48:36.001Z</time></trkpt><trkpt lat="44.73837178683451" lon="7.3331390045484"><ele>357.2</ele><time>2026-04-05T08:48:38.001Z</time></trkpt><trkpt lat="44.738281694458635" lon="7.333151793484684"><ele>357.59999999999997</ele><time>2026-04-05T08:48:40.001Z</time></trkpt><trkpt lat="44.73818921151028" lon="7.333161540927755"><ele>358.0</ele><time>2026-04-05T08:48:42.001Z</time></trkpt><trkpt lat="44.738094793025354" lon="7.333170514031643"><ele>358.0</ele><time>2026-04-05T08:48:44.001Z</time></trkpt><trkpt lat="44.73800133725863" lon="7.333179243187619"><ele>358.0</ele><time>2026-04-05T08:48:46.001Z</time></trkpt><trkpt lat="44.737908597688495" lon="7.333187497297515"><ele>358.0</ele><time>2026-04-05T08:48:48.001Z</time></trkpt><trkpt lat="44.73781470812247" lon="7.333195853762558"><ele>358.0</ele><time>2026-04-05T08:48:50.001Z</time></trkpt><trkpt lat="44.737721132813626" lon="7.333204182255345"><ele>358.0</ele><time>2026-04-05T08:48:52.001Z</time></trkpt><trkpt lat="44.7376269598115" lon="7.33321256394619"><ele>358.4</ele><time>2026-04-05T08:48:53.999Z</time></trkpt><trkpt lat="44.737532153799926" lon="7.33322100197683"><ele>358.79999999999995</ele><time>2026-04-05T08:48:55.999Z</time></trkpt><trkpt lat="44.737440100673226" lon="7.333229194991543"><ele>359.2</ele><time>2026-04-05T08:48:57.999Z</time></trkpt><trkpt lat="44.73734872826764" lon="7.33323732741926"><ele>359.6</ele><time>2026-04-05T08:48:59.999Z</time></trkpt><trkpt lat="44.737257066704395" lon="7.333244637026077"><ele>360.0</ele><time>2026-04-05T08:49:01.999Z</time></trkpt><trkpt lat="44.73717010336338" lon="7.3332480437697205"><ele>360.0</ele><time>2026-04-05T08:49:03.999Z</time></trkpt><trkpt lat="44.737082120850545" lon="7.333246243773041"><ele>360.0</ele><time>2026-04-05T08:49:05.999Z</time></trkpt><trkpt lat="44.73699488470669" lon="7.333237550078378"><ele>360.0</ele><time>2026-04-05T08:49:07.999Z</time></trkpt><trkpt lat="44.73691471270158" lon="7.333220535658131"><ele>360.0</ele><time>2026-04-05T08:49:10Z</time></trkpt><trkpt lat="44.73683123870065" lon="7.333193863335247"><ele>360.0</ele><time>2026-04-05T08:49:12Z</time></trkpt><trkpt lat="44.73674531990793" lon="7.333163023067615"><ele>360.0</ele><time>2026-04-05T08:49:14Z</time></trkpt><trkpt lat="44.7366656872279" lon="7.333132495520598"><ele>360.0</ele><time>2026-04-05T08:49:16Z</time></trkpt><trkpt lat="44.736580016860145" lon="7.333097063952666"><ele>360.0</ele><time>2026-04-05T08:49:18Z</time></trkpt><trkpt lat="44.7365031128781" lon="7.333063204009486"><ele>360.0</ele><time>2026-04-05T08:49:20Z</time></trkpt><trkpt lat="44.73643289132622" lon="7.333031212932312"><ele>360.0</ele><time>2026-04-05T08:49:22Z</time></trkpt><trkpt lat="44.73636645682576" lon="7.3329973041886936"><ele>360.0</ele><time>2026-04-05T08:49:24Z</time></trkpt><trkpt lat="44.73630894835757" lon="7.332960542137728"><ele>360.0</ele><time>2026-04-05T08:49:26Z</time></trkpt><trkpt lat="44.73623058594242" lon="7.33291332861763"><ele>360.5</ele><time>2026-04-05T08:49:28Z</time></trkpt><trkpt lat="44.73617739412059" lon="7.332853056759718"><ele>361.0</ele><time>2026-04-05T08:49:31Z</time></trkpt><trkpt lat="44.736099138477286" lon="7.332824089983297"><ele>361.5</ele><time>2026-04-05T08:49:34Z</time></trkpt><trkpt lat="44.736007631126924" lon="7.332789563677128"><ele>362.0</ele><time>2026-04-05T08:49:36Z</time></trkpt><trkpt lat="44.73563206917252" lon="7.332589590081969"><ele>362.0</ele><time>2026-04-05T08:49:38Z</time></trkpt><trkpt lat="44.73554706241737" lon="7.332534936968687"><ele>362.0</ele><time>2026-04-05T08:49:40Z</time></trkpt><trkpt lat="44.735440533244166" lon="7.332481899147724"><ele>362.0</ele><time>2026-04-05T08:49:42Z</time></trkpt><trkpt lat="44.73525304356588" lon="7.33331949496572"><ele>361.6</ele><time>2026-04-05T08:49:46Z</time></trkpt><trkpt lat="44.73515181801217" lon="7.333286899380685"><ele>361.20000000000005</ele><time>2026-04-05T08:49:48Z</time></trkpt><trkpt lat="44.735060907220564" lon="7.333244437511729"><ele>360.8</ele><time>2026-04-05T08:49:50Z</time></trkpt><trkpt lat="44.734968264539674" lon="7.333203806525134"><ele>360.4</ele><time>2026-04-05T08:49:52Z</time></trkpt><trkpt lat="44.73488393045376" lon="7.333163244813807"><ele>360.0</ele><time>2026-04-05T08:49:54Z</time></trkpt><trkpt lat="44.734797027617226" lon="7.333119331347813"><ele>360.0</ele><time>2026-04-05T08:49:56Z</time></trkpt><trkpt lat="44.73471138336347" lon="7.333074830134034"><ele>360.0</ele><time>2026-04-05T08:49:58Z</time></trkpt><trkpt lat="44.734625508016684" lon="7.33302528719501"><ele>360.0</ele><time>2026-04-05T08:50:00Z</time></trkpt><trkpt lat="44.73454221303874" lon="7.332969902913692"><ele>360.0</ele><time>2026-04-05T08:50:02Z</time></trkpt><trkpt lat="44.7344595489461" lon="7.332912999803861"><ele>360.0</ele><time>2026-04-05T08:50:04.001Z</time></trkpt><trkpt lat="44.73437778062792" lon="7.3328548441830135"><ele>360.6</ele><time>2026-04-05T08:50:06.001Z</time></trkpt><trkpt lat="44.73429839666633" lon="7.332790224555931"><ele>361.2</ele><time>2026-04-05T08:50:08.001Z</time></trkpt><trkpt lat="44.73421988836865" lon="7.332722894025614"><ele>361.79999999999995</ele><time>2026-04-05T08:50:10.001Z</time></trkpt><trkpt lat="44.73414020558053" lon="7.332656709854548"><ele>362.4</ele><time>2026-04-05T08:50:12.001Z</time></trkpt><trkpt lat="44.734059125375566" lon="7.3325910953443945"><ele>363.0</ele><time>2026-04-05T08:50:14.001Z</time></trkpt><trkpt lat="44.73397692572036" lon="7.332527107881009"><ele>363.0</ele><time>2026-04-05T08:50:16.001Z</time></trkpt><trkpt lat="44.7338962938242" lon="7.332463760637536"><ele>363.0</ele><time>2026-04-05T08:50:18.001Z</time></trkpt><trkpt lat="44.733815997839336" lon="7.3323980667341875"><ele>363.0</ele><time>2026-04-05T08:50:20.001Z</time></trkpt><trkpt lat="44.733737632367514" lon="7.3323306957805805"><ele>363.0</ele><time>2026-04-05T08:50:22.001Z</time></trkpt><trkpt lat="44.73365965592093" lon="7.332268472229282"><ele>363.0</ele><time>2026-04-05T08:50:24.001Z</time></trkpt><trkpt lat="44.73358661358887" lon="7.332210610521179"><ele>363.4</ele><time>2026-04-05T08:50:26.001Z</time></trkpt><trkpt lat="44.73352254282659" lon="7.332153441184484"><ele>363.79999999999995</ele><time>2026-04-05T08:50:28.001Z</time></trkpt><trkpt lat="44.733448950924654" lon="7.332097969902231"><ele>364.2</ele><time>2026-04-05T08:50:30.001Z</time></trkpt><trkpt lat="44.733353109609865" lon="7.332114487146112"><ele>364.6</ele><time>2026-04-05T08:50:32.001Z</time></trkpt><trkpt lat="44.73325954997857" lon="7.332084228944352"><ele>365.0</ele><time>2026-04-05T08:50:34.001Z</time></trkpt><trkpt lat="44.7331624573025" lon="7.3320452603745325"><ele>365.0</ele><time>2026-04-05T08:50:36.001Z</time></trkpt><trkpt lat="44.73306363836626" lon="7.332002503078037"><ele>365.0</ele><time>2026-04-05T08:50:38.001Z</time></trkpt><trkpt lat="44.73296634756038" lon="7.331957961053362"><ele>365.0</ele><time>2026-04-05T08:50:40.001Z</time></trkpt><trkpt lat="44.73286681981591" lon="7.331909394402987"><ele>365.0</ele><time>2026-04-05T08:50:42.001Z</time></trkpt><trkpt lat="44.73276981602954" lon="7.331859139282602"><ele>365.0</ele><time>2026-04-05T08:50:44.001Z</time></trkpt><trkpt lat="44.732672290638405" lon="7.3318071597544945"><ele>364.2</ele><time>2026-04-05T08:50:46.001Z</time></trkpt><trkpt lat="44.732572097581745" lon="7.3317492428171835"><ele>363.4</ele><time>2026-04-05T08:50:48.001Z</time></trkpt><trkpt lat="44.73246937432099" lon="7.331683862179806"><ele>362.6</ele><time>2026-04-05T08:50:50.001Z</time></trkpt><trkpt lat="44.73237427116356" lon="7.331618042982572"><ele>361.8</ele><time>2026-04-05T08:50:52.001Z</time></trkpt><trkpt lat="44.73227945182772" lon="7.3315511795992085"><ele>361.0</ele><time>2026-04-05T08:50:54.001Z</time></trkpt><trkpt lat="44.732187482923514" lon="7.331484239474094"><ele>361.0</ele><time>2026-04-05T08:50:56.001Z</time></trkpt><trkpt lat="44.73209084044465" lon="7.331419833590067"><ele>361.0</ele><time>2026-04-05T08:50:58.001Z</time></trkpt><trkpt lat="44.73199560720939" lon="7.331358765277776"><ele>361.0</ele><time>2026-04-05T08:50:59.999Z</time></trkpt><trkpt lat="44.73190033028302" lon="7.331311220950347"><ele>361.0</ele><time>2026-04-05T08:51:01.999Z</time></trkpt><trkpt lat="44.731805733961735" lon="7.331282854588504"><ele>361.0</ele><time>2026-04-05T08:51:03.999Z</time></trkpt><trkpt lat="44.731704760382826" lon="7.331258536731184"><ele>361.4</ele><time>2026-04-05T08:51:05.999Z</time></trkpt><trkpt lat="44.73160105015934" lon="7.331229314436213"><ele>361.8</ele><time>2026-04-05T08:51:07.999Z</time></trkpt><trkpt lat="44.731497737563835" lon="7.331198359548763"><ele>362.2</ele><time>2026-04-05T08:51:09.999Z</time></trkpt><trkpt lat="44.7313904157961" lon="7.331161389022793"><ele>362.59999999999997</ele><time>2026-04-05T08:51:11.999Z</time></trkpt><trkpt lat="44.73128556784789" lon="7.331120146029136"><ele>363.0</ele><time>2026-04-05T08:51:13.999Z</time></trkpt><trkpt lat="44.73118642298795" lon="7.331070525830124"><ele>363.0</ele><time>2026-04-05T08:51:16Z</time></trkpt><trkpt lat="44.731077613639066" lon="7.3310005723528455"><ele>363.0</ele><time>2026-04-05T08:51:18Z</time></trkpt><trkpt lat="44.73102449592315" lon="7.330940798752129"><ele>363.0</ele><time>2026-04-05T08:51:19Z</time></trkpt><trkpt lat="44.73095812233304" lon="7.330820512294613"><ele>363.0</ele><time>2026-04-05T08:51:21Z</time></trkpt><trkpt lat="44.730911925847046" lon="7.330737020161487"><ele>363.0</ele><time>2026-04-05T08:51:24Z</time></trkpt><trkpt lat="44.73088221048876" lon="7.33065415596546"><ele>363.0</ele><time>2026-04-05T08:51:27Z</time></trkpt><trkpt lat="44.73084407714442" lon="7.33056417487813"><ele>363.3333333333333</ele><time>2026-04-05T08:51:30Z</time></trkpt><trkpt lat="44.73080779370909" lon="7.330485487515271"><ele>363.66666666666663</ele><time>2026-04-05T08:51:33Z</time></trkpt><trkpt lat="44.730759424466626" lon="7.330368946854275"><ele>364.0</ele><time>2026-04-05T08:51:36Z</time></trkpt><trkpt lat="44.73031386151973" lon="7.330594641066649"><ele>364.0</ele><time>2026-04-05T08:51:38Z</time></trkpt><trkpt lat="44.73021746859308" lon="7.330581634073331"><ele>364.0</ele><time>2026-04-05T08:51:40Z</time></trkpt><trkpt lat="44.73012298510339" lon="7.330568142948819"><ele>364.0</ele><time>2026-04-05T08:51:42Z</time></trkpt><trkpt lat="44.73003300132513" lon="7.330561275564157"><ele>364.0</ele><time>2026-04-05T08:51:44Z</time></trkpt><trkpt lat="44.72994327878198" lon="7.330541719503674"><ele>364.0</ele><time>2026-04-05T08:51:46Z</time></trkpt><trkpt lat="44.72984998714191" lon="7.330523577963929"><ele>364.0</ele><time>2026-04-05T08:51:48Z</time></trkpt><trkpt lat="44.729755015721615" lon="7.330513924438034"><ele>364.0</ele><time>2026-04-05T08:51:50Z</time></trkpt><trkpt lat="44.72966672640255" lon="7.330498614301043"><ele>364.0</ele><time>2026-04-05T08:51:52Z</time></trkpt><trkpt lat="44.72957925320381" lon="7.330483937535829"><ele>364.0</ele><time>2026-04-05T08:51:54Z</time></trkpt><trkpt lat="44.72948737797452" lon="7.3304669512164145"><ele>364.0</ele><time>2026-04-05T08:51:56Z</time></trkpt><trkpt lat="44.72940546495821" lon="7.330459392378374"><ele>364.0</ele><time>2026-04-05T08:51:58Z</time></trkpt><trkpt lat="44.729329744239756" lon="7.330484456797405"><ele>363.85714285714283</ele><time>2026-04-05T08:52:00Z</time></trkpt><trkpt lat="44.72926323527832" lon="7.330540943628854"><ele>363.7142857142857</ele><time>2026-04-05T08:52:02Z</time></trkpt><trkpt lat="44.72918930373744" lon="7.3305628147494195"><ele>363.57142857142856</ele><time>2026-04-05T08:52:04Z</time></trkpt><trkpt lat="44.72911716101384" lon="7.330555548551165"><ele>363.42857142857144</ele><time>2026-04-05T08:52:06Z</time></trkpt><trkpt lat="44.72904982392677" lon="7.330543428377854"><ele>363.2857142857143</ele><time>2026-04-05T08:52:08Z</time></trkpt><trkpt lat="44.72897468543058" lon="7.330549632634478"><ele>363.1428571428571</ele><time>2026-04-05T08:52:10.001Z</time></trkpt><trkpt lat="44.72890923113089" lon="7.330558059362294"><ele>363.0</ele><time>2026-04-05T08:52:11.001Z</time></trkpt><trkpt lat="44.72879282389568" lon="7.3305645445291105"><ele>362.2</ele><time>2026-04-05T08:52:13.001Z</time></trkpt><trkpt lat="44.72868787257656" lon="7.330582609042499"><ele>361.4</ele><time>2026-04-05T08:52:15.001Z</time></trkpt><trkpt lat="44.72858549836737" lon="7.330588111672063"><ele>360.59999999999997</ele><time>2026-04-05T08:52:17.001Z</time></trkpt><trkpt lat="44.72848023005112" lon="7.33060080389615"><ele>359.79999999999995</ele><time>2026-04-05T08:52:19.001Z</time></trkpt><trkpt lat="44.728376337021324" lon="7.330629948511609"><ele>359.0</ele><time>2026-04-05T08:52:21.001Z</time></trkpt><trkpt lat="44.72828846886068" lon="7.330593922788645"><ele>359.0</ele><time>2026-04-05T08:52:23.001Z</time></trkpt><trkpt lat="44.728265719472944" lon="7.330499946203577"><ele>359.0</ele><time>2026-04-05T08:52:25.001Z</time></trkpt><trkpt lat="44.72826510396595" lon="7.330411056351228"><ele>359.0</ele><time>2026-04-05T08:52:42.001Z</time></trkpt><trkpt lat="44.728308983683434" lon="7.330335312965946"><ele>359.0</ele><time>2026-04-05T08:52:46.001Z</time></trkpt><trkpt lat="44.728237123191136" lon="7.330316016677754"><ele>359.0</ele><time>2026-04-05T08:52:50.001Z</time></trkpt><trkpt lat="44.728250668393" lon="7.330435752529638"><ele>359.0</ele><time>2026-04-05T08:52:53.001Z</time></trkpt><trkpt lat="44.72811005469211" lon="7.330510162531004"><ele>357.6666666666667</ele><time>2026-04-05T08:52:54.001Z</time></trkpt><trkpt lat="44.728123307261" lon="7.330602332193312"><ele>356.3333333333333</ele><time>2026-04-05T08:52:56.001Z</time></trkpt><trkpt lat="44.728140196241895" lon="7.330710273802937"><ele>355.0</ele><time>2026-04-05T08:52:58.001Z</time></trkpt><trkpt lat="44.72853186382043" lon="7.330604820451614"><ele>355.8</ele><time>2026-04-05T08:53:02.001Z</time></trkpt><trkpt lat="44.728623928551706" lon="7.330593527140296"><ele>356.6</ele><time>2026-04-05T08:53:04.001Z</time></trkpt><trkpt lat="44.728714684510294" lon="7.330579940860164"><ele>357.4</ele><time>2026-04-05T08:53:05.999Z</time></trkpt><trkpt lat="44.72880969577564" lon="7.330577769098802"><ele>358.2</ele><time>2026-04-05T08:53:07.999Z</time></trkpt><trkpt lat="44.72890967034426" lon="7.330558833989861"><ele>359.0</ele><time>2026-04-05T08:53:09.999Z</time></trkpt><trkpt lat="44.72901209573463" lon="7.3305504638173895"><ele>359.0</ele><time>2026-04-05T08:53:11.999Z</time></trkpt><trkpt lat="44.72908883768768" lon="7.330552763191248"><ele>359.0</ele><time>2026-04-05T08:53:13.999Z</time></trkpt><trkpt lat="44.72916520069107" lon="7.330558611937992"><ele>359.0</ele><time>2026-04-05T08:53:15.999Z</time></trkpt><trkpt lat="44.72924560316542" lon="7.330542803846118"><ele>359.0</ele><time>2026-04-05T08:53:17.999Z</time></trkpt><trkpt lat="44.72932670250131" lon="7.330496746279453"><ele>359.0</ele><time>2026-04-05T08:53:19.999Z</time></trkpt><trkpt lat="44.72941387847827" lon="7.330462080428886"><ele>359.0</ele><time>2026-04-05T08:53:22Z</time></trkpt><trkpt lat="44.72950586409886" lon="7.330477691424972"><ele>360.0</ele><time>2026-04-05T08:53:24Z</time></trkpt><trkpt lat="44.72959583853671" lon="7.330478713307183"><ele>361.0</ele><time>2026-04-05T08:53:26Z</time></trkpt><trkpt lat="44.729687590494954" lon="7.330492794265062"><ele>362.0</ele><time>2026-04-05T08:53:28Z</time></trkpt><trkpt lat="44.72977782291301" lon="7.330507365299515"><ele>363.0</ele><time>2026-04-05T08:53:30Z</time></trkpt><trkpt lat="44.72986857106066" lon="7.330520959232969"><ele>364.0</ele><time>2026-04-05T08:53:32Z</time></trkpt><trkpt lat="44.729954905122426" lon="7.330536852002248"><ele>364.0</ele><time>2026-04-05T08:53:34Z</time></trkpt><trkpt lat="44.730038385644804" lon="7.330550229531272"><ele>364.0</ele><time>2026-04-05T08:53:36Z</time></trkpt><trkpt lat="44.73012392349201" lon="7.330563459454903"><ele>364.0</ele><time>2026-04-05T08:53:38Z</time></trkpt><trkpt lat="44.73020791348345" lon="7.330574617042126"><ele>364.0</ele><time>2026-04-05T08:53:40Z</time></trkpt><trkpt lat="44.730287632095944" lon="7.330586475088877"><ele>364.0</ele><time>2026-04-05T08:53:42Z</time></trkpt><trkpt lat="44.73037018355269" lon="7.330595891796222"><ele>364.0</ele><time>2026-04-05T08:53:44Z</time></trkpt><trkpt lat="44.73044943341741" lon="7.330632607397236"><ele>363.0</ele><time>2026-04-05T08:53:46Z</time></trkpt><trkpt lat="44.730529872380444" lon="7.330642856237511"><ele>362.0</ele><time>2026-04-05T08:53:48Z</time></trkpt><trkpt lat="44.73061259938823" lon="7.3306520525200725"><ele>361.0</ele><time>2026-04-05T08:53:50Z</time></trkpt><trkpt lat="44.73069054617948" lon="7.330663023194428"><ele>360.0</ele><time>2026-04-05T08:53:52Z</time></trkpt><trkpt lat="44.73075448142518" lon="7.330672647155901"><ele>359.0</ele><time>2026-04-05T08:53:54Z</time></trkpt><trkpt lat="44.73082834423153" lon="7.330718191224304"><ele>358.0</ele><time>2026-04-05T08:53:59Z</time></trkpt><trkpt lat="44.730911407269105" lon="7.330749822183244"><ele>358.0</ele><time>2026-04-05T08:54:02Z</time></trkpt><trkpt lat="44.730985561318136" lon="7.330779410660247"><ele>358.0</ele><time>2026-04-05T08:54:04Z</time></trkpt><trkpt lat="44.73099034492029" lon="7.331012727515246"><ele>358.0</ele><time>2026-04-05T08:54:06Z</time></trkpt><trkpt lat="44.73107133483056" lon="7.331078083118914"><ele>358.0</ele><time>2026-04-05T08:54:08Z</time></trkpt><trkpt lat="44.7311575863135" lon="7.331130041506617"><ele>358.0</ele><time>2026-04-05T08:54:10Z</time></trkpt><trkpt lat="44.73125580917072" lon="7.331179730330088"><ele>359.0</ele><time>2026-04-05T08:54:12Z</time></trkpt><trkpt lat="44.73135795202602" lon="7.331221348288846"><ele>360.0</ele><time>2026-04-05T08:54:14.001Z</time></trkpt><trkpt lat="44.731455670067774" lon="7.331256887373982"><ele>361.0</ele><time>2026-04-05T08:54:16.001Z</time></trkpt><trkpt lat="44.73154342434793" lon="7.33128391830495"><ele>362.0</ele><time>2026-04-05T08:54:18.001Z</time></trkpt><trkpt lat="44.731633562598596" lon="7.331310489540703"><ele>363.0</ele><time>2026-04-05T08:54:20.001Z</time></trkpt><trkpt lat="44.7317317902695" lon="7.3313361323162605"><ele>363.0</ele><time>2026-04-05T08:54:22.001Z</time></trkpt><trkpt lat="44.73181704447101" lon="7.331356984247181"><ele>363.0</ele><time>2026-04-05T08:54:24.001Z</time></trkpt><trkpt lat="44.731902940401994" lon="7.3313856900957415"><ele>363.0</ele><time>2026-04-05T08:54:26.001Z</time></trkpt><trkpt lat="44.73198442545492" lon="7.331428315775862"><ele>363.0</ele><time>2026-04-05T08:54:28.001Z</time></trkpt><trkpt lat="44.73206864320349" lon="7.331482605017578"><ele>363.0</ele><time>2026-04-05T08:54:30.001Z</time></trkpt><trkpt lat="44.73215644132496" lon="7.331541116560853"><ele>362.59999999999997</ele><time>2026-04-05T08:54:32.001Z</time></trkpt><trkpt lat="44.732234713196036" lon="7.3315976465634"><ele>362.2</ele><time>2026-04-05T08:54:34.001Z</time></trkpt><trkpt lat="44.73232400271207" lon="7.331661375577113"><ele>361.8</ele><time>2026-04-05T08:54:36.001Z</time></trkpt><trkpt lat="44.73240974250132" lon="7.33172071463351"><ele>361.4</ele><time>2026-04-05T08:54:38.001Z</time></trkpt><trkpt lat="44.73249537282956" lon="7.331778007581763"><ele>361.0</ele><time>2026-04-05T08:54:40.001Z</time></trkpt><trkpt lat="44.73257880275603" lon="7.331828675796135"><ele>361.0</ele><time>2026-04-05T08:54:42.001Z</time></trkpt><trkpt lat="44.73266338145111" lon="7.331876845544548"><ele>361.0</ele><time>2026-04-05T08:54:44.001Z</time></trkpt><trkpt lat="44.732753514897716" lon="7.331925397906485"><ele>361.0</ele><time>2026-04-05T08:54:46.001Z</time></trkpt><trkpt lat="44.73284400909266" lon="7.331972395032786"><ele>361.0</ele><time>2026-04-05T08:54:48.001Z</time></trkpt><trkpt lat="44.732924518297175" lon="7.3320122778637895"><ele>361.0</ele><time>2026-04-05T08:54:50.001Z</time></trkpt><trkpt lat="44.7330099820743" lon="7.332051635303917"><ele>361.66666666666663</ele><time>2026-04-05T08:54:52.001Z</time></trkpt><trkpt lat="44.733100118988524" lon="7.332092902223868"><ele>362.3333333333333</ele><time>2026-04-05T08:54:54.001Z</time></trkpt><trkpt lat="44.73317719008309" lon="7.332124502000553"><ele>363.0</ele><time>2026-04-05T08:54:56.001Z</time></trkpt><trkpt lat="44.733263928050235" lon="7.332158551731898"><ele>363.6666666666667</ele><time>2026-04-05T08:54:58.001Z</time></trkpt><trkpt lat="44.7333456218006" lon="7.332183887904424"><ele>364.33333333333337</ele><time>2026-04-05T08:55:00.001Z</time></trkpt><trkpt lat="44.73342214522662" lon="7.332206897666848"><ele>365.0</ele><time>2026-04-05T08:55:02.001Z</time></trkpt><trkpt lat="44.733502345014934" lon="7.332212490684131"><ele>365.4</ele><time>2026-04-05T08:55:06.001Z</time></trkpt><trkpt lat="44.73358116112301" lon="7.332210164681507"><ele>365.8</ele><time>2026-04-05T08:55:08.001Z</time></trkpt><trkpt lat="44.7336521954053" lon="7.3321904545774785"><ele>366.20000000000005</ele><time>2026-04-05T08:55:10.002Z</time></trkpt><trkpt lat="44.73372566855805" lon="7.332181438032239"><ele>366.6</ele><time>2026-04-05T08:55:11.999Z</time></trkpt><trkpt lat="44.73377662145151" lon="7.332377978613598"><ele>367.0</ele><time>2026-04-05T08:55:12.999Z</time></trkpt><trkpt lat="44.733860707352996" lon="7.332445711258338"><ele>366.20000000000005</ele><time>2026-04-05T08:55:14.999Z</time></trkpt><trkpt lat="44.733944462704564" lon="7.332517966065422"><ele>365.4</ele><time>2026-04-05T08:55:16.999Z</time></trkpt><trkpt lat="44.73402681012504" lon="7.332586247038057"><ele>364.6</ele><time>2026-04-05T08:55:18.999Z</time></trkpt><trkpt lat="44.73411336847864" lon="7.332656483070688"><ele>363.79999999999995</ele><time>2026-04-05T08:55:20.999Z</time></trkpt><trkpt lat="44.73419883060593" lon="7.332722636403907"><ele>363.0</ele><time>2026-04-05T08:55:22.999Z</time></trkpt><trkpt lat="44.73428320185116" lon="7.332793589816457"><ele>363.0</ele><time>2026-04-05T08:55:24.999Z</time></trkpt><trkpt lat="44.734368719487534" lon="7.332859008764754"><ele>363.0</ele><time>2026-04-05T08:55:27Z</time></trkpt><trkpt lat="44.73445776138127" lon="7.3329247894424485"><ele>363.0</ele><time>2026-04-05T08:55:29Z</time></trkpt><trkpt lat="44.73454639557424" lon="7.332988706119346"><ele>363.0</ele><time>2026-04-05T08:55:31Z</time></trkpt><trkpt lat="44.73463709195109" lon="7.333049825596754"><ele>363.0</ele><time>2026-04-05T08:55:33Z</time></trkpt><trkpt lat="44.734731978196514" lon="7.333104894271773"><ele>362.4</ele><time>2026-04-05T08:55:35Z</time></trkpt><trkpt lat="44.73482404386656" lon="7.333152765294876"><ele>361.79999999999995</ele><time>2026-04-05T08:55:37Z</time></trkpt><trkpt lat="44.734919407295244" lon="7.333198601208572"><ele>361.2</ele><time>2026-04-05T08:55:39Z</time></trkpt><trkpt lat="44.73501223855922" lon="7.333238839206158"><ele>360.6</ele><time>2026-04-05T08:55:41Z</time></trkpt><trkpt lat="44.73511054178622" lon="7.333278545649141"><ele>360.0</ele><time>2026-04-05T08:55:43Z</time></trkpt><trkpt lat="44.73518477577511" lon="7.333304301596082"><ele>359.8333333333333</ele><time>2026-04-05T08:55:45Z</time></trkpt><trkpt lat="44.735267908331565" lon="7.333334760175431"><ele>359.6666666666667</ele><time>2026-04-05T08:55:48Z</time></trkpt><trkpt lat="44.73534426346587" lon="7.333347069991134"><ele>359.5</ele><time>2026-04-05T08:55:50Z</time></trkpt><trkpt lat="44.73542607218882" lon="7.333363536412407"><ele>359.33333333333337</ele><time>2026-04-05T08:55:52Z</time></trkpt><trkpt lat="44.735510086492134" lon="7.333387748749342"><ele>359.1666666666667</ele><time>2026-04-05T08:55:54Z</time></trkpt><trkpt lat="44.73559410798633" lon="7.333424152975324"><ele>359.0</ele><time>2026-04-05T08:55:56Z</time></trkpt><trkpt lat="44.735685469831495" lon="7.333437240342221"><ele>359.0</ele><time>2026-04-05T08:55:58Z</time></trkpt><trkpt lat="44.73577604738454" lon="7.333451939277273"><ele>359.0</ele><time>2026-04-05T08:56:00Z</time></trkpt><trkpt lat="44.735869363326614" lon="7.333460586042107"><ele>359.0</ele><time>2026-04-05T08:56:02Z</time></trkpt><trkpt lat="44.73596159843354" lon="7.333461363827835"><ele>359.0</ele><time>2026-04-05T08:56:04Z</time></trkpt><trkpt lat="44.7360573776303" lon="7.333460514871096"><ele>359.0</ele><time>2026-04-05T08:56:06Z</time></trkpt><trkpt lat="44.73615202813177" lon="7.333465514709106"><ele>359.2</ele><time>2026-04-05T08:56:08Z</time></trkpt><trkpt lat="44.736237931687086" lon="7.3334608820796925"><ele>359.4</ele><time>2026-04-05T08:56:10Z</time></trkpt><trkpt lat="44.73633092314954" lon="7.333458450870249"><ele>359.6</ele><time>2026-04-05T08:56:12Z</time></trkpt><trkpt lat="44.73642412770862" lon="7.3334496057911895"><ele>359.8</ele><time>2026-04-05T08:56:14Z</time></trkpt><trkpt lat="44.7365201993582" lon="7.333442996454815"><ele>360.0</ele><time>2026-04-05T08:56:16Z</time></trkpt><trkpt lat="44.7366178067586" lon="7.333435397333079"><ele>360.0</ele><time>2026-04-05T08:56:18.001Z</time></trkpt><trkpt lat="44.73671612088997" lon="7.333428780684537"><ele>360.0</ele><time>2026-04-05T08:56:20.001Z</time></trkpt><trkpt lat="44.73681625910173" lon="7.333420818879111"><ele>360.0</ele><time>2026-04-05T08:56:22.001Z</time></trkpt><trkpt lat="44.73688205340553" lon="7.333283772093208"><ele>360.0</ele><time>2026-04-05T08:56:23.001Z</time></trkpt><trkpt lat="44.73697325681794" lon="7.333305078608017"><ele>360.0</ele><time>2026-04-05T08:56:25.001Z</time></trkpt><trkpt lat="44.73706982977736" lon="7.333315661124818"><ele>360.0</ele><time>2026-04-05T08:56:27.001Z</time></trkpt><trkpt lat="44.73717146212507" lon="7.333318108743908"><ele>360.0</ele><time>2026-04-05T08:56:29.001Z</time></trkpt><trkpt lat="44.737273019562146" lon="7.3333137932759795"><ele>360.0</ele><time>2026-04-05T08:56:31.001Z</time></trkpt><trkpt lat="44.73737503951306" lon="7.333305191459764"><ele>360.0</ele><time>2026-04-05T08:56:33.001Z</time></trkpt><trkpt lat="44.7374766045147" lon="7.3332961518546655"><ele>360.0</ele><time>2026-04-05T08:56:35.001Z</time></trkpt><trkpt lat="44.73757997260094" lon="7.333286951776483"><ele>360.0</ele><time>2026-04-05T08:56:37.001Z</time></trkpt><trkpt lat="44.737681372454404" lon="7.333277926874352"><ele>360.0</ele><time>2026-04-05T08:56:39.001Z</time></trkpt><trkpt lat="44.73778473457628" lon="7.333268727324893"><ele>360.0</ele><time>2026-04-05T08:56:41.001Z</time></trkpt><trkpt lat="44.73788965001942" lon="7.333259389523617"><ele>360.0</ele><time>2026-04-05T08:56:43.001Z</time></trkpt><trkpt lat="44.73799325402906" lon="7.33325016844714"><ele>360.0</ele><time>2026-04-05T08:56:45.001Z</time></trkpt><trkpt lat="44.73809699518152" lon="7.333240530293846"><ele>359.6</ele><time>2026-04-05T08:56:47.001Z</time></trkpt><trkpt lat="44.73819984185738" lon="7.3332307562071675"><ele>359.2</ele><time>2026-04-05T08:56:49.001Z</time></trkpt><trkpt lat="44.738301646204" lon="7.333219768270821"><ele>358.79999999999995</ele><time>2026-04-05T08:56:51.001Z</time></trkpt><trkpt lat="44.73840190562398" lon="7.333204470990626"><ele>358.4</ele><time>2026-04-05T08:56:53.001Z</time></trkpt><trkpt lat="44.738504048339486" lon="7.333185450134762"><ele>358.0</ele><time>2026-04-05T08:56:55.001Z</time></trkpt><trkpt lat="44.738606673239296" lon="7.33316611257769"><ele>357.59999999999997</ele><time>2026-04-05T08:56:57.001Z</time></trkpt><trkpt lat="44.73870895432514" lon="7.333146839771725"><ele>357.2</ele><time>2026-04-05T08:56:59.001Z</time></trkpt><trkpt lat="44.7388118712202" lon="7.333128365827025"><ele>356.8</ele><time>2026-04-05T08:57:01.001Z</time></trkpt><trkpt lat="44.73891139017125" lon="7.333112222481321"><ele>356.4</ele><time>2026-04-05T08:57:03.001Z</time></trkpt><trkpt lat="44.73897081805339" lon="7.333240807955565"><ele>356.0</ele><time>2026-04-05T08:57:04.001Z</time></trkpt><trkpt lat="44.73907094514878" lon="7.333230918208945"><ele>356.0</ele><time>2026-04-05T08:57:06.001Z</time></trkpt><trkpt lat="44.73917759827097" lon="7.3331536766656935"><ele>356.0</ele><time>2026-04-05T08:57:08.001Z</time></trkpt><trkpt lat="44.739284074666" lon="7.333354344395581"><ele>356.0</ele><time>2026-04-05T08:57:10.001Z</time></trkpt><trkpt lat="44.739377135269976" lon="7.33333421721015"><ele>356.0</ele><time>2026-04-05T08:57:12.001Z</time></trkpt><trkpt lat="44.73947557637858" lon="7.333317709029867"><ele>356.20000000000005</ele><time>2026-04-05T08:57:14.002Z</time></trkpt><trkpt lat="44.73957513368675" lon="7.333304257004449"><ele>356.40000000000003</ele><time>2026-04-05T08:57:16.002Z</time></trkpt><trkpt lat="44.73967476281093" lon="7.333291098439039"><ele>356.6</ele><time>2026-04-05T08:57:17.999Z</time></trkpt><trkpt lat="44.73977414667489" lon="7.333278247522174"><ele>356.8</ele><time>2026-04-05T08:57:19.999Z</time></trkpt><trkpt lat="44.73987241385882" lon="7.333266047579907"><ele>357.0</ele><time>2026-04-05T08:57:21.999Z</time></trkpt><trkpt lat="44.7399702425293" lon="7.333253045481364"><ele>357.0</ele><time>2026-04-05T08:57:23.999Z</time></trkpt><trkpt lat="44.74006672710509" lon="7.333239867353113"><ele>357.0</ele><time>2026-04-05T08:57:25.999Z</time></trkpt><trkpt lat="44.740149819928995" lon="7.333240298879903"><ele>357.0</ele><time>2026-04-05T08:57:27.999Z</time></trkpt><trkpt lat="44.740228922916536" lon="7.333266921680349"><ele>357.0</ele><time>2026-04-05T08:57:29.999Z</time></trkpt><trkpt lat="44.740317866038865" lon="7.333295613294121"><ele>357.0</ele><time>2026-04-05T08:57:32Z</time></trkpt><trkpt lat="44.74035702824751" lon="7.333376611107878"><ele>357.0</ele><time>2026-04-05T08:57:34Z</time></trkpt><trkpt lat="44.740536957311136" lon="7.333119514058546"><ele>357.20000000000005</ele><time>2026-04-05T08:57:36Z</time></trkpt><trkpt lat="44.74063593711768" lon="7.3331098747502015"><ele>357.4</ele><time>2026-04-05T08:57:38Z</time></trkpt><trkpt lat="44.74073342293844" lon="7.333101950874929"><ele>357.6</ele><time>2026-04-05T08:57:40Z</time></trkpt><trkpt lat="44.74083208490406" lon="7.33309590164392"><ele>357.79999999999995</ele><time>2026-04-05T08:57:42Z</time></trkpt><trkpt lat="44.74092977130933" lon="7.3330903547380615"><ele>358.0</ele><time>2026-04-05T08:57:44Z</time></trkpt><trkpt lat="44.74102862650862" lon="7.333083368379147"><ele>358.59999999999997</ele><time>2026-04-05T08:57:46Z</time></trkpt><trkpt lat="44.741127270108166" lon="7.333076353232927"><ele>359.2</ele><time>2026-04-05T08:57:48Z</time></trkpt><trkpt lat="44.74122754826274" lon="7.333067358967657"><ele>359.8</ele><time>2026-04-05T08:57:50Z</time></trkpt><trkpt lat="44.74132691091568" lon="7.333058334035798"><ele>360.4</ele><time>2026-04-05T08:57:52Z</time></trkpt><trkpt lat="44.74142310655012" lon="7.333049589486853"><ele>361.0</ele><time>2026-04-05T08:57:54Z</time></trkpt><trkpt lat="44.74152076457756" lon="7.333043603851358"><ele>361.20000000000005</ele><time>2026-04-05T08:57:56Z</time></trkpt><trkpt lat="44.74161972068589" lon="7.333033014110427"><ele>361.40000000000003</ele><time>2026-04-05T08:57:58Z</time></trkpt><trkpt lat="44.7417157536232" lon="7.3330262869986065"><ele>361.6</ele><time>2026-04-05T08:58:00Z</time></trkpt><trkpt lat="44.74181045975892" lon="7.333019629650646"><ele>361.8</ele><time>2026-04-05T08:58:02Z</time></trkpt><trkpt lat="44.74190859851437" lon="7.333013678460934"><ele>362.0</ele><time>2026-04-05T08:58:04Z</time></trkpt><trkpt lat="44.742008552585894" lon="7.333005934466441"><ele>361.40000000000003</ele><time>2026-04-05T08:58:06Z</time></trkpt><trkpt lat="44.74210966785125" lon="7.3329964375362815"><ele>360.8</ele><time>2026-04-05T08:58:08Z</time></trkpt><trkpt lat="44.742210907308575" lon="7.332987586945055"><ele>360.2</ele><time>2026-04-05T08:58:10Z</time></trkpt><trkpt lat="44.74231297149505" lon="7.332979226409479"><ele>359.6</ele><time>2026-04-05T08:58:12Z</time></trkpt><trkpt lat="44.74241363624432" lon="7.332971790960215"><ele>359.0</ele><time>2026-04-05T08:58:14Z</time></trkpt><trkpt lat="44.742512005035174" lon="7.33295716246955"><ele>359.0</ele><time>2026-04-05T08:58:16Z</time></trkpt><trkpt lat="44.7426093457689" lon="7.332952466085562"><ele>359.0</ele><time>2026-04-05T08:58:18Z</time></trkpt><trkpt lat="44.74270724265454" lon="7.332943841334434"><ele>359.0</ele><time>2026-04-05T08:58:20Z</time></trkpt><trkpt lat="44.74280216670511" lon="7.332940325451967"><ele>359.0</ele><time>2026-04-05T08:58:22.001Z</time></trkpt><trkpt lat="44.74289608307667" lon="7.332933921720548"><ele>359.0</ele><time>2026-04-05T08:58:24.001Z</time></trkpt><trkpt lat="44.74298926373123" lon="7.332925762717138"><ele>359.0</ele><time>2026-04-05T08:58:26.001Z</time></trkpt><trkpt lat="44.743082550014485" lon="7.332917813456176"><ele>359.0</ele><time>2026-04-05T08:58:28.001Z</time></trkpt><trkpt lat="44.74317662789156" lon="7.332909986918658"><ele>359.0</ele><time>2026-04-05T08:58:30.001Z</time></trkpt><trkpt lat="44.74327179432287" lon="7.332897003006221"><ele>359.0</ele><time>2026-04-05T08:58:32.001Z</time></trkpt><trkpt lat="44.74336680503186" lon="7.3328908511355815"><ele>359.0</ele><time>2026-04-05T08:58:34.001Z</time></trkpt><trkpt lat="44.74346013122718" lon="7.332886293277511"><ele>359.1666666666667</ele><time>2026-04-05T08:58:36.001Z</time></trkpt><trkpt lat="44.743555905434015" lon="7.332880046763253"><ele>359.33333333333337</ele><time>2026-04-05T08:58:38.001Z</time></trkpt><trkpt lat="44.743650121695076" lon="7.332873787484442"><ele>359.5</ele><time>2026-04-05T08:58:40.001Z</time></trkpt><trkpt lat="44.74374318712703" lon="7.332866777566574"><ele>359.6666666666667</ele><time>2026-04-05T08:58:42.001Z</time></trkpt><trkpt lat="44.743828018140896" lon="7.332858322297888"><ele>359.8333333333333</ele><time>2026-04-05T08:58:44.001Z</time></trkpt><trkpt lat="44.74389603950272" lon="7.332851704402674"><ele>360.0</ele><time>2026-04-05T08:58:46.001Z</time></trkpt><trkpt lat="44.74398271013101" lon="7.332838921061807"><ele>360.0</ele><time>2026-04-05T08:58:58.001Z</time></trkpt><trkpt lat="44.74406216865804" lon="7.332827578887669"><ele>360.0</ele><time>2026-04-05T08:59:01.001Z</time></trkpt><trkpt lat="44.74414474669773" lon="7.332821674722215"><ele>360.0</ele><time>2026-04-05T08:59:04.001Z</time></trkpt><trkpt lat="44.744226650965736" lon="7.332807849953357"><ele>360.0</ele><time>2026-04-05T08:59:07.001Z</time></trkpt><trkpt lat="44.744293388308066" lon="7.332796738045963"><ele>360.0</ele><time>2026-04-05T08:59:09.001Z</time></trkpt><trkpt lat="44.74438158854714" lon="7.332785018066359"><ele>360.0</ele><time>2026-04-05T08:59:11.001Z</time></trkpt><trkpt lat="44.744472326322025" lon="7.332773639498598"><ele>359.8</ele><time>2026-04-05T08:59:13.001Z</time></trkpt><trkpt lat="44.744567097226266" lon="7.332761263883824"><ele>359.6</ele><time>2026-04-05T08:59:15.002Z</time></trkpt><trkpt lat="44.74466148264756" lon="7.3327409354426205"><ele>359.4</ele><time>2026-04-05T08:59:17.002Z</time></trkpt><trkpt lat="44.74475742277354" lon="7.332717961053257"><ele>359.2</ele><time>2026-04-05T08:59:19.002Z</time></trkpt><trkpt lat="44.74485301466222" lon="7.332697492743719"><ele>359.0</ele><time>2026-04-05T08:59:21.002Z</time></trkpt><trkpt lat="44.74494944083947" lon="7.332672757440583"><ele>359.0</ele><time>2026-04-05T08:59:22.999Z</time></trkpt><trkpt lat="44.745046079301225" lon="7.332646255622932"><ele>359.0</ele><time>2026-04-05T08:59:24.999Z</time></trkpt><trkpt lat="44.745141846990315" lon="7.332615465463752"><ele>359.0</ele><time>2026-04-05T08:59:26.999Z</time></trkpt><trkpt lat="44.7452381872393" lon="7.332585517853234"><ele>359.0</ele><time>2026-04-05T08:59:28.999Z</time></trkpt><trkpt lat="44.7453348170481" lon="7.332554093686508"><ele>359.0</ele><time>2026-04-05T08:59:30.999Z</time></trkpt><trkpt lat="44.74543158742074" lon="7.332524216591836"><ele>358.4</ele><time>2026-04-05T08:59:32.999Z</time></trkpt><trkpt lat="44.74552715313962" lon="7.332492506344365"><ele>357.79999999999995</ele><time>2026-04-05T08:59:34.999Z</time></trkpt><trkpt lat="44.745622981734606" lon="7.332457572242395"><ele>357.20000000000005</ele><time>2026-04-05T08:59:36.999Z</time></trkpt><trkpt lat="44.745719660376274" lon="7.332417727127045"><ele>356.6</ele><time>2026-04-05T08:59:38.999Z</time></trkpt><trkpt lat="44.745816015412416" lon="7.332381003562123"><ele>356.0</ele><time>2026-04-05T08:59:40.999Z</time></trkpt><trkpt lat="44.74591164321927" lon="7.332343217845178"><ele>356.0</ele><time>2026-04-05T08:59:42.999Z</time></trkpt><trkpt lat="44.746005845216985" lon="7.332303499739018"><ele>356.0</ele><time>2026-04-05T08:59:45Z</time></trkpt><trkpt lat="44.74609947191073" lon="7.332257178747208"><ele>356.0</ele><time>2026-04-05T08:59:47Z</time></trkpt><trkpt lat="44.74619476518079" lon="7.332211609064631"><ele>356.0</ele><time>2026-04-05T08:59:49Z</time></trkpt><trkpt lat="44.746287127376235" lon="7.332168193094625"><ele>356.0</ele><time>2026-04-05T08:59:51Z</time></trkpt><trkpt lat="44.74637744530893" lon="7.3321157749725"><ele>356.20000000000005</ele><time>2026-04-05T08:59:53Z</time></trkpt><trkpt lat="44.74646996301964" lon="7.332063177021165"><ele>356.40000000000003</ele><time>2026-04-05T08:59:55Z</time></trkpt><trkpt lat="44.7465638399255" lon="7.332015153919535"><ele>356.6</ele><time>2026-04-05T08:59:57Z</time></trkpt><trkpt lat="44.74665775960597" lon="7.331961092132939"><ele>356.8</ele><time>2026-04-05T08:59:59Z</time></trkpt><trkpt lat="44.74675381214491" lon="7.331906162435037"><ele>357.0</ele><time>2026-04-05T09:00:01Z</time></trkpt><trkpt lat="44.74685276605121" lon="7.331852915148946"><ele>357.0</ele><time>2026-04-05T09:00:03Z</time></trkpt><trkpt lat="44.74694747575099" lon="7.331794745228116"><ele>357.0</ele><time>2026-04-05T09:00:05Z</time></trkpt><trkpt lat="44.74704057162654" lon="7.331734896654272"><ele>357.0</ele><time>2026-04-05T09:00:07Z</time></trkpt><trkpt lat="44.747131900070116" lon="7.331672713197185"><ele>357.0</ele><time>2026-04-05T09:00:09Z</time></trkpt><trkpt lat="44.747224673849125" lon="7.331609704345032"><ele>357.0</ele><time>2026-04-05T09:00:11Z</time></trkpt><trkpt lat="44.74731570374219" lon="7.331543217386302"><ele>357.0</ele><time>2026-04-05T09:00:13Z</time></trkpt><trkpt lat="44.7474048683132" lon="7.331477422515288"><ele>357.0</ele><time>2026-04-05T09:00:15Z</time></trkpt><trkpt lat="44.74749502393772" lon="7.331410880203858"><ele>357.0</ele><time>2026-04-05T09:00:17Z</time></trkpt><trkpt lat="44.747584911509364" lon="7.331339848240798"><ele>357.0</ele><time>2026-04-05T09:00:19Z</time></trkpt><trkpt lat="44.747679431923046" lon="7.331272498864487"><ele>357.0</ele><time>2026-04-05T09:00:21Z</time></trkpt><trkpt lat="44.74776925477824" lon="7.3311970369963175"><ele>356.40000000000003</ele><time>2026-04-05T09:00:23Z</time></trkpt><trkpt lat="44.74786116261031" lon="7.331123884905344"><ele>355.8</ele><time>2026-04-05T09:00:25Z</time></trkpt><trkpt lat="44.747950286537936" lon="7.331050030087182"><ele>355.2</ele><time>2026-04-05T09:00:27Z</time></trkpt><trkpt lat="44.74803522130476" lon="7.330974714058182"><ele>354.6</ele><time>2026-04-05T09:00:29Z</time></trkpt><trkpt lat="44.74812148949979" lon="7.3309039755976775"><ele>354.0</ele><time>2026-04-05T09:00:31.001Z</time></trkpt><trkpt lat="44.74820461611476" lon="7.330831246384061"><ele>354.0</ele><time>2026-04-05T09:00:33.001Z</time></trkpt><trkpt lat="44.748284371956316" lon="7.330755539087615"><ele>354.0</ele><time>2026-04-05T09:00:35.001Z</time></trkpt><trkpt lat="44.74836323791677" lon="7.330679051589611"><ele>354.0</ele><time>2026-04-05T09:00:37.001Z</time></trkpt><trkpt lat="44.748442946673364" lon="7.330602323451164"><ele>354.0</ele><time>2026-04-05T09:00:39.001Z</time></trkpt><trkpt lat="44.74851647822325" lon="7.330525760161424"><ele>354.0</ele><time>2026-04-05T09:00:41.001Z</time></trkpt><trkpt lat="44.74859476214096" lon="7.330445529515552"><ele>354.4</ele><time>2026-04-05T09:00:43.001Z</time></trkpt><trkpt lat="44.748672523739344" lon="7.33036510498421"><ele>354.79999999999995</ele><time>2026-04-05T09:00:45.001Z</time></trkpt><trkpt lat="44.74875138348326" lon="7.330281858688983"><ele>355.20000000000005</ele><time>2026-04-05T09:00:47.001Z</time></trkpt><trkpt lat="44.74882892565526" lon="7.330199354718207"><ele>355.6</ele><time>2026-04-05T09:00:49.001Z</time></trkpt><trkpt lat="44.74890591238527" lon="7.330113679135668"><ele>356.0</ele><time>2026-04-05T09:00:51.001Z</time></trkpt><trkpt lat="44.748982844224194" lon="7.330027084787992"><ele>356.0</ele><time>2026-04-05T09:00:53.001Z</time></trkpt><trkpt lat="44.749059918919166" lon="7.329937835607686"><ele>356.0</ele><time>2026-04-05T09:00:55.001Z</time></trkpt><trkpt lat="44.74913304428139" lon="7.3298484280055725"><ele>356.0</ele><time>2026-04-05T09:00:57.001Z</time></trkpt><trkpt lat="44.749204013421505" lon="7.32975610524523"><ele>356.0</ele><time>2026-04-05T09:00:59.001Z</time></trkpt><trkpt lat="44.74927822246086" lon="7.329665109994796"><ele>356.0</ele><time>2026-04-05T09:01:01.001Z</time></trkpt><trkpt lat="44.749350221139885" lon="7.329573921688839"><ele>355.8</ele><time>2026-04-05T09:01:03.001Z</time></trkpt><trkpt lat="44.74942423466808" lon="7.3294843769414335"><ele>355.6</ele><time>2026-04-05T09:01:05.001Z</time></trkpt><trkpt lat="44.74949399972756" lon="7.329390032964889"><ele>355.4</ele><time>2026-04-05T09:01:07.001Z</time></trkpt><trkpt lat="44.74956177249793" lon="7.3292960561529235"><ele>355.2</ele><time>2026-04-05T09:01:09.001Z</time></trkpt><trkpt lat="44.749631376215035" lon="7.3292082490393655"><ele>355.0</ele><time>2026-04-05T09:01:11.001Z</time></trkpt><trkpt lat="44.749700205325816" lon="7.329118705224974"><ele>355.0</ele><time>2026-04-05T09:01:13.001Z</time></trkpt><trkpt lat="44.74976652736054" lon="7.32901778461918"><ele>355.0</ele><time>2026-04-05T09:01:15.001Z</time></trkpt><trkpt lat="44.749833144320874" lon="7.3289161676386865"><ele>355.0</ele><time>2026-04-05T09:01:17.001Z</time></trkpt><trkpt lat="44.74991676471457" lon="7.328940447789134"><ele>355.0</ele><time>2026-04-05T09:01:18.001Z</time></trkpt><trkpt lat="44.74998410816755" lon="7.328858721878446"><ele>355.0</ele><time>2026-04-05T09:01:20.001Z</time></trkpt><trkpt lat="44.75004839283437" lon="7.328807885444291"><ele>355.0</ele><time>2026-04-05T09:01:22.002Z</time></trkpt><trkpt lat="44.75012840756144" lon="7.328749062651279"><ele>358.0</ele><time>2026-04-05T09:01:24.002Z</time></trkpt><trkpt lat="44.75040972318162" lon="7.328039604615536"><ele>358.0</ele><time>2026-04-05T09:01:34.999Z</time></trkpt><trkpt lat="44.75047486284736" lon="7.327945595409224"><ele>358.0</ele><time>2026-04-05T09:01:36.999Z</time></trkpt><trkpt lat="44.75053873663277" lon="7.327846051566228"><ele>358.0</ele><time>2026-04-05T09:01:38.999Z</time></trkpt><trkpt lat="44.750603995687925" lon="7.327746464198899"><ele>358.0</ele><time>2026-04-05T09:01:40.999Z</time></trkpt><trkpt lat="44.75066973350252" lon="7.327643122510825"><ele>358.0</ele><time>2026-04-05T09:01:42.999Z</time></trkpt><trkpt lat="44.75073687976551" lon="7.327545929704836"><ele>358.0</ele><time>2026-04-05T09:01:44.999Z</time></trkpt><trkpt lat="44.750801158427876" lon="7.327444555106695"><ele>358.0</ele><time>2026-04-05T09:01:46.999Z</time></trkpt><trkpt lat="44.7508681481881" lon="7.327341145147565"><ele>358.0</ele><time>2026-04-05T09:01:48.999Z</time></trkpt><trkpt lat="44.75093972348754" lon="7.327237269101122"><ele>358.0</ele><time>2026-04-05T09:01:51Z</time></trkpt><trkpt lat="44.75101475244216" lon="7.327138954244351"><ele>358.0</ele><time>2026-04-05T09:01:53Z</time></trkpt><trkpt lat="44.751092025778696" lon="7.327044150154318"><ele>358.0</ele><time>2026-04-05T09:01:55Z</time></trkpt><trkpt lat="44.75117370976568" lon="7.326956241147049"><ele>358.0</ele><time>2026-04-05T09:01:57Z</time></trkpt><trkpt lat="44.7512547085447" lon="7.326867958258403"><ele>358.0</ele><time>2026-04-05T09:01:59Z</time></trkpt><trkpt lat="44.75133804321171" lon="7.3267813903684065"><ele>358.0</ele><time>2026-04-05T09:02:01Z</time></trkpt><trkpt lat="44.75142193263438" lon="7.3267050009103265"><ele>358.0</ele><time>2026-04-05T09:02:03Z</time></trkpt><trkpt lat="44.751507218537895" lon="7.326635597808506"><ele>358.0</ele><time>2026-04-05T09:02:05Z</time></trkpt><trkpt lat="44.75158993641056" lon="7.326563230148271"><ele>358.0</ele><time>2026-04-05T09:02:07Z</time></trkpt><trkpt lat="44.75167643395604" lon="7.3264969887568165"><ele>358.0</ele><time>2026-04-05T09:02:09Z</time></trkpt><trkpt lat="44.75176625653985" lon="7.326438251545685"><ele>358.0</ele><time>2026-04-05T09:02:11Z</time></trkpt><trkpt lat="44.75185550228882" lon="7.3263794119360695"><ele>358.0</ele><time>2026-04-05T09:02:13Z</time></trkpt><trkpt lat="44.751947381001116" lon="7.326323670063779"><ele>358.59999999999997</ele><time>2026-04-05T09:02:15Z</time></trkpt><trkpt lat="44.75204143524944" lon="7.326271796685119"><ele>359.2</ele><time>2026-04-05T09:02:17Z</time></trkpt><trkpt lat="44.752136381853475" lon="7.326218763652041"><ele>359.8</ele><time>2026-04-05T09:02:19Z</time></trkpt><trkpt lat="44.75223128866731" lon="7.32616429610717"><ele>360.4</ele><time>2026-04-05T09:02:21Z</time></trkpt><trkpt lat="44.75232553383196" lon="7.3261144839274"><ele>361.0</ele><time>2026-04-05T09:02:23Z</time></trkpt><trkpt lat="44.75241765543997" lon="7.326067381225348"><ele>361.0</ele><time>2026-04-05T09:02:25Z</time></trkpt><trkpt lat="44.752511311030695" lon="7.326015348964846"><ele>361.0</ele><time>2026-04-05T09:02:27Z</time></trkpt><trkpt lat="44.75260211980918" lon="7.325970052219562"><ele>361.0</ele><time>2026-04-05T09:02:29Z</time></trkpt><trkpt lat="44.75269181104129" lon="7.325923728399321"><ele>361.0</ele><time>2026-04-05T09:02:31Z</time></trkpt><trkpt lat="44.752776065443086" lon="7.325883993434847"><ele>361.0</ele><time>2026-04-05T09:02:33Z</time></trkpt><trkpt lat="44.752858367182895" lon="7.325837806617554"><ele>360.66666666666663</ele><time>2026-04-05T09:02:35.001Z</time></trkpt><trkpt lat="44.752944144534666" lon="7.325796513258728"><ele>360.3333333333333</ele><time>2026-04-05T09:02:37.001Z</time></trkpt><trkpt lat="44.75302737215515" lon="7.325753506319021"><ele>360.0</ele><time>2026-04-05T09:02:39.001Z</time></trkpt><trkpt lat="44.753103279920786" lon="7.325710923737765"><ele>359.6666666666667</ele><time>2026-04-05T09:02:41.001Z</time></trkpt><trkpt lat="44.753182498552405" lon="7.3256730370439564"><ele>359.33333333333337</ele><time>2026-04-05T09:02:43.001Z</time></trkpt><trkpt lat="44.75326494658434" lon="7.32562607682994"><ele>359.0</ele><time>2026-04-05T09:02:45.001Z</time></trkpt><trkpt lat="44.75335161440149" lon="7.325576300991682"><ele>359.0</ele><time>2026-04-05T09:02:47.001Z</time></trkpt><trkpt lat="44.75343908044663" lon="7.325519893234338"><ele>359.0</ele><time>2026-04-05T09:02:49.001Z</time></trkpt><trkpt lat="44.75352505522637" lon="7.325459251841773"><ele>359.0</ele><time>2026-04-05T09:02:51.001Z</time></trkpt><trkpt lat="44.75360947760095" lon="7.325402146292063"><ele>359.0</ele><time>2026-04-05T09:02:53.001Z</time></trkpt><trkpt lat="44.753691816974644" lon="7.325344005637897"><ele>359.0</ele><time>2026-04-05T09:02:55.001Z</time></trkpt><trkpt lat="44.75377153639904" lon="7.325277394408561"><ele>359.0</ele><time>2026-04-05T09:02:57.001Z</time></trkpt><trkpt lat="44.75385013810186" lon="7.325211581881838"><ele>359.0</ele><time>2026-04-05T09:02:59.001Z</time></trkpt><trkpt lat="44.75392670293256" lon="7.325146684254014"><ele>359.0</ele><time>2026-04-05T09:03:01.001Z</time></trkpt><trkpt lat="44.75400162917696" lon="7.325075116555162"><ele>359.0</ele><time>2026-04-05T09:03:03.001Z</time></trkpt><trkpt lat="44.75407668943336" lon="7.32500995653472"><ele>359.0</ele><time>2026-04-05T09:03:05.001Z</time></trkpt><trkpt lat="44.754148179771455" lon="7.324934797848879"><ele>359.0</ele><time>2026-04-05T09:03:07.001Z</time></trkpt><trkpt lat="44.75422218877096" lon="7.3248647324475895"><ele>359.0</ele><time>2026-04-05T09:03:09.001Z</time></trkpt><trkpt lat="44.75429397285002" lon="7.324787316185074"><ele>359.0</ele><time>2026-04-05T09:03:11.001Z</time></trkpt><trkpt lat="44.754364235227335" lon="7.3247059000128205"><ele>359.0</ele><time>2026-04-05T09:03:13.001Z</time></trkpt><trkpt lat="44.75443551590821" lon="7.324624229777245"><ele>359.0</ele><time>2026-04-05T09:03:15.001Z</time></trkpt><trkpt lat="44.75450548342603" lon="7.324541666947119"><ele>359.0</ele><time>2026-04-05T09:03:17.001Z</time></trkpt><trkpt lat="44.75457029199472" lon="7.324456645927651"><ele>359.0</ele><time>2026-04-05T09:03:19.001Z</time></trkpt><trkpt lat="44.7546359524737" lon="7.324370155380069"><ele>359.0</ele><time>2026-04-05T09:03:21.001Z</time></trkpt><trkpt lat="44.75470084666992" lon="7.324284186003884"><ele>359.0</ele><time>2026-04-05T09:03:23.002Z</time></trkpt><trkpt lat="44.754764001023084" lon="7.324198310074272"><ele>359.0</ele><time>2026-04-05T09:03:25.002Z</time></trkpt><trkpt lat="44.754822409132856" lon="7.3241069709624185"><ele>359.0</ele><time>2026-04-05T09:03:27.002Z</time></trkpt><trkpt lat="44.75488276988401" lon="7.3240128135299"><ele>359.0</ele><time>2026-04-05T09:03:29.002Z</time></trkpt><trkpt lat="44.75494063847515" lon="7.323914197436717"><ele>359.4</ele><time>2026-04-05T09:03:31.002Z</time></trkpt><trkpt lat="44.75499666810026" lon="7.323811556153665"><ele>359.79999999999995</ele><time>2026-04-05T09:03:33.002Z</time></trkpt><trkpt lat="44.755058200178325" lon="7.3237117931206015"><ele>360.20000000000005</ele><time>2026-04-05T09:03:34.999Z</time></trkpt><trkpt lat="44.75511997041043" lon="7.323611104010925"><ele>360.6</ele><time>2026-04-05T09:03:36.999Z</time></trkpt><trkpt lat="44.75517808477111" lon="7.323512204794233"><ele>361.0</ele><time>2026-04-05T09:03:38.999Z</time></trkpt><trkpt lat="44.75523828808763" lon="7.323414451350699"><ele>361.0</ele><time>2026-04-05T09:03:40.999Z</time></trkpt><trkpt lat="44.75529838034722" lon="7.32331126992921"><ele>361.0</ele><time>2026-04-05T09:03:42.999Z</time></trkpt><trkpt lat="44.75535841225557" lon="7.323207556309001"><ele>361.0</ele><time>2026-04-05T09:03:44.999Z</time></trkpt><trkpt lat="44.75541867610146" lon="7.323103390189465"><ele>361.0</ele><time>2026-04-05T09:03:46.999Z</time></trkpt><trkpt lat="44.75548048064501" lon="7.323002321982847"><ele>361.0</ele><time>2026-04-05T09:03:48.999Z</time></trkpt><trkpt lat="44.755542337891114" lon="7.322901816238067"><ele>361.0</ele><time>2026-04-05T09:03:50.999Z</time></trkpt><trkpt lat="44.75560433069325" lon="7.322802179355067"><ele>361.0</ele><time>2026-04-05T09:03:53Z</time></trkpt><trkpt lat="44.75566707286131" lon="7.322705758635758"><ele>361.0</ele><time>2026-04-05T09:03:55Z</time></trkpt><trkpt lat="44.75572839822012" lon="7.322607650986352"><ele>361.0</ele><time>2026-04-05T09:03:57Z</time></trkpt><trkpt lat="44.755788428361846" lon="7.3225153510252285"><ele>361.0</ele><time>2026-04-05T09:03:59Z</time></trkpt><trkpt lat="44.75584847129401" lon="7.32243121708081"><ele>361.0</ele><time>2026-04-05T09:04:01Z</time></trkpt><trkpt lat="44.75591505802564" lon="7.322351237165956"><ele>361.0</ele><time>2026-04-05T09:04:03Z</time></trkpt><trkpt lat="44.75598850600661" lon="7.322265217815741"><ele>361.0</ele><time>2026-04-05T09:04:05Z</time></trkpt><trkpt lat="44.75606097134886" lon="7.322177257834857"><ele>361.0</ele><time>2026-04-05T09:04:07Z</time></trkpt><trkpt lat="44.75613304956678" lon="7.322089707274853"><ele>361.0</ele><time>2026-04-05T09:04:09Z</time></trkpt><trkpt lat="44.75620786440205" lon="7.32200096819534"><ele>361.0</ele><time>2026-04-05T09:04:11Z</time></trkpt><trkpt lat="44.75628700948213" lon="7.321918821342937"><ele>361.0</ele><time>2026-04-05T09:04:13Z</time></trkpt><trkpt lat="44.756362120732646" lon="7.321830348219222"><ele>361.0</ele><time>2026-04-05T09:04:15Z</time></trkpt><trkpt lat="44.75643658131706" lon="7.321743040637702"><ele>361.0</ele><time>2026-04-05T09:04:17Z</time></trkpt><trkpt lat="44.75652124681455" lon="7.321679751834158"><ele>361.0</ele><time>2026-04-05T09:04:19Z</time></trkpt><trkpt lat="44.75660845371228" lon="7.321617105727856"><ele>361.0</ele><time>2026-04-05T09:04:21Z</time></trkpt><trkpt lat="44.7566949740649" lon="7.321542652248315"><ele>361.0</ele><time>2026-04-05T09:04:23Z</time></trkpt><trkpt lat="44.756776523085975" lon="7.321450646365531"><ele>361.0</ele><time>2026-04-05T09:04:25Z</time></trkpt><trkpt lat="44.75687807116112" lon="7.321424342049723"><ele>361.0</ele><time>2026-04-05T09:04:27Z</time></trkpt><trkpt lat="44.7569667583164" lon="7.321343251087766"><ele>361.0</ele><time>2026-04-05T09:04:29Z</time></trkpt><trkpt lat="44.75707294972385" lon="7.321304289455295"><ele>360.25</ele><time>2026-04-05T09:04:31Z</time></trkpt><trkpt lat="44.75716934612823" lon="7.321223438182141"><ele>359.5</ele><time>2026-04-05T09:04:33.001Z</time></trkpt><trkpt lat="44.75727404018703" lon="7.321159786768002"><ele>358.75</ele><time>2026-04-05T09:04:35.001Z</time></trkpt><trkpt lat="44.75738208521161" lon="7.3210995362998"><ele>358.0</ele><time>2026-04-05T09:04:37.001Z</time></trkpt><trkpt lat="44.757489237834974" lon="7.321037498268757"><ele>358.0</ele><time>2026-04-05T09:04:39.001Z</time></trkpt><trkpt lat="44.757594296237606" lon="7.32097602078158"><ele>358.0</ele><time>2026-04-05T09:04:41.001Z</time></trkpt><trkpt lat="44.757706772148374" lon="7.320935275793824"><ele>358.0</ele><time>2026-04-05T09:04:43.001Z</time></trkpt><trkpt lat="44.757804388335884" lon="7.320856376550426"><ele>358.0</ele><time>2026-04-05T09:04:45.001Z</time></trkpt><trkpt lat="44.757904998530236" lon="7.320795188415879"><ele>358.59999999999997</ele><time>2026-04-05T09:04:47.001Z</time></trkpt><trkpt lat="44.758007172653905" lon="7.320737406801461"><ele>359.2</ele><time>2026-04-05T09:04:49.001Z</time></trkpt><trkpt lat="44.75810684104271" lon="7.320677080652361"><ele>359.8</ele><time>2026-04-05T09:04:51.001Z</time></trkpt><trkpt lat="44.75820510846437" lon="7.320613127271254"><ele>360.4</ele><time>2026-04-05T09:04:53.001Z</time></trkpt><trkpt lat="44.75830126079145" lon="7.320554486011524"><ele>361.0</ele><time>2026-04-05T09:04:55.001Z</time></trkpt><trkpt lat="44.75839510410698" lon="7.320490173177015"><ele>361.0</ele><time>2026-04-05T09:04:57.001Z</time></trkpt><trkpt lat="44.75848738021044" lon="7.3204314125953545"><ele>361.0</ele><time>2026-04-05T09:04:59.001Z</time></trkpt><trkpt lat="44.758584101708" lon="7.320389538698555"><ele>361.0</ele><time>2026-04-05T09:05:01.001Z</time></trkpt><trkpt lat="44.75866443925567" lon="7.3203109003214255"><ele>361.0</ele><time>2026-04-05T09:05:03.001Z</time></trkpt><trkpt lat="44.75875373607032" lon="7.32026415121572"><ele>361.0</ele><time>2026-04-05T09:05:05.001Z</time></trkpt><trkpt lat="44.75881922702782" lon="7.320201660047233"><ele>361.16666666666663</ele><time>2026-04-05T09:05:07.001Z</time></trkpt><trkpt lat="44.758881527320106" lon="7.3201384469528525"><ele>361.3333333333333</ele><time>2026-04-05T09:05:10.001Z</time></trkpt><trkpt lat="44.75895007602446" lon="7.320068894722677"><ele>361.5</ele><time>2026-04-05T09:05:12.001Z</time></trkpt><trkpt lat="44.75891135613333" lon="7.319965308544465"><ele>361.6666666666667</ele><time>2026-04-05T09:05:14.001Z</time></trkpt><trkpt lat="44.75892013939054" lon="7.31985353660305"><ele>361.83333333333337</ele><time>2026-04-05T09:05:17.001Z</time></trkpt><trkpt lat="44.7589270033751" lon="7.3197304686220175"><ele>362.0</ele><time>2026-04-05T09:05:20.002Z</time></trkpt><trkpt lat="44.7592042493849" lon="7.319255117702967"><ele>362.0</ele><time>2026-04-05T09:05:22.002Z</time></trkpt><trkpt lat="44.75921468026063" lon="7.319144043563764"><ele>362.0</ele><time>2026-04-05T09:05:23.002Z</time></trkpt><trkpt lat="44.75929655310156" lon="7.319079844566237"><ele>362.0</ele><time>2026-04-05T09:05:25.002Z</time></trkpt><trkpt lat="44.759379641415386" lon="7.319014692493543"><ele>362.0</ele><time>2026-04-05T09:05:27.002Z</time></trkpt><trkpt lat="44.75946189105334" lon="7.318950198061611"><ele>362.0</ele><time>2026-04-05T09:05:29.002Z</time></trkpt><trkpt lat="44.75954486751904" lon="7.318885133670289"><ele>362.20000000000005</ele><time>2026-04-05T09:05:31.002Z</time></trkpt><trkpt lat="44.75962714761467" lon="7.318820615334783"><ele>362.4</ele><time>2026-04-05T09:05:33.002Z</time></trkpt><trkpt lat="44.759713700630115" lon="7.318752746477644"><ele>362.6</ele><time>2026-04-05T09:05:35.002Z</time></trkpt><trkpt lat="44.759799695683405" lon="7.318685315143661"><ele>362.79999999999995</ele><time>2026-04-05T09:05:37.002Z</time></trkpt><trkpt lat="44.75988536986649" lon="7.3186181354045265"><ele>363.0</ele><time>2026-04-05T09:05:39.002Z</time></trkpt><trkpt lat="44.75997119806641" lon="7.31855083489742"><ele>363.0</ele><time>2026-04-05T09:05:41Z</time></trkpt><trkpt lat="44.76005665068452" lon="7.318483828895594"><ele>363.0</ele><time>2026-04-05T09:05:43Z</time></trkpt><trkpt lat="44.760141408319356" lon="7.318417367831266"><ele>363.0</ele><time>2026-04-05T09:05:45Z</time></trkpt><trkpt lat="44.76022475296611" lon="7.318352014771714"><ele>363.0</ele><time>2026-04-05T09:05:47Z</time></trkpt><trkpt lat="44.76030779429401" lon="7.318285788653999"><ele>363.0</ele><time>2026-04-05T09:05:49Z</time></trkpt><trkpt lat="44.76038894852641" lon="7.318220121584059"><ele>363.0</ele><time>2026-04-05T09:05:51Z</time></trkpt><trkpt lat="44.760470048355444" lon="7.318152701611905"><ele>363.0</ele><time>2026-04-05T09:05:53Z</time></trkpt><trkpt lat="44.76055253683382" lon="7.318084127620272"><ele>363.0</ele><time>2026-04-05T09:05:55Z</time></trkpt><trkpt lat="44.760635809835975" lon="7.318014901439432"><ele>363.0</ele><time>2026-04-05T09:05:57Z</time></trkpt><trkpt lat="44.760725028454836" lon="7.31795357854288"><ele>363.0</ele><time>2026-04-05T09:05:59Z</time></trkpt><trkpt lat="44.7607988530825" lon="7.31786066320949"><ele>363.0</ele><time>2026-04-05T09:06:01Z</time></trkpt><trkpt lat="44.76087341205103" lon="7.317770172118503"><ele>363.0</ele><time>2026-04-05T09:06:03Z</time></trkpt><trkpt lat="44.76094554185904" lon="7.3176782607556925"><ele>363.0</ele><time>2026-04-05T09:06:05Z</time></trkpt><trkpt lat="44.76101689182228" lon="7.31758746693976"><ele>363.0</ele><time>2026-04-05T09:06:07Z</time></trkpt><trkpt lat="44.761087565543285" lon="7.317494619961237"><ele>363.0</ele><time>2026-04-05T09:06:09Z</time></trkpt><trkpt lat="44.76115836584456" lon="7.317403668318683"><ele>363.0</ele><time>2026-04-05T09:06:11Z</time></trkpt><trkpt lat="44.76123141517852" lon="7.317316038969068"><ele>363.0</ele><time>2026-04-05T09:06:13Z</time></trkpt><trkpt lat="44.7613034940416" lon="7.317221573614156"><ele>363.0</ele><time>2026-04-05T09:06:15Z</time></trkpt><trkpt lat="44.761379142661966" lon="7.317131073576102"><ele>363.0</ele><time>2026-04-05T09:06:17Z</time></trkpt><trkpt lat="44.761454716168274" lon="7.317040186419814"><ele>363.0</ele><time>2026-04-05T09:06:19Z</time></trkpt><trkpt lat="44.76152986052844" lon="7.316947788767214"><ele>363.0</ele><time>2026-04-05T09:06:21Z</time></trkpt><trkpt lat="44.76160689244039" lon="7.316855902188301"><ele>363.0</ele><time>2026-04-05T09:06:23Z</time></trkpt><trkpt lat="44.76168469364619" lon="7.316762331406955"><ele>363.0</ele><time>2026-04-05T09:06:25Z</time></trkpt><trkpt lat="44.76175946095298" lon="7.316663627342196"><ele>363.0</ele><time>2026-04-05T09:06:27Z</time></trkpt><trkpt lat="44.761836781035015" lon="7.316569481858064"><ele>363.0</ele><time>2026-04-05T09:06:29Z</time></trkpt><trkpt lat="44.761915665327585" lon="7.316477494397791"><ele>362.8333333333333</ele><time>2026-04-05T09:06:31.001Z</time></trkpt><trkpt lat="44.761993003324804" lon="7.316387569281049"><ele>362.6666666666667</ele><time>2026-04-05T09:06:33.001Z</time></trkpt><trkpt lat="44.7620665349697" lon="7.316300346062751"><ele>362.5</ele><time>2026-04-05T09:06:35.001Z</time></trkpt><trkpt lat="44.762136776977" lon="7.316216932641317"><ele>362.33333333333337</ele><time>2026-04-05T09:06:37.001Z</time></trkpt><trkpt lat="44.76220299194957" lon="7.316137722547097"><ele>362.1666666666667</ele><time>2026-04-05T09:06:39.001Z</time></trkpt><trkpt lat="44.762258838174084" lon="7.316069540451874"><ele>362.0</ele><time>2026-04-05T09:06:41.001Z</time></trkpt><trkpt lat="44.76231586531679" lon="7.31599616253977"><ele>362.0</ele><time>2026-04-05T09:06:44.001Z</time></trkpt><trkpt lat="44.762374765183594" lon="7.3159366473549445"><ele>362.0</ele><time>2026-04-05T09:06:46.001Z</time></trkpt><trkpt lat="44.762426010902175" lon="7.31586342708511"><ele>362.0</ele><time>2026-04-05T09:06:48.001Z</time></trkpt><trkpt lat="44.762487117312666" lon="7.315782990068244"><ele>362.0</ele><time>2026-04-05T09:06:50.001Z</time></trkpt><trkpt lat="44.76255708637809" lon="7.31570596774292"><ele>362.0</ele><time>2026-04-05T09:06:52.001Z</time></trkpt><trkpt lat="44.76263038907221" lon="7.315622385587611"><ele>362.0</ele><time>2026-04-05T09:06:54.001Z</time></trkpt><trkpt lat="44.762701795751525" lon="7.31553465508106"><ele>361.8</ele><time>2026-04-05T09:06:56.001Z</time></trkpt><trkpt lat="44.76277498577379" lon="7.3154460256493445"><ele>361.6</ele><time>2026-04-05T09:06:58.001Z</time></trkpt><trkpt lat="44.762850461704026" lon="7.315357267191256"><ele>361.40000000000003</ele><time>2026-04-05T09:07:00.001Z</time></trkpt><trkpt lat="44.762924322046466" lon="7.315267097695887"><ele>361.20000000000005</ele><time>2026-04-05T09:07:02.001Z</time></trkpt><trkpt lat="44.76299924264049" lon="7.3151799221904525"><ele>361.0</ele><time>2026-04-05T09:07:04.001Z</time></trkpt><trkpt lat="44.76307520415748" lon="7.315091060991821"><ele>361.0</ele><time>2026-04-05T09:07:06.001Z</time></trkpt><trkpt lat="44.762993809537" lon="7.314910302937654"><ele>361.0</ele><time>2026-04-05T09:07:07.001Z</time></trkpt><trkpt lat="44.763028226872265" lon="7.314818359560043"><ele>361.0</ele><time>2026-04-05T09:07:09.001Z</time></trkpt><trkpt lat="44.76307899374991" lon="7.3147247442092445"><ele>361.0</ele><time>2026-04-05T09:07:10.001Z</time></trkpt><trkpt lat="44.76315282067142" lon="7.314620930329573"><ele>361.0</ele><time>2026-04-05T09:07:12.001Z</time></trkpt><trkpt lat="44.76322743362672" lon="7.3145236642452085"><ele>361.20000000000005</ele><time>2026-04-05T09:07:14.001Z</time></trkpt><trkpt lat="44.76330558205809" lon="7.314426107485069"><ele>361.40000000000003</ele><time>2026-04-05T09:07:16.002Z</time></trkpt><trkpt lat="44.76337940480862" lon="7.314337108496462"><ele>361.6</ele><time>2026-04-05T09:07:18.002Z</time></trkpt><trkpt lat="44.763453737411965" lon="7.314247494769577"><ele>361.8</ele><time>2026-04-05T09:07:20.002Z</time></trkpt><trkpt lat="44.76352734808841" lon="7.314158751407202"><ele>362.0</ele><time>2026-04-05T09:07:22.002Z</time></trkpt><trkpt lat="44.763600977053926" lon="7.314069986124617"><ele>361.6</ele><time>2026-04-05T09:07:24.002Z</time></trkpt><trkpt lat="44.763660457609596" lon="7.31399376047613"><ele>361.20000000000005</ele><time>2026-04-05T09:07:26.002Z</time></trkpt><trkpt lat="44.7637196768029" lon="7.313907231419695"><ele>360.8</ele><time>2026-04-05T09:07:28.002Z</time></trkpt><trkpt lat="44.76388290160266" lon="7.313892890762478"><ele>360.4</ele><time>2026-04-05T09:07:30.002Z</time></trkpt><trkpt lat="44.76396445366747" lon="7.313810723078647"><ele>360.0</ele><time>2026-04-05T09:07:32.002Z</time></trkpt><trkpt lat="44.76404318754841" lon="7.313724202967969"><ele>360.0</ele><time>2026-04-05T09:07:34.002Z</time></trkpt><trkpt lat="44.76412221140778" lon="7.313630651502845"><ele>360.0</ele><time>2026-04-05T09:07:36.002Z</time></trkpt><trkpt lat="44.764210123696095" lon="7.313534408480713"><ele>360.0</ele><time>2026-04-05T09:07:38.002Z</time></trkpt><trkpt lat="44.76427820566987" lon="7.313458186301231"><ele>360.0</ele><time>2026-04-05T09:07:40.002Z</time></trkpt><trkpt lat="44.764326403165974" lon="7.313361063142943"><ele>360.0</ele><time>2026-04-05T09:07:42.002Z</time></trkpt><trkpt lat="44.76438361579075" lon="7.313246648058712"><ele>359.5</ele><time>2026-04-05T09:07:44.002Z</time></trkpt><trkpt lat="44.764568007442506" lon="7.31326193088622"><ele>359.0</ele><time>2026-04-05T09:07:46.002Z</time></trkpt><trkpt lat="44.76464265442877" lon="7.313167213909896"><ele>358.5</ele><time>2026-04-05T09:07:48Z</time></trkpt><trkpt lat="44.76471677646436" lon="7.313075881017111"><ele>358.0</ele><time>2026-04-05T09:07:50Z</time></trkpt><trkpt lat="44.764789432945534" lon="7.312989943616832"><ele>358.0</ele><time>2026-04-05T09:07:52Z</time></trkpt><trkpt lat="44.76485867717014" lon="7.31289985789307"><ele>358.0</ele><time>2026-04-05T09:07:54Z</time></trkpt><trkpt lat="44.76492956034042" lon="7.312811443039458"><ele>358.0</ele><time>2026-04-05T09:07:56Z</time></trkpt><trkpt lat="44.76499949212207" lon="7.3127223858124415"><ele>358.0</ele><time>2026-04-05T09:07:58Z</time></trkpt><trkpt lat="44.76506689543301" lon="7.31263062680946"><ele>358.0</ele><time>2026-04-05T09:08:00Z</time></trkpt><trkpt lat="44.76513398298061" lon="7.312544203864097"><ele>358.0</ele><time>2026-04-05T09:08:02Z</time></trkpt><trkpt lat="44.76520251760211" lon="7.312459018552161"><ele>358.0</ele><time>2026-04-05T09:08:04Z</time></trkpt><trkpt lat="44.76527166776116" lon="7.312373425298617"><ele>358.0</ele><time>2026-04-05T09:08:06Z</time></trkpt><trkpt lat="44.76534475800863" lon="7.312293364532424"><ele>358.0</ele><time>2026-04-05T09:08:08Z</time></trkpt><trkpt lat="44.76541787181301" lon="7.312213979561555"><ele>358.0</ele><time>2026-04-05T09:08:10Z</time></trkpt><trkpt lat="44.765495180619006" lon="7.312140508894829"><ele>358.0</ele><time>2026-04-05T09:08:12Z</time></trkpt><trkpt lat="44.765573452384885" lon="7.312068516085011"><ele>358.0</ele><time>2026-04-05T09:08:14Z</time></trkpt><trkpt lat="44.76565306918943" lon="7.311997232239344"><ele>358.0</ele><time>2026-04-05T09:08:16Z</time></trkpt><trkpt lat="44.7657315856734" lon="7.311925630038256"><ele>358.0</ele><time>2026-04-05T09:08:18Z</time></trkpt><trkpt lat="44.76580969904869" lon="7.311862718305366"><ele>358.0</ele><time>2026-04-05T09:08:20Z</time></trkpt><trkpt lat="44.76589340348387" lon="7.3117988198213055"><ele>358.0</ele><time>2026-04-05T09:08:22Z</time></trkpt><trkpt lat="44.76597793059237" lon="7.31173636941237"><ele>358.0</ele><time>2026-04-05T09:08:24Z</time></trkpt><trkpt lat="44.766065006068956" lon="7.3116794822701445"><ele>358.0</ele><time>2026-04-05T09:08:26Z</time></trkpt><trkpt lat="44.76615325205415" lon="7.311623641561929"><ele>358.0</ele><time>2026-04-05T09:08:28Z</time></trkpt><trkpt lat="44.76621060371523" lon="7.311466698409158"><ele>358.0</ele><time>2026-04-05T09:08:30.001Z</time></trkpt><trkpt lat="44.76630118558715" lon="7.311412984355357"><ele>357.79999999999995</ele><time>2026-04-05T09:08:32.001Z</time></trkpt><trkpt lat="44.7663903126931" lon="7.311364345179991"><ele>357.6</ele><time>2026-04-05T09:08:34.001Z</time></trkpt><trkpt lat="44.76647989638061" lon="7.311315456773351"><ele>357.4</ele><time>2026-04-05T09:08:36.001Z</time></trkpt><trkpt lat="44.76656934190599" lon="7.311266644882012"><ele>357.20000000000005</ele><time>2026-04-05T09:08:38.001Z</time></trkpt><trkpt lat="44.766658783960935" lon="7.31121783513274"><ele>357.0</ele><time>2026-04-05T09:08:40.001Z</time></trkpt><trkpt lat="44.76679581982363" lon="7.3113370496506285"><ele>356.8</ele><time>2026-04-05T09:08:42.001Z</time></trkpt><trkpt lat="44.76688965264294" lon="7.3113063782875445"><ele>356.6</ele><time>2026-04-05T09:08:44.001Z</time></trkpt><trkpt lat="44.766985406595815" lon="7.311279793908028"><ele>356.40000000000003</ele><time>2026-04-05T09:08:46.001Z</time></trkpt><trkpt lat="44.76707976978034" lon="7.311261038964219"><ele>356.20000000000005</ele><time>2026-04-05T09:08:48.001Z</time></trkpt><trkpt lat="44.76717536913389" lon="7.311247611443116"><ele>356.0</ele><time>2026-04-05T09:08:50.001Z</time></trkpt><trkpt lat="44.76727152237181" lon="7.311234812972416"><ele>356.0</ele><time>2026-04-05T09:08:52.001Z</time></trkpt><trkpt lat="44.76737154618627" lon="7.3112215256589215"><ele>356.0</ele><time>2026-04-05T09:08:54.001Z</time></trkpt><trkpt lat="44.767468645312725" lon="7.311208547035437"><ele>356.0</ele><time>2026-04-05T09:08:56.001Z</time></trkpt><trkpt lat="44.76756392344515" lon="7.311193162357931"><ele>356.0</ele><time>2026-04-05T09:08:58.001Z</time></trkpt><trkpt lat="44.76765776549741" lon="7.311179631579318"><ele>356.0</ele><time>2026-04-05T09:09:00.001Z</time></trkpt><trkpt lat="44.76775041114322" lon="7.311170170890955"><ele>356.6</ele><time>2026-04-05T09:09:02.001Z</time></trkpt><trkpt lat="44.76783800883835" lon="7.311164337361598"><ele>357.20000000000005</ele><time>2026-04-05T09:09:04.001Z</time></trkpt><trkpt lat="44.76793362216177" lon="7.3111445794233285"><ele>357.79999999999995</ele><time>2026-04-05T09:09:06.001Z</time></trkpt><trkpt lat="44.768024489173314" lon="7.3111312597383495"><ele>358.4</ele><time>2026-04-05T09:09:08.001Z</time></trkpt><trkpt lat="44.76811519708521" lon="7.3111203152468915"><ele>359.0</ele><time>2026-04-05T09:09:10.001Z</time></trkpt><trkpt lat="44.76820504873814" lon="7.31110835384767"><ele>359.0</ele><time>2026-04-05T09:09:12.001Z</time></trkpt><trkpt lat="44.76829791935527" lon="7.311094919345349"><ele>359.0</ele><time>2026-04-05T09:09:14.001Z</time></trkpt><trkpt lat="44.76839116177038" lon="7.311085068971829"><ele>359.0</ele><time>2026-04-05T09:09:16.002Z</time></trkpt><trkpt lat="44.768483026723764" lon="7.311070161893796"><ele>359.0</ele><time>2026-04-05T09:09:18.002Z</time></trkpt><trkpt lat="44.76849790502417" lon="7.3108599520744235"><ele>359.0</ele><time>2026-04-05T09:09:19.002Z</time></trkpt><trkpt lat="44.76861642790519" lon="7.3107823669903675"><ele>359.0</ele><time>2026-04-05T09:09:21.002Z</time></trkpt><trkpt lat="44.7687113107186" lon="7.310754022510316"><ele>359.0</ele><time>2026-04-05T09:09:24.002Z</time></trkpt><trkpt lat="44.76881499987393" lon="7.310722301292528"><ele>359.0</ele><time>2026-04-05T09:09:26.002Z</time></trkpt><trkpt lat="44.768898377630585" lon="7.310697967573541"><ele>359.0</ele><time>2026-04-05T09:09:28.002Z</time></trkpt><trkpt lat="44.768984808914574" lon="7.310669212804734"><ele>359.0</ele><time>2026-04-05T09:09:30.002Z</time></trkpt><trkpt lat="44.769074596352304" lon="7.310638789005114"><ele>359.0</ele><time>2026-04-05T09:09:32.002Z</time></trkpt><trkpt lat="44.769166104921396" lon="7.310607781455245"><ele>359.0</ele><time>2026-04-05T09:09:34.002Z</time></trkpt><trkpt lat="44.76925990333813" lon="7.3105759967223305"><ele>359.0</ele><time>2026-04-05T09:09:36.002Z</time></trkpt><trkpt lat="44.76935287596208" lon="7.310544491818071"><ele>359.0</ele><time>2026-04-05T09:09:38.002Z</time></trkpt><trkpt lat="44.76946944321432" lon="7.3109354607039005"><ele>359.79999999999995</ele><time>2026-04-05T09:09:39.002Z</time></trkpt><trkpt lat="44.76956698956048" lon="7.310925311936054"><ele>360.59999999999997</ele><time>2026-04-05T09:09:41.002Z</time></trkpt><trkpt lat="44.769663016676326" lon="7.310912671889795"><ele>361.4</ele><time>2026-04-05T09:09:43.002Z</time></trkpt><trkpt lat="44.769756798665824" lon="7.310902008600638"><ele>362.2</ele><time>2026-04-05T09:09:45.002Z</time></trkpt><trkpt lat="44.76985116741401" lon="7.310888313976691"><ele>363.0</ele><time>2026-04-05T09:09:47.002Z</time></trkpt><trkpt lat="44.76994512897036" lon="7.310873736046484"><ele>363.0</ele><time>2026-04-05T09:09:49.002Z</time></trkpt><trkpt lat="44.77003769685076" lon="7.310864476048406"><ele>363.0</ele><time>2026-04-05T09:09:51.002Z</time></trkpt><trkpt lat="44.77012235471919" lon="7.310855830355659"><ele>363.0</ele><time>2026-04-05T09:09:53Z</time></trkpt><trkpt lat="44.77020229786829" lon="7.310838891257742"><ele>363.0</ele><time>2026-04-05T09:09:56Z</time></trkpt><trkpt lat="44.77028311576046" lon="7.310834736385285"><ele>363.0</ele><time>2026-04-05T09:09:58Z</time></trkpt><trkpt lat="44.770378344012315" lon="7.3108180263885085"><ele>363.0</ele><time>2026-04-05T09:10:00Z</time></trkpt><trkpt lat="44.77048059006995" lon="7.310809352430145"><ele>362.79999999999995</ele><time>2026-04-05T09:10:02Z</time></trkpt><trkpt lat="44.77058046980934" lon="7.310793544490167"><ele>362.6</ele><time>2026-04-05T09:10:04Z</time></trkpt><trkpt lat="44.77068329474206" lon="7.310779384295503"><ele>362.4</ele><time>2026-04-05T09:10:06Z</time></trkpt><trkpt lat="44.77078428341901" lon="7.3107594013590855"><ele>362.20000000000005</ele><time>2026-04-05T09:10:08Z</time></trkpt><trkpt lat="44.77085563369742" lon="7.310618386671753"><ele>362.0</ele><time>2026-04-05T09:10:10Z</time></trkpt><trkpt lat="44.77094927256237" lon="7.310577754040935"><ele>361.25</ele><time>2026-04-05T09:10:12Z</time></trkpt><trkpt lat="44.77104220142255" lon="7.31053742950273"><ele>360.5</ele><time>2026-04-05T09:10:14Z</time></trkpt><trkpt lat="44.77118100745217" lon="7.310709463589645"><ele>359.75</ele><time>2026-04-05T09:10:16Z</time></trkpt><trkpt lat="44.77128232814736" lon="7.310696673155863"><ele>359.0</ele><time>2026-04-05T09:10:18Z</time></trkpt><trkpt lat="44.771379853281566" lon="7.310681722265262"><ele>359.0</ele><time>2026-04-05T09:10:20Z</time></trkpt><trkpt lat="44.77147771095179" lon="7.310668269706684"><ele>359.0</ele><time>2026-04-05T09:10:22Z</time></trkpt><trkpt lat="44.77157583871851" lon="7.310653926574938"><ele>359.0</ele><time>2026-04-05T09:10:24Z</time></trkpt><trkpt lat="44.77167313027556" lon="7.310640279546105"><ele>359.0</ele><time>2026-04-05T09:10:26Z</time></trkpt><trkpt lat="44.77176887823089" lon="7.310628865547529"><ele>359.0</ele><time>2026-04-05T09:10:28Z</time></trkpt><trkpt lat="44.77186719301611" lon="7.310614624808238"><ele>359.0</ele><time>2026-04-05T09:10:30Z</time></trkpt><trkpt lat="44.77196606490097" lon="7.3106004189216645"><ele>359.0</ele><time>2026-04-05T09:10:32.001Z</time></trkpt><trkpt lat="44.772066854625926" lon="7.310585769448042"><ele>359.0</ele><time>2026-04-05T09:10:34.001Z</time></trkpt><trkpt lat="44.772169572447304" lon="7.31057567615602"><ele>359.0</ele><time>2026-04-05T09:10:36.001Z</time></trkpt><trkpt lat="44.77227169120172" lon="7.310562279409158"><ele>359.0</ele><time>2026-04-05T09:10:38.001Z</time></trkpt><trkpt lat="44.77237346983434" lon="7.310546187181696"><ele>359.0</ele><time>2026-04-05T09:10:40.001Z</time></trkpt><trkpt lat="44.772473127707634" lon="7.3105331206769995"><ele>359.0</ele><time>2026-04-05T09:10:42.001Z</time></trkpt><trkpt lat="44.77257204364899" lon="7.310520476390061"><ele>359.0</ele><time>2026-04-05T09:10:44.001Z</time></trkpt><trkpt lat="44.77266940348229" lon="7.310503848350402"><ele>359.0</ele><time>2026-04-05T09:10:46.001Z</time></trkpt><trkpt lat="44.77276632699082" lon="7.310493919501314"><ele>359.0</ele><time>2026-04-05T09:10:48.001Z</time></trkpt><trkpt lat="44.772867829653826" lon="7.310478998979053"><ele>359.1666666666667</ele><time>2026-04-05T09:10:50.001Z</time></trkpt><trkpt lat="44.772965741080625" lon="7.310466647313559"><ele>359.33333333333337</ele><time>2026-04-05T09:10:52.001Z</time></trkpt><trkpt lat="44.773065760961906" lon="7.3104513336294525"><ele>359.5</ele><time>2026-04-05T09:10:54.001Z</time></trkpt><trkpt lat="44.773161526218026" lon="7.310435948012626"><ele>359.6666666666667</ele><time>2026-04-05T09:10:56.001Z</time></trkpt><trkpt lat="44.77324135736823" lon="7.310427720543486"><ele>359.8333333333333</ele><time>2026-04-05T09:10:58.001Z</time></trkpt><trkpt lat="44.77331381006798" lon="7.310416663119868"><ele>360.0</ele><time>2026-04-05T09:11:00.001Z</time></trkpt><trkpt lat="44.773380035005694" lon="7.310393431272397"><ele>360.0</ele><time>2026-04-05T09:11:02.001Z</time></trkpt><trkpt lat="44.773474934759726" lon="7.310386207460181"><ele>360.0</ele><time>2026-04-05T09:11:05.001Z</time></trkpt><trkpt lat="44.77356561919742" lon="7.310389364727889"><ele>360.0</ele><time>2026-04-05T09:11:07.001Z</time></trkpt><trkpt lat="44.773686757729834" lon="7.310370583767494"><ele>360.0</ele><time>2026-04-05T09:11:09.001Z</time></trkpt><trkpt lat="44.77375704205088" lon="7.31036082362107"><ele>360.0</ele><time>2026-04-05T09:11:10.001Z</time></trkpt><trkpt lat="44.773822779942144" lon="7.310354814799989"><ele>360.0</ele><time>2026-04-05T09:11:11.001Z</time></trkpt><trkpt lat="44.773888766460765" lon="7.3103465040294795"><ele>359.8333333333333</ele><time>2026-04-05T09:11:12.001Z</time></trkpt><trkpt lat="44.773952328445084" lon="7.310337384660362"><ele>359.6666666666667</ele><time>2026-04-05T09:11:13.001Z</time></trkpt><trkpt lat="44.77401654708736" lon="7.310327457509369"><ele>359.5</ele><time>2026-04-05T09:11:14.001Z</time></trkpt><trkpt lat="44.77408045611951" lon="7.310317786828843"><ele>359.33333333333337</ele><time>2026-04-05T09:11:15.001Z</time></trkpt><trkpt lat="44.77420355861392" lon="7.310299215778625"><ele>359.1666666666667</ele><time>2026-04-05T09:11:17.001Z</time></trkpt><trkpt lat="44.77432559169867" lon="7.310281102974805"><ele>359.0</ele><time>2026-04-05T09:11:19.002Z</time></trkpt><trkpt lat="44.77444638794204" lon="7.3102671018473675"><ele>359.0</ele><time>2026-04-05T09:11:21.002Z</time></trkpt><trkpt lat="44.77456607013573" lon="7.310246340233439"><ele>359.0</ele><time>2026-04-05T09:11:23.002Z</time></trkpt><trkpt lat="44.77468185064606" lon="7.310232818702292"><ele>359.0</ele><time>2026-04-05T09:11:25.002Z</time></trkpt><trkpt lat="44.77479061370793" lon="7.3102183676614665"><ele>359.0</ele><time>2026-04-05T09:11:27.002Z</time></trkpt><trkpt lat="44.77489812836846" lon="7.310204340015803"><ele>359.0</ele><time>2026-04-05T09:11:29.002Z</time></trkpt><trkpt lat="44.775006033910046" lon="7.310192140298027"><ele>359.0</ele><time>2026-04-05T09:11:31.002Z</time></trkpt><trkpt lat="44.77510708835951" lon="7.310180600779684"><ele>359.0</ele><time>2026-04-05T09:11:33.002Z</time></trkpt><trkpt lat="44.77518924420899" lon="7.310165147981309"><ele>359.0</ele><time>2026-04-05T09:11:35.002Z</time></trkpt><trkpt lat="44.77526119887168" lon="7.3101470586330475"><ele>359.0</ele><time>2026-04-05T09:11:37.002Z</time></trkpt><trkpt lat="44.775342140047464" lon="7.3101381114601915"><ele>359.0</ele><time>2026-04-05T09:11:39.002Z</time></trkpt><trkpt lat="44.77544600187407" lon="7.310126554133117"><ele>359.25</ele><time>2026-04-05T09:11:41.002Z</time></trkpt><trkpt lat="44.7755657065149" lon="7.310114733021341"><ele>359.5</ele><time>2026-04-05T09:11:43.002Z</time></trkpt><trkpt lat="44.77568320426664" lon="7.310098677944791"><ele>359.75</ele><time>2026-04-05T09:11:45.002Z</time></trkpt><trkpt lat="44.77579673926406" lon="7.310081188423652"><ele>360.0</ele><time>2026-04-05T09:11:47.002Z</time></trkpt><trkpt lat="44.77590678263299" lon="7.310066123615345"><ele>360.0</ele><time>2026-04-05T09:11:49.002Z</time></trkpt><trkpt lat="44.7760151711371" lon="7.310049381977195"><ele>360.0</ele><time>2026-04-05T09:11:51.002Z</time></trkpt><trkpt lat="44.776119899077784" lon="7.310035863081459"><ele>360.0</ele><time>2026-04-05T09:11:53.002Z</time></trkpt><trkpt lat="44.77622208688962" lon="7.310024528371022"><ele>360.0</ele><time>2026-04-05T09:11:55.002Z</time></trkpt><trkpt lat="44.77632115004658" lon="7.310013900885311"><ele>360.0</ele><time>2026-04-05T09:11:57.002Z</time></trkpt><trkpt lat="44.77641483278054" lon="7.309998271513141"><ele>360.2</ele><time>2026-04-05T09:11:59Z</time></trkpt><trkpt lat="44.77650544501313" lon="7.309983938337413"><ele>360.4</ele><time>2026-04-05T09:12:01Z</time></trkpt><trkpt lat="44.7765969534677" lon="7.30997562511223"><ele>360.6</ele><time>2026-04-05T09:12:03Z</time></trkpt><trkpt lat="44.776687340852604" lon="7.3099634563332065"><ele>360.8</ele><time>2026-04-05T09:12:05Z</time></trkpt><trkpt lat="44.776778938593196" lon="7.309951490133232"><ele>361.0</ele><time>2026-04-05T09:12:07Z</time></trkpt><trkpt lat="44.776874381053474" lon="7.30994101536354"><ele>360.6</ele><time>2026-04-05T09:12:09Z</time></trkpt><trkpt lat="44.776967032222075" lon="7.309928578766855"><ele>360.20000000000005</ele><time>2026-04-05T09:12:11Z</time></trkpt><trkpt lat="44.7770601927133" lon="7.309916333284429"><ele>359.79999999999995</ele><time>2026-04-05T09:12:13Z</time></trkpt><trkpt lat="44.77715429261771" lon="7.309902603142543"><ele>359.4</ele><time>2026-04-05T09:12:15Z</time></trkpt><trkpt lat="44.77724860776379" lon="7.309891324242231"><ele>359.0</ele><time>2026-04-05T09:12:17Z</time></trkpt><trkpt lat="44.777346009057176" lon="7.309876150735109"><ele>359.0</ele><time>2026-04-05T09:12:19Z</time></trkpt><trkpt lat="44.77744244433676" lon="7.309860809397432"><ele>359.0</ele><time>2026-04-05T09:12:21Z</time></trkpt><trkpt lat="44.77753676986185" lon="7.3098472964667085"><ele>359.0</ele><time>2026-04-05T09:12:23Z</time></trkpt><trkpt lat="44.77763109770756" lon="7.309837577657606"><ele>359.0</ele><time>2026-04-05T09:12:25Z</time></trkpt><trkpt lat="44.77772283585325" lon="7.309826593326653"><ele>359.0</ele><time>2026-04-05T09:12:27Z</time></trkpt><trkpt lat="44.77781317450169" lon="7.309814829906852"><ele>359.0</ele><time>2026-04-05T09:12:29Z</time></trkpt><trkpt lat="44.77790280428993" lon="7.309803194981262"><ele>359.0</ele><time>2026-04-05T09:12:31Z</time></trkpt><trkpt lat="44.777992367204234" lon="7.3097996001904635"><ele>359.0</ele><time>2026-04-05T09:12:33Z</time></trkpt><trkpt lat="44.778081915462195" lon="7.309796153179906"><ele>359.0</ele><time>2026-04-05T09:12:35Z</time></trkpt><trkpt lat="44.778170118332504" lon="7.309795808681328"><ele>359.0</ele><time>2026-04-05T09:12:37Z</time></trkpt><trkpt lat="44.778257388511705" lon="7.309794741115946"><ele>359.0</ele><time>2026-04-05T09:12:39Z</time></trkpt><trkpt lat="44.77834066474706" lon="7.3097973910528244"><ele>359.0</ele><time>2026-04-05T09:12:41Z</time></trkpt><trkpt lat="44.778424428482545" lon="7.309801895041365"><ele>359.0</ele><time>2026-04-05T09:12:43.001Z</time></trkpt><trkpt lat="44.77851148527454" lon="7.309812169502278"><ele>359.0</ele><time>2026-04-05T09:12:45.001Z</time></trkpt><trkpt lat="44.778599156638" lon="7.309824219276473"><ele>359.0</ele><time>2026-04-05T09:12:47.001Z</time></trkpt><trkpt lat="44.77868715443117" lon="7.309835484944171"><ele>359.0</ele><time>2026-04-05T09:12:49.001Z</time></trkpt><trkpt lat="44.77877581004821" lon="7.309845983159396"><ele>359.0</ele><time>2026-04-05T09:12:51.001Z</time></trkpt><trkpt lat="44.778861872555034" lon="7.309863274119533"><ele>359.1666666666667</ele><time>2026-04-05T09:12:53.001Z</time></trkpt><trkpt lat="44.778945484345414" lon="7.309883323318634"><ele>359.33333333333337</ele><time>2026-04-05T09:12:55.001Z</time></trkpt><trkpt lat="44.77902755841134" lon="7.309907299964706"><ele>359.5</ele><time>2026-04-05T09:12:57.001Z</time></trkpt><trkpt lat="44.77911123448523" lon="7.3099368192300025"><ele>359.6666666666667</ele><time>2026-04-05T09:12:59.001Z</time></trkpt><trkpt lat="44.77919315000929" lon="7.309963798772023"><ele>359.8333333333333</ele><time>2026-04-05T09:13:01.001Z</time></trkpt><trkpt lat="44.77927200353677" lon="7.3099921194605875"><ele>360.0</ele><time>2026-04-05T09:13:03.001Z</time></trkpt><trkpt lat="44.779346344667886" lon="7.310018468980733"><ele>360.0</ele><time>2026-04-05T09:13:05.001Z</time></trkpt><trkpt lat="44.77941321226746" lon="7.310044337236147"><ele>360.0</ele><time>2026-04-05T09:13:07.001Z</time></trkpt><trkpt lat="44.77947312825146" lon="7.310071824875221"><ele>360.0</ele><time>2026-04-05T09:13:09.001Z</time></trkpt><trkpt lat="44.7795681703776" lon="7.31011347749628"><ele>360.0</ele><time>2026-04-05T09:13:12.001Z</time></trkpt><trkpt lat="44.7796523787632" lon="7.310131211544679"><ele>360.0</ele><time>2026-04-05T09:13:14.001Z</time></trkpt><trkpt lat="44.779736206219525" lon="7.310201372993015"><ele>360.0</ele><time>2026-04-05T09:13:16.001Z</time></trkpt><trkpt lat="44.77983572927961" lon="7.310252792644566"><ele>360.0</ele><time>2026-04-05T09:13:18.001Z</time></trkpt><trkpt lat="44.779933183478846" lon="7.310308340693844"><ele>360.0</ele><time>2026-04-05T09:13:20.001Z</time></trkpt><trkpt lat="44.78002347121652" lon="7.31036472968369"><ele>360.0</ele><time>2026-04-05T09:13:22.001Z</time></trkpt><trkpt lat="44.78011591184531" lon="7.31042574521436"><ele>360.0</ele><time>2026-04-05T09:13:24.001Z</time></trkpt><trkpt lat="44.7802024796877" lon="7.310485319398168"><ele>360.0</ele><time>2026-04-05T09:13:26.001Z</time></trkpt><trkpt lat="44.78029215228559" lon="7.31054436896668"><ele>360.6</ele><time>2026-04-05T09:13:28.001Z</time></trkpt><trkpt lat="44.78038186636406" lon="7.310603269208062"><ele>361.2</ele><time>2026-04-05T09:13:30.002Z</time></trkpt><trkpt lat="44.780471277080096" lon="7.310662842758013"><ele>361.79999999999995</ele><time>2026-04-05T09:13:32.002Z</time></trkpt><trkpt lat="44.780557374639265" lon="7.31072650579553"><ele>362.4</ele><time>2026-04-05T09:13:34.002Z</time></trkpt><trkpt lat="44.78064353509396" lon="7.310785004068631"><ele>363.0</ele><time>2026-04-05T09:13:36.002Z</time></trkpt><trkpt lat="44.78072822033116" lon="7.310839723227524"><ele>363.0</ele><time>2026-04-05T09:13:38.002Z</time></trkpt><trkpt lat="44.78081349924871" lon="7.310895465769155"><ele>363.0</ele><time>2026-04-05T09:13:40.002Z</time></trkpt><trkpt lat="44.78089582443998" lon="7.310955174493454"><ele>363.0</ele><time>2026-04-05T09:13:42.002Z</time></trkpt><trkpt lat="44.78097995054765" lon="7.311011424531883"><ele>363.0</ele><time>2026-04-05T09:13:44.002Z</time></trkpt><trkpt lat="44.781065589552334" lon="7.311067074171828"><ele>363.0</ele><time>2026-04-05T09:13:46.002Z</time></trkpt><trkpt lat="44.781148876611" lon="7.311122233397736"><ele>363.1666666666667</ele><time>2026-04-05T09:13:48.002Z</time></trkpt><trkpt lat="44.78123117860383" lon="7.31117713986179"><ele>363.3333333333333</ele><time>2026-04-05T09:13:50.002Z</time></trkpt><trkpt lat="44.78131308166956" lon="7.311227582477707"><ele>363.5</ele><time>2026-04-05T09:13:52.002Z</time></trkpt><trkpt lat="44.78139511913243" lon="7.311279879071446"><ele>363.66666666666663</ele><time>2026-04-05T09:13:54.002Z</time></trkpt><trkpt lat="44.78147428745868" lon="7.3113338499056075"><ele>363.8333333333333</ele><time>2026-04-05T09:13:56.002Z</time></trkpt><trkpt lat="44.781552927924395" lon="7.311386300173159"><ele>364.0</ele><time>2026-04-05T09:13:58.002Z</time></trkpt><trkpt lat="44.78163231737663" lon="7.311438164706618"><ele>364.0</ele><time>2026-04-05T09:14:00.002Z</time></trkpt><trkpt lat="44.781711769113066" lon="7.311491767994878"><ele>364.0</ele><time>2026-04-05T09:14:02.002Z</time></trkpt><trkpt lat="44.7817899370992" lon="7.311546587229018"><ele>364.0</ele><time>2026-04-05T09:14:04.002Z</time></trkpt><trkpt lat="44.781871337051484" lon="7.311597956208455"><ele>364.0</ele><time>2026-04-05T09:14:06Z</time></trkpt><trkpt lat="44.78194651412922" lon="7.311643933025097"><ele>364.0</ele><time>2026-04-05T09:14:08Z</time></trkpt><trkpt lat="44.78202324808513" lon="7.311691155788499"><ele>364.0</ele><time>2026-04-05T09:14:10Z</time></trkpt><trkpt lat="44.78209794578509" lon="7.31173963563658"><ele>364.0</ele><time>2026-04-05T09:14:12Z</time></trkpt><trkpt lat="44.78217798804743" lon="7.311796121387892"><ele>364.0</ele><time>2026-04-05T09:14:14Z</time></trkpt><trkpt lat="44.78225839656863" lon="7.3118497193939"><ele>364.0</ele><time>2026-04-05T09:14:16Z</time></trkpt><trkpt lat="44.78233878386754" lon="7.311903652860217"><ele>364.0</ele><time>2026-04-05T09:14:18Z</time></trkpt><trkpt lat="44.78241879510524" lon="7.311957718943662"><ele>364.0</ele><time>2026-04-05T09:14:20Z</time></trkpt><trkpt lat="44.78250042819533" lon="7.312010280411912"><ele>364.0</ele><time>2026-04-05T09:14:22Z</time></trkpt><trkpt lat="44.78257895846448" lon="7.312063735097275"><ele>364.0</ele><time>2026-04-05T09:14:24Z</time></trkpt><trkpt lat="44.78265784992392" lon="7.312119617385"><ele>364.0</ele><time>2026-04-05T09:14:26Z</time></trkpt><trkpt lat="44.78273770204474" lon="7.312171845839667"><ele>364.0</ele><time>2026-04-05T09:14:28Z</time></trkpt><trkpt lat="44.782816308643945" lon="7.3122223365351"><ele>364.0</ele><time>2026-04-05T09:14:30Z</time></trkpt><trkpt lat="44.782892749035895" lon="7.312275740677164"><ele>364.0</ele><time>2026-04-05T09:14:32Z</time></trkpt><trkpt lat="44.782971256261064" lon="7.312326008270174"><ele>364.0</ele><time>2026-04-05T09:14:34Z</time></trkpt><trkpt lat="44.78304857936386" lon="7.312378765818418"><ele>364.0</ele><time>2026-04-05T09:14:36Z</time></trkpt><trkpt lat="44.783126225570506" lon="7.312433125136792"><ele>364.0</ele><time>2026-04-05T09:14:38Z</time></trkpt><trkpt lat="44.78320408976192" lon="7.3124850080570996"><ele>364.0</ele><time>2026-04-05T09:14:40Z</time></trkpt><trkpt lat="44.78328075469173" lon="7.312536564535448"><ele>364.0</ele><time>2026-04-05T09:14:42Z</time></trkpt><trkpt lat="44.783358629234115" lon="7.312588790393668"><ele>364.0</ele><time>2026-04-05T09:14:44Z</time></trkpt><trkpt lat="44.78343696740641" lon="7.31263845513401"><ele>364.0</ele><time>2026-04-05T09:14:46Z</time></trkpt><trkpt lat="44.783512441889236" lon="7.312685973393766"><ele>364.5</ele><time>2026-04-05T09:14:48Z</time></trkpt><trkpt lat="44.78358854625067" lon="7.312735299183593"><ele>365.0</ele><time>2026-04-05T09:14:50Z</time></trkpt><trkpt lat="44.78366203012632" lon="7.312788059484669"><ele>365.5</ele><time>2026-04-05T09:14:52Z</time></trkpt><trkpt lat="44.783739854004324" lon="7.312837393566884"><ele>366.0</ele><time>2026-04-05T09:14:54Z</time></trkpt><trkpt lat="44.78381939569708" lon="7.3128892669842"><ele>366.5</ele><time>2026-04-05T09:14:56.001Z</time></trkpt><trkpt lat="44.78389796731747" lon="7.312939179493924"><ele>367.0</ele><time>2026-04-05T09:14:58.001Z</time></trkpt><trkpt lat="44.783973676763445" lon="7.312993269824633"><ele>367.0</ele><time>2026-04-05T09:15:00.001Z</time></trkpt><trkpt lat="44.78404961331535" lon="7.3130470125955895"><ele>367.0</ele><time>2026-04-05T09:15:02.001Z</time></trkpt><trkpt lat="44.784125304144865" lon="7.313099299139784"><ele>367.0</ele><time>2026-04-05T09:15:04.001Z</time></trkpt><trkpt lat="44.78420281847775" lon="7.313148134832243"><ele>367.0</ele><time>2026-04-05T09:15:06.001Z</time></trkpt><trkpt lat="44.784281597449116" lon="7.313196922546242"><ele>367.0</ele><time>2026-04-05T09:15:08.001Z</time></trkpt><trkpt lat="44.784358607528624" lon="7.31324935497699"><ele>367.0</ele><time>2026-04-05T09:15:10.001Z</time></trkpt><trkpt lat="44.78443421773295" lon="7.313301756232743"><ele>366.66666666666663</ele><time>2026-04-05T09:15:12.001Z</time></trkpt><trkpt lat="44.78451032061041" lon="7.31334695463021"><ele>366.3333333333333</ele><time>2026-04-05T09:15:14.001Z</time></trkpt><trkpt lat="44.7845874528898" lon="7.313396850785246"><ele>366.0</ele><time>2026-04-05T09:15:16.001Z</time></trkpt><trkpt lat="44.784666405897966" lon="7.313451732302349"><ele>365.6666666666667</ele><time>2026-04-05T09:15:18.001Z</time></trkpt><trkpt lat="44.78474782685472" lon="7.313505126892591"><ele>365.33333333333337</ele><time>2026-04-05T09:15:20.001Z</time></trkpt><trkpt lat="44.78482942396985" lon="7.3135593596453825"><ele>365.0</ele><time>2026-04-05T09:15:22.001Z</time></trkpt><trkpt lat="44.78491056974232" lon="7.313616145809065"><ele>365.0</ele><time>2026-04-05T09:15:24.001Z</time></trkpt><trkpt lat="44.78499141039496" lon="7.313671533800096"><ele>365.0</ele><time>2026-04-05T09:15:26.001Z</time></trkpt><trkpt lat="44.78507362873521" lon="7.313727670867815"><ele>365.0</ele><time>2026-04-05T09:15:28.001Z</time></trkpt><trkpt lat="44.78515476422759" lon="7.313781074904016"><ele>365.0</ele><time>2026-04-05T09:15:30.001Z</time></trkpt><trkpt lat="44.78523818917001" lon="7.313825166048046"><ele>365.0</ele><time>2026-04-05T09:15:32.001Z</time></trkpt><trkpt lat="44.785321830549265" lon="7.313865152370542"><ele>365.0</ele><time>2026-04-05T09:15:34.001Z</time></trkpt><trkpt lat="44.78539782542052" lon="7.313925750303357"><ele>364.8</ele><time>2026-04-05T09:15:36.001Z</time></trkpt><trkpt lat="44.78547557096347" lon="7.313991936705773"><ele>364.6</ele><time>2026-04-05T09:15:38.001Z</time></trkpt><trkpt lat="44.78555802305549" lon="7.314048722618406"><ele>364.4</ele><time>2026-04-05T09:15:40.002Z</time></trkpt><trkpt lat="44.78564122655244" lon="7.314101997218683"><ele>364.2</ele><time>2026-04-05T09:15:42.002Z</time></trkpt><trkpt lat="44.785723513887824" lon="7.314157336793413"><ele>364.0</ele><time>2026-04-05T09:15:44.002Z</time></trkpt><trkpt lat="44.78580717942908" lon="7.314211162878185"><ele>364.0</ele><time>2026-04-05T09:15:46.002Z</time></trkpt><trkpt lat="44.785889036753616" lon="7.314270076440928"><ele>364.0</ele><time>2026-04-05T09:15:48.002Z</time></trkpt><trkpt lat="44.78597066210228" lon="7.314321180460262"><ele>364.0</ele><time>2026-04-05T09:15:50.002Z</time></trkpt><trkpt lat="44.786049378160186" lon="7.314373292803462"><ele>364.0</ele><time>2026-04-05T09:15:52.002Z</time></trkpt><trkpt lat="44.78613310902117" lon="7.3144307573423255"><ele>364.0</ele><time>2026-04-05T09:15:54.002Z</time></trkpt><trkpt lat="44.78621833868285" lon="7.314485840771536"><ele>364.3333333333333</ele><time>2026-04-05T09:15:56.002Z</time></trkpt><trkpt lat="44.786298689305184" lon="7.314539098206028"><ele>364.66666666666663</ele><time>2026-04-05T09:15:58.002Z</time></trkpt><trkpt lat="44.78637872897229" lon="7.314594563063955"><ele>365.0</ele><time>2026-04-05T09:16:00.002Z</time></trkpt><trkpt lat="44.786461597151614" lon="7.314650086836276"><ele>365.3333333333333</ele><time>2026-04-05T09:16:02.002Z</time></trkpt><trkpt lat="44.786542761775124" lon="7.314707690950813"><ele>365.6666666666667</ele><time>2026-04-05T09:16:04.002Z</time></trkpt><trkpt lat="44.78662246721371" lon="7.314762882063746"><ele>366.0</ele><time>2026-04-05T09:16:06.002Z</time></trkpt><trkpt lat="44.78670461382466" lon="7.314816790548869"><ele>366.0</ele><time>2026-04-05T09:16:08.002Z</time></trkpt><trkpt lat="44.78678570909164" lon="7.314870844464291"><ele>366.0</ele><time>2026-04-05T09:16:10.002Z</time></trkpt><trkpt lat="44.78686669160992" lon="7.314926817315684"><ele>366.0</ele><time>2026-04-05T09:16:11.999Z</time></trkpt><trkpt lat="44.78695051638329" lon="7.3149805736693905"><ele>366.0</ele><time>2026-04-05T09:16:13.999Z</time></trkpt><trkpt lat="44.78703236317897" lon="7.315031723053316"><ele>366.0</ele><time>2026-04-05T09:16:15.999Z</time></trkpt><trkpt lat="44.787112846436486" lon="7.31508550211121"><ele>366.3333333333333</ele><time>2026-04-05T09:16:17.999Z</time></trkpt><trkpt lat="44.78719457471619" lon="7.3151358757344696"><ele>366.6666666666667</ele><time>2026-04-05T09:16:19.999Z</time></trkpt><trkpt lat="44.78727524398902" lon="7.315188274410108"><ele>367.0</ele><time>2026-04-05T09:16:21.999Z</time></trkpt><trkpt lat="44.78735659549147" lon="7.315239812935965"><ele>367.33333333333337</ele><time>2026-04-05T09:16:23.999Z</time></trkpt><trkpt lat="44.7874383412229" lon="7.315292372802408"><ele>367.6666666666667</ele><time>2026-04-05T09:16:26Z</time></trkpt><trkpt lat="44.78752149170952" lon="7.315341751354483"><ele>368.0</ele><time>2026-04-05T09:16:28Z</time></trkpt><trkpt lat="44.78760605802635" lon="7.315386325329008"><ele>368.0</ele><time>2026-04-05T09:16:30Z</time></trkpt><trkpt lat="44.78762403992692" lon="7.315487038181128"><ele>368.0</ele><time>2026-04-05T09:16:31Z</time></trkpt><trkpt lat="44.787707519790395" lon="7.315537972386085"><ele>368.0</ele><time>2026-04-05T09:16:33Z</time></trkpt><trkpt lat="44.78779229075946" lon="7.3155896943434"><ele>368.0</ele><time>2026-04-05T09:16:35Z</time></trkpt><trkpt lat="44.78790889541469" lon="7.315543088755837"><ele>368.0</ele><time>2026-04-05T09:16:37Z</time></trkpt><trkpt lat="44.78799822238585" lon="7.315582746756675"><ele>367.79999999999995</ele><time>2026-04-05T09:16:39Z</time></trkpt><trkpt lat="44.788086910176226" lon="7.31561653931055"><ele>367.6</ele><time>2026-04-05T09:16:41Z</time></trkpt><trkpt lat="44.78817723824843" lon="7.315647786298777"><ele>367.4</ele><time>2026-04-05T09:16:43Z</time></trkpt><trkpt lat="44.788267517585474" lon="7.315675371541378"><ele>367.20000000000005</ele><time>2026-04-05T09:16:45Z</time></trkpt><trkpt lat="44.788359262915534" lon="7.315699677843102"><ele>367.0</ele><time>2026-04-05T09:16:47Z</time></trkpt><trkpt lat="44.78844802528083" lon="7.315722911689486"><ele>367.0</ele><time>2026-04-05T09:16:49Z</time></trkpt><trkpt lat="44.788538489036576" lon="7.315745031559516"><ele>367.0</ele><time>2026-04-05T09:16:51Z</time></trkpt><trkpt lat="44.78862794324591" lon="7.315764355210292"><ele>367.0</ele><time>2026-04-05T09:16:53Z</time></trkpt><trkpt lat="44.78871541668982" lon="7.315775189102174"><ele>367.0</ele><time>2026-04-05T09:16:55Z</time></trkpt><trkpt lat="44.7888037736447" lon="7.315788835905718"><ele>367.0</ele><time>2026-04-05T09:16:57Z</time></trkpt><trkpt lat="44.788891300941515" lon="7.3157989912244705"><ele>367.0</ele><time>2026-04-05T09:16:59Z</time></trkpt><trkpt lat="44.78897871169718" lon="7.315804812698097"><ele>367.0</ele><time>2026-04-05T09:17:01Z</time></trkpt><trkpt lat="44.78906598341952" lon="7.315809920235316"><ele>367.0</ele><time>2026-04-05T09:17:03.001Z</time></trkpt><trkpt lat="44.78915352943083" lon="7.3158151625744186"><ele>367.0</ele><time>2026-04-05T09:17:05.001Z</time></trkpt><trkpt lat="44.78924251302571" lon="7.315810348922528"><ele>367.0</ele><time>2026-04-05T09:17:07.001Z</time></trkpt><trkpt lat="44.78933158731725" lon="7.3158050791380695"><ele>367.0</ele><time>2026-04-05T09:17:09.001Z</time></trkpt><trkpt lat="44.78942075107463" lon="7.315813796383538"><ele>367.0</ele><time>2026-04-05T09:17:11.001Z</time></trkpt><trkpt lat="44.78950993975248" lon="7.315842228925274"><ele>366.8333333333333</ele><time>2026-04-05T09:17:13.001Z</time></trkpt><trkpt lat="44.789600144671745" lon="7.315850528667943"><ele>366.66666666666663</ele><time>2026-04-05T09:17:15.001Z</time></trkpt><trkpt lat="44.789688305826786" lon="7.315854530589711"><ele>366.5</ele><time>2026-04-05T09:17:17.001Z</time></trkpt><trkpt lat="44.78977747102534" lon="7.315848992034488"><ele>366.3333333333333</ele><time>2026-04-05T09:17:19.001Z</time></trkpt><trkpt lat="44.78986584899205" lon="7.31584261348899"><ele>366.1666666666667</ele><time>2026-04-05T09:17:21.001Z</time></trkpt><trkpt lat="44.78994654861382" lon="7.3158449630220215"><ele>366.0</ele><time>2026-04-05T09:17:23.001Z</time></trkpt><trkpt lat="44.79001564733462" lon="7.3158523229375"><ele>366.0</ele><time>2026-04-05T09:17:25.001Z</time></trkpt><trkpt lat="44.79008117722378" lon="7.315857224166489"><ele>366.0</ele><time>2026-04-05T09:17:27.001Z</time></trkpt><trkpt lat="44.79017236009595" lon="7.315877657255402"><ele>366.0</ele><time>2026-04-05T09:17:29.001Z</time></trkpt><trkpt lat="44.79027838407243" lon="7.3158825516500965"><ele>366.0</ele><time>2026-04-05T09:17:31.001Z</time></trkpt><trkpt lat="44.79038885835092" lon="7.315892353875207"><ele>366.0</ele><time>2026-04-05T09:17:33.001Z</time></trkpt><trkpt lat="44.79050023868179" lon="7.315899899784131"><ele>366.0</ele><time>2026-04-05T09:17:35.001Z</time></trkpt><trkpt lat="44.79060879191697" lon="7.315907845900778"><ele>366.0</ele><time>2026-04-05T09:17:37.001Z</time></trkpt><trkpt lat="44.7907165325877" lon="7.315916660615107"><ele>366.0</ele><time>2026-04-05T09:17:39.001Z</time></trkpt><trkpt lat="44.79082538559229" lon="7.315925606155753"><ele>366.0</ele><time>2026-04-05T09:17:41.001Z</time></trkpt><trkpt lat="44.7909333415908" lon="7.315932775983515"><ele>366.0</ele><time>2026-04-05T09:17:43.001Z</time></trkpt><trkpt lat="44.79103732949388" lon="7.315938941679267"><ele>366.0</ele><time>2026-04-05T09:17:45.002Z</time></trkpt><trkpt lat="44.791137823902076" lon="7.3159450670248525"><ele>366.0</ele><time>2026-04-05T09:17:47.002Z</time></trkpt><trkpt lat="44.791232124487934" lon="7.315948577107612"><ele>366.0</ele><time>2026-04-05T09:17:49.002Z</time></trkpt><trkpt lat="44.79132542811589" lon="7.315955316755566"><ele>366.0</ele><time>2026-04-05T09:17:51.002Z</time></trkpt><trkpt lat="44.79142060308505" lon="7.31595999147094"><ele>366.0</ele><time>2026-04-05T09:17:53.002Z</time></trkpt><trkpt lat="44.79151683015861" lon="7.315966331511381"><ele>366.0</ele><time>2026-04-05T09:17:55.002Z</time></trkpt><trkpt lat="44.79161097166387" lon="7.315979474153256"><ele>366.0</ele><time>2026-04-05T09:17:57.002Z</time></trkpt><trkpt lat="44.79170549083151" lon="7.315988013175701"><ele>366.0</ele><time>2026-04-05T09:17:59.002Z</time></trkpt><trkpt lat="44.79179874102926" lon="7.315993427179548"><ele>366.0</ele><time>2026-04-05T09:18:01.002Z</time></trkpt><trkpt lat="44.79189054059816" lon="7.3159993485903065"><ele>366.0</ele><time>2026-04-05T09:18:03.002Z</time></trkpt><trkpt lat="44.79198376133326" lon="7.316002305251842"><ele>365.8</ele><time>2026-04-05T09:18:05.002Z</time></trkpt><trkpt lat="44.7920776241071" lon="7.316006093900497"><ele>365.6</ele><time>2026-04-05T09:18:07.002Z</time></trkpt><trkpt lat="44.79217272212571" lon="7.316013419575236"><ele>365.4</ele><time>2026-04-05T09:18:09.002Z</time></trkpt><trkpt lat="44.792265506341494" lon="7.316021892822352"><ele>365.2</ele><time>2026-04-05T09:18:11.002Z</time></trkpt><trkpt lat="44.79235836397521" lon="7.316026907840592"><ele>365.0</ele><time>2026-04-05T09:18:13.002Z</time></trkpt><trkpt lat="44.792449383433905" lon="7.31603586211075"><ele>365.0</ele><time>2026-04-05T09:18:15.002Z</time></trkpt><trkpt lat="44.79254087154052" lon="7.3160390824881825"><ele>365.0</ele><time>2026-04-05T09:18:17Z</time></trkpt><trkpt lat="44.79262929863245" lon="7.316043343742241"><ele>365.0</ele><time>2026-04-05T09:18:19Z</time></trkpt><trkpt lat="44.79271372471131" lon="7.3160505722822"><ele>365.0</ele><time>2026-04-05T09:18:21Z</time></trkpt><trkpt lat="44.79279789141947" lon="7.316054001712647"><ele>365.0</ele><time>2026-04-05T09:18:23Z</time></trkpt><trkpt lat="44.79288243898529" lon="7.316060484394406"><ele>365.0</ele><time>2026-04-05T09:18:25Z</time></trkpt><trkpt lat="44.79296465322549" lon="7.316068510502814"><ele>365.5</ele><time>2026-04-05T09:18:27Z</time></trkpt><trkpt lat="44.79304474345164" lon="7.31606972553256"><ele>366.0</ele><time>2026-04-05T09:18:29Z</time></trkpt><trkpt lat="44.79312688902995" lon="7.316074169484107"><ele>366.5</ele><time>2026-04-05T09:18:31Z</time></trkpt><trkpt lat="44.79320573775342" lon="7.31607810871582"><ele>367.0</ele><time>2026-04-05T09:18:33Z</time></trkpt><trkpt lat="44.793286522252174" lon="7.316080998682108"><ele>367.5</ele><time>2026-04-05T09:18:35Z</time></trkpt><trkpt lat="44.79337303865409" lon="7.316090591612184"><ele>368.0</ele><time>2026-04-05T09:18:37Z</time></trkpt><trkpt lat="44.79346118855068" lon="7.316097678700018"><ele>368.33333333333337</ele><time>2026-04-05T09:18:39Z</time></trkpt><trkpt lat="44.793548411559655" lon="7.316108134371489"><ele>368.6666666666667</ele><time>2026-04-05T09:18:41Z</time></trkpt><trkpt lat="44.793636938596315" lon="7.316111072513225"><ele>369.0</ele><time>2026-04-05T09:18:43Z</time></trkpt><trkpt lat="44.793723166814395" lon="7.316117093845181"><ele>369.3333333333333</ele><time>2026-04-05T09:18:45Z</time></trkpt><trkpt lat="44.79381226124321" lon="7.316117438310676"><ele>369.66666666666663</ele><time>2026-04-05T09:18:47Z</time></trkpt><trkpt lat="44.79390033129624" lon="7.3161209895442"><ele>370.0</ele><time>2026-04-05T09:18:49Z</time></trkpt><trkpt lat="44.79398992278031" lon="7.316128969658449"><ele>370.0</ele><time>2026-04-05T09:18:51Z</time></trkpt><trkpt lat="44.79407697160137" lon="7.316135711548534"><ele>370.0</ele><time>2026-04-05T09:18:53Z</time></trkpt><trkpt lat="44.79416524722854" lon="7.3161455828614645"><ele>370.0</ele><time>2026-04-05T09:18:55Z</time></trkpt><trkpt lat="44.79425336356943" lon="7.316147136165489"><ele>370.0</ele><time>2026-04-05T09:18:57Z</time></trkpt><trkpt lat="44.794338986554344" lon="7.316153552834273"><ele>370.0</ele><time>2026-04-05T09:18:59Z</time></trkpt><trkpt lat="44.79442060282417" lon="7.31616294861308"><ele>370.0</ele><time>2026-04-05T09:19:01.001Z</time></trkpt><trkpt lat="44.79450295033393" lon="7.316164126922806"><ele>370.16666666666663</ele><time>2026-04-05T09:19:03.001Z</time></trkpt><trkpt lat="44.79458562831143" lon="7.316169810705546"><ele>370.3333333333333</ele><time>2026-04-05T09:19:05.001Z</time></trkpt><trkpt lat="44.79468250583703" lon="7.316177656639468"><ele>370.5</ele><time>2026-04-05T09:19:07.001Z</time></trkpt><trkpt lat="44.794770796089225" lon="7.316183091211767"><ele>370.6666666666667</ele><time>2026-04-05T09:19:09.001Z</time></trkpt><trkpt lat="44.79486151001203" lon="7.316187949006929"><ele>370.83333333333337</ele><time>2026-04-05T09:19:11.001Z</time></trkpt><trkpt lat="44.79494691421464" lon="7.316196267791224"><ele>371.0</ele><time>2026-04-05T09:19:13.001Z</time></trkpt><trkpt lat="44.7950342562656" lon="7.316201234270147"><ele>371.0</ele><time>2026-04-05T09:19:15.001Z</time></trkpt><trkpt lat="44.79512035152934" lon="7.3162074907182015"><ele>371.0</ele><time>2026-04-05T09:19:17.001Z</time></trkpt><trkpt lat="44.79520605765845" lon="7.316210382824334"><ele>371.0</ele><time>2026-04-05T09:19:19.001Z</time></trkpt><trkpt lat="44.795296918783244" lon="7.316218886527912"><ele>371.0</ele><time>2026-04-05T09:19:21.001Z</time></trkpt><trkpt lat="44.79538529779417" lon="7.316223444502584"><ele>371.0</ele><time>2026-04-05T09:19:23.001Z</time></trkpt><trkpt lat="44.79547376967978" lon="7.316227834635011"><ele>371.0</ele><time>2026-04-05T09:19:25.001Z</time></trkpt><trkpt lat="44.795562625063845" lon="7.316235179544108"><ele>371.0</ele><time>2026-04-05T09:19:27.001Z</time></trkpt><trkpt lat="44.79565031398633" lon="7.316239559545012"><ele>371.0</ele><time>2026-04-05T09:19:29.001Z</time></trkpt><trkpt lat="44.7957373942669" lon="7.316247132154807"><ele>371.0</ele><time>2026-04-05T09:19:31.001Z</time></trkpt><trkpt lat="44.79582309159728" lon="7.3162576880186005"><ele>371.0</ele><time>2026-04-05T09:19:33.001Z</time></trkpt><trkpt lat="44.79590842220232" lon="7.316262810373948"><ele>371.0</ele><time>2026-04-05T09:19:35.001Z</time></trkpt><trkpt lat="44.795995009987266" lon="7.316264080072483"><ele>371.0</ele><time>2026-04-05T09:19:37.001Z</time></trkpt><trkpt lat="44.79607159836174" lon="7.316262222462257"><ele>371.5</ele><time>2026-04-05T09:19:39.001Z</time></trkpt><trkpt lat="44.79614886486622" lon="7.31626090566578"><ele>372.0</ele><time>2026-04-05T09:19:41.001Z</time></trkpt><trkpt lat="44.79623256377332" lon="7.316270330667672"><ele>372.5</ele><time>2026-04-05T09:19:43.002Z</time></trkpt><trkpt lat="44.796315136478334" lon="7.316266555408573"><ele>373.0</ele><time>2026-04-05T09:19:45.002Z</time></trkpt><trkpt lat="44.796397572231356" lon="7.316283062193342"><ele>373.5</ele><time>2026-04-05T09:19:47.002Z</time></trkpt><trkpt lat="44.796479076989655" lon="7.316286190760812"><ele>374.0</ele><time>2026-04-05T09:19:49.002Z</time></trkpt><trkpt lat="44.79656050672105" lon="7.316290537252297"><ele>374.0</ele><time>2026-04-05T09:19:51.002Z</time></trkpt><trkpt lat="44.79664281814466" lon="7.316294901287852"><ele>374.0</ele><time>2026-04-05T09:19:53.002Z</time></trkpt><trkpt lat="44.796725120434786" lon="7.31629972767085"><ele>374.0</ele><time>2026-04-05T09:19:55.002Z</time></trkpt><trkpt lat="44.796808184482444" lon="7.316305643550234"><ele>374.0</ele><time>2026-04-05T09:19:57.002Z</time></trkpt><trkpt lat="44.79689056728189" lon="7.316319126652145"><ele>374.0</ele><time>2026-04-05T09:19:59.002Z</time></trkpt><trkpt lat="44.79697555144989" lon="7.316324689173022"><ele>374.0</ele><time>2026-04-05T09:20:01.002Z</time></trkpt><trkpt lat="44.79705992114864" lon="7.316332049723263"><ele>373.33333333333337</ele><time>2026-04-05T09:20:03.002Z</time></trkpt><trkpt lat="44.79714332512728" lon="7.316337706244675"><ele>372.6666666666667</ele><time>2026-04-05T09:20:05.002Z</time></trkpt><trkpt lat="44.79722817693436" lon="7.31634419955918"><ele>372.0</ele><time>2026-04-05T09:20:07.002Z</time></trkpt><trkpt lat="44.79731237285305" lon="7.316349748403646"><ele>371.3333333333333</ele><time>2026-04-05T09:20:09.002Z</time></trkpt><trkpt lat="44.79739769561691" lon="7.316354542449409"><ele>370.66666666666663</ele><time>2026-04-05T09:20:11.002Z</time></trkpt><trkpt lat="44.797481055501265" lon="7.316364006661362"><ele>370.0</ele><time>2026-04-05T09:20:13.002Z</time></trkpt><trkpt lat="44.797563063657634" lon="7.316368587581534"><ele>370.0</ele><time>2026-04-05T09:20:15.002Z</time></trkpt><trkpt lat="44.79764596264178" lon="7.316371416344724"><ele>370.0</ele><time>2026-04-05T09:20:17.002Z</time></trkpt><trkpt lat="44.79772737154025" lon="7.3163802637549225"><ele>370.0</ele><time>2026-04-05T09:20:19.002Z</time></trkpt><trkpt lat="44.79781072033094" lon="7.316387159649962"><ele>370.0</ele><time>2026-04-05T09:20:21.002Z</time></trkpt><trkpt lat="44.79789147874893" lon="7.316392283429437"><ele>370.0</ele><time>2026-04-05T09:20:23Z</time></trkpt><trkpt lat="44.79797114685698" lon="7.316396243065339"><ele>370.0</ele><time>2026-04-05T09:20:25Z</time></trkpt><trkpt lat="44.798050792080964" lon="7.316400951637295"><ele>370.16666666666663</ele><time>2026-04-05T09:20:27Z</time></trkpt><trkpt lat="44.798133465904385" lon="7.316408064902647"><ele>370.3333333333333</ele><time>2026-04-05T09:20:29Z</time></trkpt><trkpt lat="44.798218891784984" lon="7.3164126514470915"><ele>370.5</ele><time>2026-04-05T09:20:31Z</time></trkpt><trkpt lat="44.798304747189455" lon="7.316418049119414"><ele>370.6666666666667</ele><time>2026-04-05T09:20:33Z</time></trkpt><trkpt lat="44.79839015623232" lon="7.316420214160423"><ele>370.83333333333337</ele><time>2026-04-05T09:20:35Z</time></trkpt><trkpt lat="44.79847547246436" lon="7.316423082009455"><ele>371.0</ele><time>2026-04-05T09:20:37Z</time></trkpt><trkpt lat="44.79855847270582" lon="7.316426669742537"><ele>371.1666666666667</ele><time>2026-04-05T09:20:39Z</time></trkpt><trkpt lat="44.7986406985465" lon="7.3164302187108445"><ele>371.33333333333337</ele><time>2026-04-05T09:20:41Z</time></trkpt><trkpt lat="44.798723009776545" lon="7.316437048381863"><ele>371.5</ele><time>2026-04-05T09:20:43Z</time></trkpt><trkpt lat="44.79880638003421" lon="7.31644268034659"><ele>371.6666666666667</ele><time>2026-04-05T09:20:45Z</time></trkpt><trkpt lat="44.79888920462712" lon="7.316448120656518"><ele>371.8333333333333</ele><time>2026-04-05T09:20:47Z</time></trkpt><trkpt lat="44.798972654398284" lon="7.316454728079517"><ele>372.0</ele><time>2026-04-05T09:20:49Z</time></trkpt><trkpt lat="44.799059289555096" lon="7.316462344497001"><ele>372.0</ele><time>2026-04-05T09:20:51Z</time></trkpt><trkpt lat="44.79914651897646" lon="7.316469767839976"><ele>372.0</ele><time>2026-04-05T09:20:53Z</time></trkpt><trkpt lat="44.79923297176025" lon="7.316474555330325"><ele>372.0</ele><time>2026-04-05T09:20:55Z</time></trkpt><trkpt lat="44.799319972777134" lon="7.316477739844959"><ele>372.0</ele><time>2026-04-05T09:20:57Z</time></trkpt><trkpt lat="44.799406357430364" lon="7.316483166267405"><ele>372.0</ele><time>2026-04-05T09:20:59Z</time></trkpt><trkpt lat="44.79949166086532" lon="7.3164879399657865"><ele>372.0</ele><time>2026-04-05T09:21:01Z</time></trkpt><trkpt lat="44.799577457026956" lon="7.316485555721296"><ele>372.1666666666667</ele><time>2026-04-05T09:21:03Z</time></trkpt><trkpt lat="44.79966272443922" lon="7.316475041099602"><ele>372.3333333333333</ele><time>2026-04-05T09:21:05.001Z</time></trkpt><trkpt lat="44.799748477090425" lon="7.31649525272307"><ele>372.5</ele><time>2026-04-05T09:21:07.001Z</time></trkpt><trkpt lat="44.799836798169984" lon="7.316518294090408"><ele>372.66666666666663</ele><time>2026-04-05T09:21:09.001Z</time></trkpt><trkpt lat="44.79992655129131" lon="7.31652445231028"><ele>372.8333333333333</ele><time>2026-04-05T09:21:11.001Z</time></trkpt><trkpt lat="44.800014427027115" lon="7.316528871424521"><ele>373.0</ele><time>2026-04-05T09:21:13.001Z</time></trkpt><trkpt lat="44.80010216012725" lon="7.316534883129213"><ele>373.0</ele><time>2026-04-05T09:21:15.001Z</time></trkpt><trkpt lat="44.80018846971506" lon="7.3165401406907895"><ele>373.0</ele><time>2026-04-05T09:21:17.001Z</time></trkpt><trkpt lat="44.80027426681335" lon="7.316544912984923"><ele>373.0</ele><time>2026-04-05T09:21:19.001Z</time></trkpt><trkpt lat="44.800358567414854" lon="7.316550511873198"><ele>373.0</ele><time>2026-04-05T09:21:21.001Z</time></trkpt><trkpt lat="44.800442255203016" lon="7.316555679062984"><ele>373.0</ele><time>2026-04-05T09:21:23.001Z</time></trkpt><trkpt lat="44.80052817758254" lon="7.316555540452255"><ele>373.0</ele><time>2026-04-05T09:21:25.001Z</time></trkpt><trkpt lat="44.80061700555631" lon="7.316558483443581"><ele>373.0</ele><time>2026-04-05T09:21:27.001Z</time></trkpt><trkpt lat="44.80070552789484" lon="7.316559320246487"><ele>373.0</ele><time>2026-04-05T09:21:29.001Z</time></trkpt><trkpt lat="44.80079514603919" lon="7.316560120786995"><ele>373.0</ele><time>2026-04-05T09:21:31.001Z</time></trkpt><trkpt lat="44.80088354180647" lon="7.31656153099005"><ele>373.0</ele><time>2026-04-05T09:21:33.001Z</time></trkpt><trkpt lat="44.80097232533945" lon="7.316563333887722"><ele>373.0</ele><time>2026-04-05T09:21:35.001Z</time></trkpt><trkpt lat="44.80106345730855" lon="7.316566731501335"><ele>373.0</ele><time>2026-04-05T09:21:37.001Z</time></trkpt><trkpt lat="44.80115386390032" lon="7.316571507809423"><ele>373.59999999999997</ele><time>2026-04-05T09:21:39.001Z</time></trkpt><trkpt lat="44.801245314315416" lon="7.316571271986526"><ele>374.2</ele><time>2026-04-05T09:21:41.001Z</time></trkpt><trkpt lat="44.801337282360755" lon="7.316575700537448"><ele>374.8</ele><time>2026-04-05T09:21:43.001Z</time></trkpt><trkpt lat="44.80142916483577" lon="7.316582106943927"><ele>375.4</ele><time>2026-04-05T09:21:45.001Z</time></trkpt><trkpt lat="44.80152446840271" lon="7.316585418343567"><ele>376.0</ele><time>2026-04-05T09:21:47.002Z</time></trkpt><trkpt lat="44.80162057588299" lon="7.316591594718435"><ele>376.0</ele><time>2026-04-05T09:21:49.002Z</time></trkpt><trkpt lat="44.801716247382245" lon="7.316594738560068"><ele>376.0</ele><time>2026-04-05T09:21:51.002Z</time></trkpt><trkpt lat="44.801811253639656" lon="7.316598851956945"><ele>376.0</ele><time>2026-04-05T09:21:53.002Z</time></trkpt><trkpt lat="44.801907666975914" lon="7.316604695000864"><ele>376.0</ele><time>2026-04-05T09:21:55.002Z</time></trkpt><trkpt lat="44.802001902215984" lon="7.316612222680068"><ele>376.0</ele><time>2026-04-05T09:21:57.002Z</time></trkpt><trkpt lat="44.802095148576036" lon="7.316617530463134"><ele>376.0</ele><time>2026-04-05T09:21:59.002Z</time></trkpt><trkpt lat="44.80218657903705" lon="7.316625358391045"><ele>376.0</ele><time>2026-04-05T09:22:01.002Z</time></trkpt><trkpt lat="44.80227743059985" lon="7.316632488328972"><ele>376.0</ele><time>2026-04-05T09:22:03.002Z</time></trkpt><trkpt lat="44.8023669489576" lon="7.316643653986365"><ele>376.0</ele><time>2026-04-05T09:22:05.002Z</time></trkpt><trkpt lat="44.802446714021045" lon="7.31664486523759"><ele>376.0</ele><time>2026-04-05T09:22:07.002Z</time></trkpt><trkpt lat="44.802528598485274" lon="7.316627788320856"><ele>376.0</ele><time>2026-04-05T09:22:09.002Z</time></trkpt><trkpt lat="44.80260831721405" lon="7.316574700173392"><ele>376.0</ele><time>2026-04-05T09:22:11.002Z</time></trkpt><trkpt lat="44.80269227499247" lon="7.316589715004754"><ele>376.0</ele><time>2026-04-05T09:22:13.002Z</time></trkpt><trkpt lat="44.8027642076317" lon="7.316645505952116"><ele>376.0</ele><time>2026-04-05T09:22:15.002Z</time></trkpt><trkpt lat="44.80281355294318" lon="7.316742957614886"><ele>376.0</ele><time>2026-04-05T09:22:17.002Z</time></trkpt><trkpt lat="44.80287978962325" lon="7.316808855145779"><ele>376.0</ele><time>2026-04-05T09:22:19.002Z</time></trkpt><trkpt lat="44.80295028837997" lon="7.316730303054529"><ele>376.0</ele><time>2026-04-05T09:22:21.002Z</time></trkpt><trkpt lat="44.8030405417326" lon="7.3167084940798635"><ele>376.0</ele><time>2026-04-05T09:22:23.002Z</time></trkpt><trkpt lat="44.80312941527834" lon="7.316719300842933"><ele>376.0</ele><time>2026-04-05T09:22:25.002Z</time></trkpt><trkpt lat="44.80322149045133" lon="7.316732563865809"><ele>376.0</ele><time>2026-04-05T09:22:27.002Z</time></trkpt><trkpt lat="44.80332085847984" lon="7.316732893007726"><ele>376.0</ele><time>2026-04-05T09:22:29Z</time></trkpt><trkpt lat="44.80341942638185" lon="7.316737490776767"><ele>376.0</ele><time>2026-04-05T09:22:31Z</time></trkpt><trkpt lat="44.80351781408174" lon="7.3167347606867335"><ele>376.0</ele><time>2026-04-05T09:22:33Z</time></trkpt><trkpt lat="44.80361557001872" lon="7.316725358999385"><ele>376.0</ele><time>2026-04-05T09:22:35Z</time></trkpt><trkpt lat="44.803710984195156" lon="7.316714827880845"><ele>376.0</ele><time>2026-04-05T09:22:37Z</time></trkpt><trkpt lat="44.80380829735966" lon="7.316703491695004"><ele>376.0</ele><time>2026-04-05T09:22:39Z</time></trkpt><trkpt lat="44.803903513388796" lon="7.3166889625784055"><ele>376.0</ele><time>2026-04-05T09:22:41Z</time></trkpt><trkpt lat="44.80399622416286" lon="7.316672439021457"><ele>376.0</ele><time>2026-04-05T09:22:43Z</time></trkpt><trkpt lat="44.8040885708557" lon="7.316651874770006"><ele>376.0</ele><time>2026-04-05T09:22:45Z</time></trkpt><trkpt lat="44.804176018362575" lon="7.316619536041439"><ele>376.0</ele><time>2026-04-05T09:22:47Z</time></trkpt><trkpt lat="44.8042644598702" lon="7.316599639792779"><ele>376.0</ele><time>2026-04-05T09:22:49Z</time></trkpt><trkpt lat="44.80435154600885" lon="7.3165736069205325"><ele>376.0</ele><time>2026-04-05T09:22:51Z</time></trkpt><trkpt lat="44.80443858288152" lon="7.316547727865111"><ele>375.8333333333333</ele><time>2026-04-05T09:22:53Z</time></trkpt><trkpt lat="44.80452818242745" lon="7.316522219357157"><ele>375.66666666666663</ele><time>2026-04-05T09:22:55Z</time></trkpt><trkpt lat="44.80461596920444" lon="7.31649500284774"><ele>375.5</ele><time>2026-04-05T09:22:57Z</time></trkpt><trkpt lat="44.80470343088755" lon="7.316466634730594"><ele>375.3333333333333</ele><time>2026-04-05T09:22:59Z</time></trkpt><trkpt lat="44.80478999083154" lon="7.316437401593835"><ele>375.1666666666667</ele><time>2026-04-05T09:23:01Z</time></trkpt><trkpt lat="44.80487600842414" lon="7.316410892831088"><ele>375.0</ele><time>2026-04-05T09:23:03Z</time></trkpt><trkpt lat="44.80496128147506" lon="7.316383208636397"><ele>375.5</ele><time>2026-04-05T09:23:05Z</time></trkpt><trkpt lat="44.80504391038579" lon="7.316354994349207"><ele>376.0</ele><time>2026-04-05T09:23:07.001Z</time></trkpt><trkpt lat="44.80512517044019" lon="7.316330277669254"><ele>376.5</ele><time>2026-04-05T09:23:09.001Z</time></trkpt><trkpt lat="44.80520786402846" lon="7.316307187853339"><ele>377.0</ele><time>2026-04-05T09:23:11.001Z</time></trkpt><trkpt lat="44.80529078435167" lon="7.316282430827664"><ele>377.5</ele><time>2026-04-05T09:23:13.001Z</time></trkpt><trkpt lat="44.805374418629135" lon="7.316256396216091"><ele>378.0</ele><time>2026-04-05T09:23:15.001Z</time></trkpt><trkpt lat="44.80545741378336" lon="7.316230215191513"><ele>378.1666666666667</ele><time>2026-04-05T09:23:17.001Z</time></trkpt><trkpt lat="44.80554211146927" lon="7.316205909921768"><ele>378.3333333333333</ele><time>2026-04-05T09:23:19.001Z</time></trkpt><trkpt lat="44.805628575269694" lon="7.3161853682145255"><ele>378.5</ele><time>2026-04-05T09:23:21.001Z</time></trkpt><trkpt lat="44.80571490172105" lon="7.316157904655328"><ele>378.66666666666663</ele><time>2026-04-05T09:23:23.001Z</time></trkpt><trkpt lat="44.80580159655441" lon="7.316129404540399"><ele>378.8333333333333</ele><time>2026-04-05T09:23:25.001Z</time></trkpt><trkpt lat="44.805886867721036" lon="7.316101450520703"><ele>379.0</ele><time>2026-04-05T09:23:27.001Z</time></trkpt><trkpt lat="44.805972555288854" lon="7.316069541638195"><ele>379.16666666666663</ele><time>2026-04-05T09:23:29.001Z</time></trkpt><trkpt lat="44.80605696263526" lon="7.316042925943944"><ele>379.3333333333333</ele><time>2026-04-05T09:23:31.001Z</time></trkpt><trkpt lat="44.80614184834612" lon="7.316020589430816"><ele>379.5</ele><time>2026-04-05T09:23:33.001Z</time></trkpt><trkpt lat="44.806227288709756" lon="7.3159951609388525"><ele>379.6666666666667</ele><time>2026-04-05T09:23:35.001Z</time></trkpt><trkpt lat="44.8063131362588" lon="7.315968352780274"><ele>379.83333333333337</ele><time>2026-04-05T09:23:37.001Z</time></trkpt><trkpt lat="44.80640019964318" lon="7.31594318717195"><ele>380.0</ele><time>2026-04-05T09:23:39.001Z</time></trkpt><trkpt lat="44.8064894269361" lon="7.315918341004293"><ele>380.0</ele><time>2026-04-05T09:23:41.001Z</time></trkpt><trkpt lat="44.806577825504704" lon="7.315891683642003"><ele>380.0</ele><time>2026-04-05T09:23:43.001Z</time></trkpt><trkpt lat="44.806666636246035" lon="7.3158649140164185"><ele>380.0</ele><time>2026-04-05T09:23:45.001Z</time></trkpt><trkpt lat="44.80675471187745" lon="7.315838602335527"><ele>380.0</ele><time>2026-04-05T09:23:47.002Z</time></trkpt><trkpt lat="44.80684200549569" lon="7.315815073252479"><ele>380.0</ele><time>2026-04-05T09:23:49.002Z</time></trkpt><trkpt lat="44.806926334195" lon="7.315787813359528"><ele>380.0</ele><time>2026-04-05T09:23:51.002Z</time></trkpt><trkpt lat="44.80701400685416" lon="7.315756160232359"><ele>379.6</ele><time>2026-04-05T09:23:53.002Z</time></trkpt><trkpt lat="44.8071028797476" lon="7.315730979618028"><ele>379.2</ele><time>2026-04-05T09:23:55.002Z</time></trkpt><trkpt lat="44.80719361026144" lon="7.315705896959736"><ele>378.79999999999995</ele><time>2026-04-05T09:23:57.002Z</time></trkpt><trkpt lat="44.80728398579515" lon="7.315678183746302"><ele>378.4</ele><time>2026-04-05T09:23:59.002Z</time></trkpt><trkpt lat="44.80737380672005" lon="7.315649274478731"><ele>378.0</ele><time>2026-04-05T09:24:01.002Z</time></trkpt><trkpt lat="44.80746253082967" lon="7.31562076152783"><ele>378.0</ele><time>2026-04-05T09:24:03.002Z</time></trkpt><trkpt lat="44.80755189338958" lon="7.315596399816756"><ele>378.0</ele><time>2026-04-05T09:24:05.002Z</time></trkpt><trkpt lat="44.807643229767436" lon="7.315565945358871"><ele>378.0</ele><time>2026-04-05T09:24:07.002Z</time></trkpt><trkpt lat="44.80773503172512" lon="7.315538377321641"><ele>378.0</ele><time>2026-04-05T09:24:09.002Z</time></trkpt><trkpt lat="44.8078293370227" lon="7.315511848373566"><ele>378.0</ele><time>2026-04-05T09:24:11.002Z</time></trkpt><trkpt lat="44.80792360027348" lon="7.315484293710768"><ele>378.2</ele><time>2026-04-05T09:24:13.002Z</time></trkpt><trkpt lat="44.808016273876845" lon="7.315458102819322"><ele>378.4</ele><time>2026-04-05T09:24:15.002Z</time></trkpt><trkpt lat="44.80810913283027" lon="7.315434764823059"><ele>378.59999999999997</ele><time>2026-04-05T09:24:17.002Z</time></trkpt><trkpt lat="44.808201473970776" lon="7.315403202225841"><ele>378.79999999999995</ele><time>2026-04-05T09:24:19.002Z</time></trkpt><trkpt lat="44.80829451698288" lon="7.31537700163751"><ele>379.0</ele><time>2026-04-05T09:24:21.002Z</time></trkpt><trkpt lat="44.808386677385386" lon="7.315346338083566"><ele>379.0</ele><time>2026-04-05T09:24:23.002Z</time></trkpt><trkpt lat="44.80847915814208" lon="7.3153182496202485"><ele>379.0</ele><time>2026-04-05T09:24:25.002Z</time></trkpt><trkpt lat="44.808569359699675" lon="7.315288955498467"><ele>379.0</ele><time>2026-04-05T09:24:27.002Z</time></trkpt><trkpt lat="44.808663964166875" lon="7.315264790619449"><ele>379.0</ele><time>2026-04-05T09:24:29.003Z</time></trkpt><trkpt lat="44.80875925468717" lon="7.3152351430677856"><ele>379.0</ele><time>2026-04-05T09:24:31.003Z</time></trkpt><trkpt lat="44.808853045292885" lon="7.315203545140828"><ele>379.0</ele><time>2026-04-05T09:24:33.003Z</time></trkpt><trkpt lat="44.80894586106266" lon="7.315171721733768"><ele>379.0</ele><time>2026-04-05T09:24:35Z</time></trkpt><trkpt lat="44.809040970512925" lon="7.315143483119297"><ele>379.0</ele><time>2026-04-05T09:24:37Z</time></trkpt><trkpt lat="44.809134168098346" lon="7.315119005009724"><ele>379.0</ele><time>2026-04-05T09:24:39Z</time></trkpt><trkpt lat="44.80922856925038" lon="7.315090981359442"><ele>379.0</ele><time>2026-04-05T09:24:41Z</time></trkpt><trkpt lat="44.80932179892053" lon="7.315063422294966"><ele>379.6</ele><time>2026-04-05T09:24:43Z</time></trkpt><trkpt lat="44.809415750443335" lon="7.315035345596476"><ele>380.2</ele><time>2026-04-05T09:24:45Z</time></trkpt><trkpt lat="44.80950572557623" lon="7.3150058991105045"><ele>380.8</ele><time>2026-04-05T09:24:47Z</time></trkpt><trkpt lat="44.809597616157035" lon="7.314977698586236"><ele>381.40000000000003</ele><time>2026-04-05T09:24:49Z</time></trkpt><trkpt lat="44.809690063501385" lon="7.314950634203442"><ele>382.0</ele><time>2026-04-05T09:24:51Z</time></trkpt><trkpt lat="44.809781439589365" lon="7.314926356761562"><ele>382.0</ele><time>2026-04-05T09:24:53Z</time></trkpt><trkpt lat="44.809872466552825" lon="7.3148974455210345"><ele>382.0</ele><time>2026-04-05T09:24:55Z</time></trkpt><trkpt lat="44.8099638455798" lon="7.3148653960272325"><ele>382.0</ele><time>2026-04-05T09:24:57Z</time></trkpt><trkpt lat="44.81005585015867" lon="7.314837773843503"><ele>382.0</ele><time>2026-04-05T09:24:59Z</time></trkpt><trkpt lat="44.81014727579979" lon="7.314810899679228"><ele>382.0</ele><time>2026-04-05T09:25:01Z</time></trkpt><trkpt lat="44.81024005367591" lon="7.314784228297984"><ele>380.8</ele><time>2026-04-05T09:25:03Z</time></trkpt><trkpt lat="44.81033017199556" lon="7.3147535326207835"><ele>379.6</ele><time>2026-04-05T09:25:05.001Z</time></trkpt><trkpt lat="44.81042047687901" lon="7.3147269024051695"><ele>378.40000000000003</ele><time>2026-04-05T09:25:07.001Z</time></trkpt><trkpt lat="44.810508912039026" lon="7.314702162440054"><ele>377.20000000000005</ele><time>2026-04-05T09:25:09.001Z</time></trkpt><trkpt lat="44.81059409041572" lon="7.3146772006950735"><ele>376.0</ele><time>2026-04-05T09:25:11.001Z</time></trkpt><trkpt lat="44.81068084402815" lon="7.314646671004096"><ele>376.0</ele><time>2026-04-05T09:25:13.001Z</time></trkpt><trkpt lat="44.81076829570053" lon="7.314610748930863"><ele>376.0</ele><time>2026-04-05T09:25:15.001Z</time></trkpt><trkpt lat="44.81085822343892" lon="7.314588366148536"><ele>376.0</ele><time>2026-04-05T09:25:17.001Z</time></trkpt><trkpt lat="44.81095479126567" lon="7.314567151595952"><ele>376.0</ele><time>2026-04-05T09:25:19.001Z</time></trkpt><trkpt lat="44.81104933082079" lon="7.314534226406076"><ele>376.0</ele><time>2026-04-05T09:25:21.001Z</time></trkpt><trkpt lat="44.81114426516868" lon="7.314505820116781"><ele>376.0</ele><time>2026-04-05T09:25:23.001Z</time></trkpt><trkpt lat="44.811239258442384" lon="7.314477367248638"><ele>376.0</ele><time>2026-04-05T09:25:25.001Z</time></trkpt><trkpt lat="44.81133839344215" lon="7.314448422140408"><ele>376.0</ele><time>2026-04-05T09:25:27.001Z</time></trkpt><trkpt lat="44.81143072497032" lon="7.314420387363516"><ele>376.0</ele><time>2026-04-05T09:25:29.001Z</time></trkpt><trkpt lat="44.81152474867405" lon="7.3143936861952525"><ele>376.0</ele><time>2026-04-05T09:25:31.001Z</time></trkpt><trkpt lat="44.811611662846815" lon="7.314370307487016"><ele>376.0</ele><time>2026-04-05T09:25:33.001Z</time></trkpt><trkpt lat="44.81169743832984" lon="7.314338895735858"><ele>376.0</ele><time>2026-04-05T09:25:35.001Z</time></trkpt><trkpt lat="44.811786051457815" lon="7.314316745592953"><ele>376.0</ele><time>2026-04-05T09:25:37.001Z</time></trkpt><trkpt lat="44.81187633304996" lon="7.314288664494842"><ele>376.0</ele><time>2026-04-05T09:25:39.001Z</time></trkpt><trkpt lat="44.81196690561762" lon="7.314259901307514"><ele>376.0</ele><time>2026-04-05T09:25:41.001Z</time></trkpt><trkpt lat="44.81205853653848" lon="7.314231771008804"><ele>375.8</ele><time>2026-04-05T09:25:43.002Z</time></trkpt><trkpt lat="44.81214927077963" lon="7.314205391963991"><ele>375.6</ele><time>2026-04-05T09:25:45.002Z</time></trkpt><trkpt lat="44.812239595241934" lon="7.314177780660578"><ele>375.4</ele><time>2026-04-05T09:25:47.002Z</time></trkpt><trkpt lat="44.812330786387506" lon="7.3141474156372475"><ele>375.2</ele><time>2026-04-05T09:25:49.002Z</time></trkpt><trkpt lat="44.81241954588828" lon="7.314116899159768"><ele>375.0</ele><time>2026-04-05T09:25:51.002Z</time></trkpt><trkpt lat="44.81250831749729" lon="7.314092765232371"><ele>375.0</ele><time>2026-04-05T09:25:53.002Z</time></trkpt><trkpt lat="44.81259626358937" lon="7.3140694448462025"><ele>375.0</ele><time>2026-04-05T09:25:55.002Z</time></trkpt><trkpt lat="44.81268221831039" lon="7.314042538614387"><ele>375.0</ele><time>2026-04-05T09:25:57.002Z</time></trkpt><trkpt lat="44.812773989496485" lon="7.3140133405793755"><ele>375.0</ele><time>2026-04-05T09:25:59.002Z</time></trkpt><trkpt lat="44.81287334061471" lon="7.313981610099097"><ele>375.0</ele><time>2026-04-05T09:26:01.002Z</time></trkpt><trkpt lat="44.812978425112384" lon="7.3139554916478"><ele>374.8</ele><time>2026-04-05T09:26:03.002Z</time></trkpt><trkpt lat="44.813083342792176" lon="7.313924248798899"><ele>374.6</ele><time>2026-04-05T09:26:05.002Z</time></trkpt><trkpt lat="44.81318129251119" lon="7.31389172745138"><ele>374.4</ele><time>2026-04-05T09:26:07.002Z</time></trkpt><trkpt lat="44.81327181854664" lon="7.313866845426071"><ele>374.2</ele><time>2026-04-05T09:26:09.002Z</time></trkpt><trkpt lat="44.813351211009426" lon="7.3138419773184795"><ele>374.0</ele><time>2026-04-05T09:26:11.002Z</time></trkpt><trkpt lat="44.81342980769897" lon="7.313815609829018"><ele>374.33333333333337</ele><time>2026-04-05T09:26:13.002Z</time></trkpt><trkpt lat="44.813508325360104" lon="7.313791140192535"><ele>374.6666666666667</ele><time>2026-04-05T09:26:15.002Z</time></trkpt><trkpt lat="44.813591435048465" lon="7.313768528130252"><ele>375.0</ele><time>2026-04-05T09:26:17.002Z</time></trkpt><trkpt lat="44.813675451040794" lon="7.313736896582484"><ele>375.3333333333333</ele><time>2026-04-05T09:26:19.002Z</time></trkpt><trkpt lat="44.81375708140925" lon="7.313707033777917"><ele>375.66666666666663</ele><time>2026-04-05T09:26:21.002Z</time></trkpt><trkpt lat="44.81383603326374" lon="7.31367768967925"><ele>376.0</ele><time>2026-04-05T09:26:23.002Z</time></trkpt><trkpt lat="44.8139147011121" lon="7.313642231343873"><ele>376.0</ele><time>2026-04-05T09:26:25.003Z</time></trkpt><trkpt lat="44.813994328516756" lon="7.313611177087167"><ele>376.0</ele><time>2026-04-05T09:26:27.003Z</time></trkpt><trkpt lat="44.814072280281884" lon="7.31357229152265"><ele>376.0</ele><time>2026-04-05T09:26:29.003Z</time></trkpt><trkpt lat="44.814149828086755" lon="7.313533620174962"><ele>376.0</ele><time>2026-04-05T09:26:31.003Z</time></trkpt><trkpt lat="44.814227514000166" lon="7.313490622262312"><ele>376.0</ele><time>2026-04-05T09:26:33.003Z</time></trkpt><trkpt lat="44.814303450596796" lon="7.313452599524894"><ele>376.0</ele><time>2026-04-05T09:26:35.003Z</time></trkpt><trkpt lat="44.81437672285026" lon="7.313406430389048"><ele>376.0</ele><time>2026-04-05T09:26:37.003Z</time></trkpt><trkpt lat="44.8144505121646" lon="7.313356976036836"><ele>376.0</ele><time>2026-04-05T09:26:39.003Z</time></trkpt><trkpt lat="44.814520735708896" lon="7.313302897859191"><ele>376.0</ele><time>2026-04-05T09:26:41Z</time></trkpt><trkpt lat="44.814590629289846" lon="7.313257303631123"><ele>376.0</ele><time>2026-04-05T09:26:43Z</time></trkpt><trkpt lat="44.81466171827871" lon="7.313206195338296"><ele>376.0</ele><time>2026-04-05T09:26:45Z</time></trkpt><trkpt lat="44.81472884204807" lon="7.313162605017546"><ele>376.0</ele><time>2026-04-05T09:26:47Z</time></trkpt><trkpt lat="44.81478843171557" lon="7.313119477892133"><ele>376.16666666666663</ele><time>2026-04-05T09:26:49Z</time></trkpt><trkpt lat="44.8148588080559" lon="7.31306478928667"><ele>376.3333333333333</ele><time>2026-04-05T09:26:51Z</time></trkpt><trkpt lat="44.81493605766906" lon="7.313002598593864"><ele>376.5</ele><time>2026-04-05T09:26:53Z</time></trkpt><trkpt lat="44.815016050502045" lon="7.312940776789099"><ele>376.6666666666667</ele><time>2026-04-05T09:26:55Z</time></trkpt><trkpt lat="44.815098913128054" lon="7.312884827575108"><ele>376.83333333333337</ele><time>2026-04-05T09:26:57Z</time></trkpt><trkpt lat="44.81517632011708" lon="7.312825389962991"><ele>377.0</ele><time>2026-04-05T09:26:59Z</time></trkpt><trkpt lat="44.81525068385941" lon="7.312765539496549"><ele>377.0</ele><time>2026-04-05T09:27:01Z</time></trkpt><trkpt lat="44.81532565102201" lon="7.312709887303096"><ele>377.0</ele><time>2026-04-05T09:27:03Z</time></trkpt><trkpt lat="44.815396262815774" lon="7.312653095100003"><ele>377.0</ele><time>2026-04-05T09:27:05Z</time></trkpt><trkpt lat="44.81546979403373" lon="7.312598346493769"><ele>377.0</ele><time>2026-04-05T09:27:07Z</time></trkpt><trkpt lat="44.81554195689697" lon="7.312544524585841"><ele>377.0</ele><time>2026-04-05T09:27:09Z</time></trkpt><trkpt lat="44.81561464190979" lon="7.312490207694172"><ele>377.0</ele><time>2026-04-05T09:27:11Z</time></trkpt><trkpt lat="44.81568449386222" lon="7.312438988276609"><ele>377.0</ele><time>2026-04-05T09:27:13.001Z</time></trkpt><trkpt lat="44.81575636449266" lon="7.3123871879032585"><ele>377.0</ele><time>2026-04-05T09:27:15.001Z</time></trkpt><trkpt lat="44.81582852683823" lon="7.312333945351677"><ele>377.0</ele><time>2026-04-05T09:27:17.001Z</time></trkpt><trkpt lat="44.815899209868135" lon="7.312281627009383"><ele>377.0</ele><time>2026-04-05T09:27:19.001Z</time></trkpt><trkpt lat="44.81596948982583" lon="7.312225763472922"><ele>377.0</ele><time>2026-04-05T09:27:21.001Z</time></trkpt><trkpt lat="44.81603804068556" lon="7.312174217728225"><ele>377.0</ele><time>2026-04-05T09:27:23.001Z</time></trkpt><trkpt lat="44.816107235103885" lon="7.3121211813087434"><ele>376.6666666666667</ele><time>2026-04-05T09:27:25.001Z</time></trkpt><trkpt lat="44.81617366577154" lon="7.312066587688303"><ele>376.33333333333337</ele><time>2026-04-05T09:27:27.001Z</time></trkpt><trkpt lat="44.81623943131222" lon="7.312013922191689"><ele>376.0</ele><time>2026-04-05T09:27:29.001Z</time></trkpt><trkpt lat="44.816308884990235" lon="7.311959970240899"><ele>375.6666666666667</ele><time>2026-04-05T09:27:31.001Z</time></trkpt><trkpt lat="44.81637758942746" lon="7.311910544184497"><ele>375.3333333333333</ele><time>2026-04-05T09:27:33.001Z</time></trkpt><trkpt lat="44.8164474358277" lon="7.311857180012123"><ele>375.0</ele><time>2026-04-05T09:27:35.001Z</time></trkpt><trkpt lat="44.816516111389" lon="7.3118045128744065"><ele>375.0</ele><time>2026-04-05T09:27:37.001Z</time></trkpt><trkpt lat="44.81658611143337" lon="7.311749271483158"><ele>375.0</ele><time>2026-04-05T09:27:39.001Z</time></trkpt><trkpt lat="44.816654257797104" lon="7.311696427885581"><ele>375.0</ele><time>2026-04-05T09:27:41.001Z</time></trkpt><trkpt lat="44.81672489241054" lon="7.311641860656572"><ele>375.0</ele><time>2026-04-05T09:27:43.001Z</time></trkpt><trkpt lat="44.81679771412141" lon="7.311589270581949"><ele>375.0</ele><time>2026-04-05T09:27:45.001Z</time></trkpt><trkpt lat="44.81687095019107" lon="7.31153365326368"><ele>375.0</ele><time>2026-04-05T09:27:47.001Z</time></trkpt><trkpt lat="44.816942089222344" lon="7.311469145046421"><ele>375.5</ele><time>2026-04-05T09:27:49.001Z</time></trkpt><trkpt lat="44.817017048661846" lon="7.311407012808015"><ele>376.0</ele><time>2026-04-05T09:27:51.001Z</time></trkpt><trkpt lat="44.81710073863078" lon="7.311364423987147"><ele>376.5</ele><time>2026-04-05T09:27:53.002Z</time></trkpt><trkpt lat="44.817179143231755" lon="7.311306611605454"><ele>377.0</ele><time>2026-04-05T09:27:55.002Z</time></trkpt><trkpt lat="44.817259337091876" lon="7.31124988862883"><ele>377.5</ele><time>2026-04-05T09:27:57.002Z</time></trkpt><trkpt lat="44.81733766748271" lon="7.311189945191884"><ele>378.0</ele><time>2026-04-05T09:27:59.002Z</time></trkpt><trkpt lat="44.81741458975919" lon="7.311130046709346"><ele>378.0</ele><time>2026-04-05T09:28:01.002Z</time></trkpt><trkpt lat="44.81749173455239" lon="7.31106972542853"><ele>378.0</ele><time>2026-04-05T09:28:03.002Z</time></trkpt><trkpt lat="44.81756668785307" lon="7.311010215521844"><ele>378.0</ele><time>2026-04-05T09:28:05.002Z</time></trkpt><trkpt lat="44.81764285848694" lon="7.310954337083637"><ele>378.0</ele><time>2026-04-05T09:28:07.002Z</time></trkpt><trkpt lat="44.817719001370506" lon="7.310895100073243"><ele>378.0</ele><time>2026-04-05T09:28:09.002Z</time></trkpt><trkpt lat="44.817798880023915" lon="7.310841182011076"><ele>378.0</ele><time>2026-04-05T09:28:11.002Z</time></trkpt><trkpt lat="44.81787405951206" lon="7.310783379356758"><ele>377.8333333333333</ele><time>2026-04-05T09:28:13.002Z</time></trkpt><trkpt lat="44.81794891266506" lon="7.310727856627815"><ele>377.6666666666667</ele><time>2026-04-05T09:28:15.002Z</time></trkpt><trkpt lat="44.81802594346551" lon="7.310667660411747"><ele>377.5</ele><time>2026-04-05T09:28:17.002Z</time></trkpt><trkpt lat="44.81810486543499" lon="7.310606742909474"><ele>377.33333333333337</ele><time>2026-04-05T09:28:19.002Z</time></trkpt><trkpt lat="44.81818547696423" lon="7.310546412685657"><ele>377.1666666666667</ele><time>2026-04-05T09:28:21.002Z</time></trkpt><trkpt lat="44.818269297136936" lon="7.310483377065883"><ele>377.0</ele><time>2026-04-05T09:28:23.002Z</time></trkpt><trkpt lat="44.81835058918591" lon="7.310423292381528"><ele>377.0</ele><time>2026-04-05T09:28:25.002Z</time></trkpt><trkpt lat="44.818429085106935" lon="7.310363604414488"><ele>377.0</ele><time>2026-04-05T09:28:27.002Z</time></trkpt><trkpt lat="44.81850981866651" lon="7.310299252594178"><ele>377.0</ele><time>2026-04-05T09:28:29.002Z</time></trkpt><trkpt lat="44.81858993600831" lon="7.310238646742244"><ele>377.0</ele><time>2026-04-05T09:28:31.002Z</time></trkpt><trkpt lat="44.818670265338916" lon="7.310178138881271"><ele>377.0</ele><time>2026-04-05T09:28:33.003Z</time></trkpt><trkpt lat="44.8187508503654" lon="7.31011631393389"><ele>377.0</ele><time>2026-04-05T09:28:35.003Z</time></trkpt><trkpt lat="44.81883269726663" lon="7.3100503697380415"><ele>377.0</ele><time>2026-04-05T09:28:37.003Z</time></trkpt><trkpt lat="44.81891326861452" lon="7.309994153557137"><ele>377.0</ele><time>2026-04-05T09:28:39.003Z</time></trkpt><trkpt lat="44.81899288822633" lon="7.30993190789487"><ele>377.0</ele><time>2026-04-05T09:28:41.003Z</time></trkpt><trkpt lat="44.819071860182305" lon="7.309872319687909"><ele>377.0</ele><time>2026-04-05T09:28:43.003Z</time></trkpt><trkpt lat="44.819148303395195" lon="7.309809637019495"><ele>377.0</ele><time>2026-04-05T09:28:45.003Z</time></trkpt><trkpt lat="44.81922556543994" lon="7.309751058823589"><ele>377.0</ele><time>2026-04-05T09:28:47Z</time></trkpt><trkpt lat="44.819306073784965" lon="7.309695158262129"><ele>377.0</ele><time>2026-04-05T09:28:49Z</time></trkpt><trkpt lat="44.819385205259316" lon="7.309634644991873"><ele>377.0</ele><time>2026-04-05T09:28:51Z</time></trkpt><trkpt lat="44.819462760078274" lon="7.309572684007717"><ele>377.0</ele><time>2026-04-05T09:28:53Z</time></trkpt><trkpt lat="44.81953879007579" lon="7.309515297444714"><ele>377.0</ele><time>2026-04-05T09:28:55Z</time></trkpt><trkpt lat="44.819620344738965" lon="7.309459097350987"><ele>377.5</ele><time>2026-04-05T09:28:57Z</time></trkpt><trkpt lat="44.81970063884748" lon="7.309399474034398"><ele>378.0</ele><time>2026-04-05T09:28:59Z</time></trkpt><trkpt lat="44.81977929093399" lon="7.309334700158432"><ele>378.5</ele><time>2026-04-05T09:29:01Z</time></trkpt><trkpt lat="44.819855385924875" lon="7.309277386140649"><ele>379.0</ele><time>2026-04-05T09:29:03Z</time></trkpt><trkpt lat="44.819934060119955" lon="7.309220289804299"><ele>379.5</ele><time>2026-04-05T09:29:05Z</time></trkpt><trkpt lat="44.82001023075277" lon="7.309161666042203"><ele>380.0</ele><time>2026-04-05T09:29:07Z</time></trkpt><trkpt lat="44.82008826092346" lon="7.309103738426096"><ele>379.83333333333337</ele><time>2026-04-05T09:29:09Z</time></trkpt><trkpt lat="44.82016668527555" lon="7.309045013696843"><ele>379.6666666666667</ele><time>2026-04-05T09:29:11Z</time></trkpt><trkpt lat="44.820245679511984" lon="7.30898701919384"><ele>379.5</ele><time>2026-04-05T09:29:13Z</time></trkpt><trkpt lat="44.8203244481445" lon="7.308926817314952"><ele>379.3333333333333</ele><time>2026-04-05T09:29:15Z</time></trkpt><trkpt lat="44.82040169536565" lon="7.308866888259854"><ele>379.16666666666663</ele><time>2026-04-05T09:29:17Z</time></trkpt><trkpt lat="44.82048023881209" lon="7.3088037103937875"><ele>379.0</ele><time>2026-04-05T09:29:19Z</time></trkpt><trkpt lat="44.82056006480678" lon="7.3087448364789"><ele>379.66666666666663</ele><time>2026-04-05T09:29:21Z</time></trkpt><trkpt lat="44.82063936466262" lon="7.308685130561532"><ele>380.3333333333333</ele><time>2026-04-05T09:29:23Z</time></trkpt><trkpt lat="44.82071604342263" lon="7.308626801648399"><ele>381.0</ele><time>2026-04-05T09:29:25Z</time></trkpt><trkpt lat="44.82078831173706" lon="7.308569268079287"><ele>381.6666666666667</ele><time>2026-04-05T09:29:27.001Z</time></trkpt><trkpt lat="44.820865185996055" lon="7.308512224877233"><ele>382.33333333333337</ele><time>2026-04-05T09:29:29.001Z</time></trkpt><trkpt lat="44.82094158506192" lon="7.308459249217964"><ele>383.0</ele><time>2026-04-05T09:29:31.001Z</time></trkpt><trkpt lat="44.82101669597574" lon="7.308407467201951"><ele>383.1666666666667</ele><time>2026-04-05T09:29:33.001Z</time></trkpt><trkpt lat="44.821083444985184" lon="7.30835580761332"><ele>383.33333333333337</ele><time>2026-04-05T09:29:35.001Z</time></trkpt><trkpt lat="44.82114811025283" lon="7.308305389186188"><ele>383.5</ele><time>2026-04-05T09:29:37.001Z</time></trkpt><trkpt lat="44.821210899239574" lon="7.308243527708698"><ele>383.6666666666667</ele><time>2026-04-05T09:29:40.001Z</time></trkpt><trkpt lat="44.821265167688864" lon="7.308181194596636"><ele>383.8333333333333</ele><time>2026-04-05T09:29:43.001Z</time></trkpt><trkpt lat="44.82134374770324" lon="7.3081476796371545"><ele>384.0</ele><time>2026-04-05T09:29:45.001Z</time></trkpt><trkpt lat="44.82142393207561" lon="7.308107355473771"><ele>384.2</ele><time>2026-04-05T09:29:47.001Z</time></trkpt><trkpt lat="44.82150573350983" lon="7.308047186625557"><ele>384.4</ele><time>2026-04-05T09:29:49.001Z</time></trkpt><trkpt lat="44.82159144694019" lon="7.3079860529719705"><ele>384.6</ele><time>2026-04-05T09:29:51.001Z</time></trkpt><trkpt lat="44.821672491590576" lon="7.30792279185423"><ele>384.8</ele><time>2026-04-05T09:29:53.001Z</time></trkpt><trkpt lat="44.82175098883371" lon="7.307857703123865"><ele>385.0</ele><time>2026-04-05T09:29:55.001Z</time></trkpt><trkpt lat="44.82183049842982" lon="7.307797937120167"><ele>384.6666666666667</ele><time>2026-04-05T09:29:57.001Z</time></trkpt><trkpt lat="44.821910673409256" lon="7.307742738430319"><ele>384.33333333333337</ele><time>2026-04-05T09:29:59.001Z</time></trkpt><trkpt lat="44.82198684825924" lon="7.307681780729411"><ele>384.0</ele><time>2026-04-05T09:30:01.001Z</time></trkpt><trkpt lat="44.8220623181072" lon="7.307619732610419"><ele>383.6666666666667</ele><time>2026-04-05T09:30:03.001Z</time></trkpt><trkpt lat="44.82213552620711" lon="7.307561700887647"><ele>383.33333333333337</ele><time>2026-04-05T09:30:05.001Z</time></trkpt><trkpt lat="44.822211457852056" lon="7.307507589473358"><ele>383.0</ele><time>2026-04-05T09:30:07.001Z</time></trkpt><trkpt lat="44.82229351046237" lon="7.307458372403015"><ele>383.0</ele><time>2026-04-05T09:30:09.001Z</time></trkpt><trkpt lat="44.82237710056771" lon="7.307412529036848"><ele>383.0</ele><time>2026-04-05T09:30:11.002Z</time></trkpt><trkpt lat="44.82246280954528" lon="7.307369506505153"><ele>383.0</ele><time>2026-04-05T09:30:13.002Z</time></trkpt><trkpt lat="44.82254585313692" lon="7.307327944171454"><ele>383.0</ele><time>2026-04-05T09:30:15.002Z</time></trkpt><trkpt lat="44.82262167739769" lon="7.3072931968750074"><ele>383.0</ele><time>2026-04-05T09:30:17.002Z</time></trkpt><trkpt lat="44.8226948975021" lon="7.307267179898182"><ele>383.0</ele><time>2026-04-05T09:30:19.002Z</time></trkpt><trkpt lat="44.82276141673968" lon="7.307247372195521"><ele>382.59999999999997</ele><time>2026-04-05T09:30:21.002Z</time></trkpt><trkpt lat="44.822826593339926" lon="7.307165818643181"><ele>382.2</ele><time>2026-04-05T09:30:25.002Z</time></trkpt><trkpt lat="44.822788941625625" lon="7.307044947033453"><ele>381.8</ele><time>2026-04-05T09:30:28.002Z</time></trkpt><trkpt lat="44.82279890906413" lon="7.306914680860179"><ele>381.4</ele><time>2026-04-05T09:30:31.002Z</time></trkpt><trkpt lat="44.82288497381367" lon="7.306847397609692"><ele>381.0</ele><time>2026-04-05T09:30:33.002Z</time></trkpt><trkpt lat="44.82294075182489" lon="7.306751854447054"><ele>381.0</ele><time>2026-04-05T09:30:35.002Z</time></trkpt><trkpt lat="44.82300449687771" lon="7.306662616000232"><ele>381.0</ele><time>2026-04-05T09:30:37.002Z</time></trkpt><trkpt lat="44.82306808477776" lon="7.3065805870336336"><ele>381.0</ele><time>2026-04-05T09:30:39.002Z</time></trkpt><trkpt lat="44.823124256130576" lon="7.306494632949075"><ele>381.0</ele><time>2026-04-05T09:30:41.002Z</time></trkpt><trkpt lat="44.82317482202255" lon="7.3064364176803736"><ele>381.0</ele><time>2026-04-05T09:30:43.002Z</time></trkpt><trkpt lat="44.82323128819492" lon="7.306347354605985"><ele>381.0</ele><time>2026-04-05T09:30:45.002Z</time></trkpt><trkpt lat="44.82328387550319" lon="7.306273390755101"><ele>381.2857142857143</ele><time>2026-04-05T09:30:47.002Z</time></trkpt><trkpt lat="44.823331414465244" lon="7.306201187348537"><ele>381.5714285714286</ele><time>2026-04-05T09:30:49.002Z</time></trkpt><trkpt lat="44.82337812719722" lon="7.30613245412352"><ele>381.8571428571429</ele><time>2026-04-05T09:30:51.003Z</time></trkpt><trkpt lat="44.82342522411624" lon="7.306061222375509"><ele>382.1428571428571</ele><time>2026-04-05T09:30:53Z</time></trkpt><trkpt lat="44.82347417948688" lon="7.305990836875491"><ele>382.42857142857144</ele><time>2026-04-05T09:30:55Z</time></trkpt><trkpt lat="44.82352514313204" lon="7.305922307203386"><ele>382.7142857142857</ele><time>2026-04-05T09:30:57Z</time></trkpt><trkpt lat="44.82357722794999" lon="7.3058542633905015"><ele>383.0</ele><time>2026-04-05T09:30:59Z</time></trkpt><trkpt lat="44.82362277737652" lon="7.3057900383845205"><ele>383.0</ele><time>2026-04-05T09:31:01Z</time></trkpt><trkpt lat="44.823668769025936" lon="7.305715518987675"><ele>383.0</ele><time>2026-04-05T09:31:03Z</time></trkpt><trkpt lat="44.82372581834829" lon="7.305631630153325"><ele>383.0</ele><time>2026-04-05T09:31:05Z</time></trkpt><trkpt lat="44.82378065117475" lon="7.305550837391516"><ele>383.0</ele><time>2026-04-05T09:31:07Z</time></trkpt><trkpt lat="44.823835399928065" lon="7.305466738012584"><ele>383.0</ele><time>2026-04-05T09:31:09Z</time></trkpt><trkpt lat="44.823888011048076" lon="7.305384718464641"><ele>383.0</ele><time>2026-04-05T09:31:11Z</time></trkpt><trkpt lat="44.82394396016984" lon="7.305303672150353"><ele>383.33333333333337</ele><time>2026-04-05T09:31:13Z</time></trkpt><trkpt lat="44.82399539860834" lon="7.305220733938501"><ele>383.6666666666667</ele><time>2026-04-05T09:31:15Z</time></trkpt><trkpt lat="44.82404409960055" lon="7.305137625839338"><ele>384.0</ele><time>2026-04-05T09:31:17.001Z</time></trkpt><trkpt lat="44.82407529057158" lon="7.305041315154276"><ele>384.33333333333337</ele><time>2026-04-05T09:31:19.001Z</time></trkpt><trkpt lat="44.82411031188172" lon="7.304943514634078"><ele>384.6666666666667</ele><time>2026-04-05T09:31:21.001Z</time></trkpt><trkpt lat="44.82414613962148" lon="7.304851785398682"><ele>385.0</ele><time>2026-04-05T09:31:23.001Z</time></trkpt><trkpt lat="44.824193112439715" lon="7.304775964500009"><ele>385.14285714285717</ele><time>2026-04-05T09:31:25.001Z</time></trkpt><trkpt lat="44.82425495757853" lon="7.30473211622769"><ele>385.2857142857143</ele><time>2026-04-05T09:31:27.001Z</time></trkpt><trkpt lat="44.82432320638325" lon="7.304735140597067"><ele>385.42857142857144</ele><time>2026-04-05T09:31:29.001Z</time></trkpt><trkpt lat="44.8243855840046" lon="7.304755483025765"><ele>385.57142857142856</ele><time>2026-04-05T09:31:31.001Z</time></trkpt><trkpt lat="44.82446752782738" lon="7.304777268680971"><ele>385.7142857142857</ele><time>2026-04-05T09:31:34.001Z</time></trkpt><trkpt lat="44.824537979724724" lon="7.304766309604132"><ele>385.8571428571429</ele><time>2026-04-05T09:31:37.001Z</time></trkpt><trkpt lat="44.824562431861814" lon="7.304650272758156"><ele>386.0</ele><time>2026-04-05T09:31:39.001Z</time></trkpt><trkpt lat="44.82455557012883" lon="7.304514261683689"><ele>386.0</ele><time>2026-04-05T09:31:41.001Z</time></trkpt><trkpt lat="44.82456064213841" lon="7.304359699957748"><ele>386.0</ele><time>2026-04-05T09:31:43.001Z</time></trkpt><trkpt lat="44.824561713592516" lon="7.304212737337226"><ele>386.0</ele><time>2026-04-05T09:31:45.001Z</time></trkpt><trkpt lat="44.82456439094595" lon="7.304073971667157"><ele>386.0</ele><time>2026-04-05T09:31:47.001Z</time></trkpt><trkpt lat="44.82456183796731" lon="7.30394278984821"><ele>386.0</ele><time>2026-04-05T09:31:49.001Z</time></trkpt><trkpt lat="44.82456463011712" lon="7.303818442670899"><ele>386.49999999999994</ele><time>2026-04-05T09:31:51.001Z</time></trkpt><trkpt lat="44.82456697114901" lon="7.303704413181109"><ele>387.0</ele><time>2026-04-05T09:31:53.001Z</time></trkpt><trkpt lat="44.82457112087891" lon="7.303603540604909"><ele>387.5</ele><time>2026-04-05T09:31:55.001Z</time></trkpt><trkpt lat="44.82457572389883" lon="7.303486701308583"><ele>388.0</ele><time>2026-04-05T09:31:58.002Z</time></trkpt><trkpt lat="44.824579541144466" lon="7.303380678050133"><ele>388.49999999999994</ele><time>2026-04-05T09:32:01.002Z</time></trkpt><trkpt lat="44.82456064933787" lon="7.303279195045839"><ele>389.0</ele><time>2026-04-05T09:32:03.002Z</time></trkpt><trkpt lat="44.82456301352632" lon="7.303151789525163"><ele>389.16666666666663</ele><time>2026-04-05T09:32:05.002Z</time></trkpt><trkpt lat="44.824551603235115" lon="7.303039493557242"><ele>389.3333333333333</ele><time>2026-04-05T09:32:07.002Z</time></trkpt><trkpt lat="44.82455529387675" lon="7.302920139033019"><ele>389.5</ele><time>2026-04-05T09:32:09.002Z</time></trkpt><trkpt lat="44.82455570833901" lon="7.302816744264477"><ele>389.66666666666663</ele><time>2026-04-05T09:32:11.002Z</time></trkpt><trkpt lat="44.82456186400814" lon="7.3027247476622685"><ele>389.8333333333333</ele><time>2026-04-05T09:32:13.002Z</time></trkpt><trkpt lat="44.82457025085466" lon="7.3026346242009526"><ele>390.0</ele><time>2026-04-05T09:32:15.002Z</time></trkpt><trkpt lat="44.824560539548145" lon="7.302495933429413"><ele>390.0</ele><time>2026-04-05T09:32:18.002Z</time></trkpt><trkpt lat="44.82455584658296" lon="7.302389387248842"><ele>390.0</ele><time>2026-04-05T09:32:21.002Z</time></trkpt><trkpt lat="44.82463749825932" lon="7.302362016425802"><ele>390.0</ele><time>2026-04-05T09:32:24.002Z</time></trkpt><trkpt lat="44.82473631127196" lon="7.3023405612692125"><ele>390.0</ele><time>2026-04-05T09:32:27.002Z</time></trkpt><trkpt lat="44.82482180690967" lon="7.302347786679661"><ele>390.0</ele><time>2026-04-05T09:32:29.002Z</time></trkpt><trkpt lat="44.82489597437051" lon="7.3023520654565885"><ele>390.0</ele><time>2026-04-05T09:32:31.002Z</time></trkpt><trkpt lat="44.824966443521475" lon="7.302350731807986"><ele>390.0</ele><time>2026-04-05T09:32:33.002Z</time></trkpt><trkpt lat="44.825035118150026" lon="7.30235028688491"><ele>390.0</ele><time>2026-04-05T09:32:35.002Z</time></trkpt><trkpt lat="44.825105299671165" lon="7.3023475226770405"><ele>390.0</ele><time>2026-04-05T09:32:37.002Z</time></trkpt><trkpt lat="44.82518108328096" lon="7.302347040045634"><ele>390.0</ele><time>2026-04-05T09:32:39.003Z</time></trkpt><trkpt lat="44.82525719001276" lon="7.302339825841836"><ele>390.0</ele><time>2026-04-05T09:32:41.003Z</time></trkpt><trkpt lat="44.825338911667735" lon="7.302339578685332"><ele>390.0</ele><time>2026-04-05T09:32:43.003Z</time></trkpt><trkpt lat="44.825424286555894" lon="7.302335312671901"><ele>389.8333333333333</ele><time>2026-04-05T09:32:45.003Z</time></trkpt><trkpt lat="44.82551974169101" lon="7.302334899684564"><ele>389.66666666666663</ele><time>2026-04-05T09:32:47.003Z</time></trkpt><trkpt lat="44.82560804369339" lon="7.302330156860773"><ele>389.5</ele><time>2026-04-05T09:32:49.003Z</time></trkpt><trkpt lat="44.82569118670258" lon="7.302348555097358"><ele>389.3333333333333</ele><time>2026-04-05T09:32:52.003Z</time></trkpt><trkpt lat="44.82576137862009" lon="7.30237364783276"><ele>389.16666666666663</ele><time>2026-04-05T09:32:56.003Z</time></trkpt><trkpt lat="44.825838285034905" lon="7.302428262704924"><ele>389.0</ele><time>2026-04-05T09:32:59.001Z</time></trkpt><trkpt lat="44.82591285591548" lon="7.302409979444179"><ele>389.0</ele><time>2026-04-05T09:33:02.001Z</time></trkpt><trkpt lat="44.82600211402525" lon="7.302424395643747"><ele>398.0</ele><time>2026-04-05T09:33:05.001Z</time></trkpt><trkpt lat="44.82601495673881" lon="7.30253975091162"><ele>398.0</ele><time>2026-04-05T09:33:07.001Z</time></trkpt><trkpt lat="44.82599211901541" lon="7.302631301905194"><ele>398.0</ele><time>2026-04-05T09:33:09.001Z</time></trkpt><trkpt lat="44.82603319758447" lon="7.3026997410085945"><ele>398.0</ele><time>2026-04-05T09:33:11.001Z</time></trkpt></trkseg></trk></gpx>